<?xml version='1.0' encoding='UTF-8'?><gpx version="1.1" creator="JPX - https://github.com/jenetics/jpx" xmlns="http://www.topografix.com/GPX/1/1"><trk><trkseg><trkpt lat="43.210307" lon="13.3565398"><ele>273.0</ele><time>2026-04-23T10:52:41.886Z</time></trkpt><trkpt lat="43.210243" lon="13.3564986"><ele>273.0</ele><time>2026-04-23T10:52:44.887Z</time></trkpt><trkpt lat="43.2102377" lon="13.3564093"><ele>273.0</ele><time>2026-04-23T10:52:47.886Z</time></trkpt><trkpt lat="43.2102279" lon="13.356319"><ele>273.0</ele><time>2026-04-23T10:52:50.8Z</time></trkpt><trkpt lat="43.2101974" lon="13.356233"><ele>273.0</ele><time>2026-04-23T10:52:54.885Z</time></trkpt><trkpt lat="43.210189" lon="13.356129"><ele>273.0</ele><time>2026-04-23T10:53:05.886Z</time></trkpt><trkpt lat="43.210145" lon="13.3560293"><ele>273.0</ele><time>2026-04-23T10:53:14.886Z</time></trkpt><trkpt lat="43.2100935" lon="13.3559667"><ele>272.8</ele><time>2026-04-23T10:53:15.886Z</time></trkpt><trkpt lat="43.2100181" lon="13.3559525"><ele>272.6</ele><time>2026-04-23T10:53:16.887Z</time></trkpt><trkpt lat="43.2099337" lon="13.3559651"><ele>272.4</ele><time>2026-04-23T10:53:17.886Z</time></trkpt><trkpt lat="43.209844" lon="13.3559771"><ele>272.2</ele><time>2026-04-23T10:53:18.886Z</time></trkpt><trkpt lat="43.2097422" lon="13.3560043"><ele>272.0</ele><time>2026-04-23T10:53:19.886Z</time></trkpt><trkpt lat="43.2096393" lon="13.3560436"><ele>272.0</ele><time>2026-04-23T10:53:20.885Z</time></trkpt><trkpt lat="43.2095351" lon="13.3560864"><ele>272.0</ele><time>2026-04-23T10:53:21.886Z</time></trkpt><trkpt lat="43.2094254" lon="13.3561524"><ele>272.0</ele><time>2026-04-23T10:53:22.886Z</time></trkpt><trkpt lat="43.2093113" lon="13.3562329"><ele>272.0</ele><time>2026-04-23T10:53:23.886Z</time></trkpt><trkpt lat="43.2091904" lon="13.3563256"><ele>270.0</ele><time>2026-04-23T10:53:24.886Z</time></trkpt><trkpt lat="43.2090654" lon="13.3564236"><ele>268.0</ele><time>2026-04-23T10:53:25.884Z</time></trkpt><trkpt lat="43.2089349" lon="13.3565309"><ele>266.0</ele><time>2026-04-23T10:53:26.886Z</time></trkpt><trkpt lat="43.2088084" lon="13.356651"><ele>265.6666666666667</ele><time>2026-04-23T10:53:27.886Z</time></trkpt><trkpt lat="43.2086917" lon="13.3567824"><ele>265.3333333333333</ele><time>2026-04-23T10:53:28.886Z</time></trkpt><trkpt lat="43.2085854" lon="13.3569272"><ele>265.0</ele><time>2026-04-23T10:53:29.886Z</time></trkpt><trkpt lat="43.2084848" lon="13.3570887"><ele>262.0</ele><time>2026-04-23T10:53:30.885Z</time></trkpt><trkpt lat="43.2083816" lon="13.3572364"><ele>259.0</ele><time>2026-04-23T10:53:31.886Z</time></trkpt><trkpt lat="43.2082668" lon="13.3573653"><ele>256.0</ele><time>2026-04-23T10:53:32.885Z</time></trkpt><trkpt lat="43.2081332" lon="13.3574736"><ele>255.25</ele><time>2026-04-23T10:53:33.886Z</time></trkpt><trkpt lat="43.2079936" lon="13.3575667"><ele>254.5</ele><time>2026-04-23T10:53:34.886Z</time></trkpt><trkpt lat="43.2078528" lon="13.3576446"><ele>253.75</ele><time>2026-04-23T10:53:35.885Z</time></trkpt><trkpt lat="43.2077168" lon="13.3577026"><ele>253.0</ele><time>2026-04-23T10:53:36.885Z</time></trkpt><trkpt lat="43.2075777" lon="13.3577352"><ele>253.0</ele><time>2026-04-23T10:53:37.886Z</time></trkpt><trkpt lat="43.2074315" lon="13.3577264"><ele>253.0</ele><time>2026-04-23T10:53:38.885Z</time></trkpt><trkpt lat="43.207281" lon="13.3576867"><ele>253.0</ele><time>2026-04-23T10:53:39.886Z</time></trkpt><trkpt lat="43.2071254" lon="13.3576451"><ele>249.66666666666666</ele><time>2026-04-23T10:53:40.886Z</time></trkpt><trkpt lat="43.2069591" lon="13.3576201"><ele>246.33333333333331</ele><time>2026-04-23T10:53:41.886Z</time></trkpt><trkpt lat="43.2067958" lon="13.3576058"><ele>243.0</ele><time>2026-04-23T10:53:42.885Z</time></trkpt><trkpt lat="43.2066311" lon="13.3576179"><ele>240.0</ele><time>2026-04-23T10:53:43.886Z</time></trkpt><trkpt lat="43.2064736" lon="13.3576499"><ele>237.0</ele><time>2026-04-23T10:53:44.886Z</time></trkpt><trkpt lat="43.206326" lon="13.3576987"><ele>234.0</ele><time>2026-04-23T10:53:45.885Z</time></trkpt><trkpt lat="43.2061808" lon="13.3577751"><ele>234.0</ele><time>2026-04-23T10:53:46.886Z</time></trkpt><trkpt lat="43.206043" lon="13.3578859"><ele>234.0</ele><time>2026-04-23T10:53:47.885Z</time></trkpt><trkpt lat="43.2059215" lon="13.3580383"><ele>234.0</ele><time>2026-04-23T10:53:48.887Z</time></trkpt><trkpt lat="43.2058093" lon="13.3582137"><ele>235.0</ele><time>2026-04-23T10:53:49.885Z</time></trkpt><trkpt lat="43.2057061" lon="13.3583994"><ele>236.0</ele><time>2026-04-23T10:53:50.885Z</time></trkpt><trkpt lat="43.2056074" lon="13.3586017"><ele>237.0</ele><time>2026-04-23T10:53:51.885Z</time></trkpt><trkpt lat="43.2055112" lon="13.3588038"><ele>234.33333333333331</ele><time>2026-04-23T10:53:52.886Z</time></trkpt><trkpt lat="43.2054162" lon="13.3590055"><ele>231.66666666666666</ele><time>2026-04-23T10:53:53.885Z</time></trkpt><trkpt lat="43.2053216" lon="13.3592069"><ele>229.0</ele><time>2026-04-23T10:53:54.886Z</time></trkpt><trkpt lat="43.2052222" lon="13.3593982"><ele>229.0</ele><time>2026-04-23T10:53:55.885Z</time></trkpt><trkpt lat="43.2051156" lon="13.3595845"><ele>229.0</ele><time>2026-04-23T10:53:56.885Z</time></trkpt><trkpt lat="43.2050068" lon="13.3597625"><ele>229.0</ele><time>2026-04-23T10:53:57.885Z</time></trkpt><trkpt lat="43.2048898" lon="13.3599436"><ele>225.0</ele><time>2026-04-23T10:53:58.885Z</time></trkpt><trkpt lat="43.2047718" lon="13.3601168"><ele>221.0</ele><time>2026-04-23T10:53:59.886Z</time></trkpt><trkpt lat="43.2046579" lon="13.3602942"><ele>217.0</ele><time>2026-04-23T10:54:00.885Z</time></trkpt><trkpt lat="43.2045346" lon="13.3604753"><ele>215.66666666666666</ele><time>2026-04-23T10:54:01.886Z</time></trkpt><trkpt lat="43.204403" lon="13.3606563"><ele>214.33333333333331</ele><time>2026-04-23T10:54:02.886Z</time></trkpt><trkpt lat="43.2042683" lon="13.3608396"><ele>213.0</ele><time>2026-04-23T10:54:03.887Z</time></trkpt><trkpt lat="43.204128" lon="13.3610203"><ele>213.33333333333331</ele><time>2026-04-23T10:54:04.885Z</time></trkpt><trkpt lat="43.2039826" lon="13.3612033"><ele>213.66666666666666</ele><time>2026-04-23T10:54:05.885Z</time></trkpt><trkpt lat="43.203834" lon="13.3613827"><ele>214.0</ele><time>2026-04-23T10:54:06.886Z</time></trkpt><trkpt lat="43.2036837" lon="13.361565"><ele>212.66666666666666</ele><time>2026-04-23T10:54:07.886Z</time></trkpt><trkpt lat="43.2035337" lon="13.3617433"><ele>211.33333333333331</ele><time>2026-04-23T10:54:08.885Z</time></trkpt><trkpt lat="43.2033835" lon="13.3619202"><ele>210.0</ele><time>2026-04-23T10:54:09.885Z</time></trkpt><trkpt lat="43.2032288" lon="13.3620948"><ele>209.0</ele><time>2026-04-23T10:54:10.885Z</time></trkpt><trkpt lat="43.2030738" lon="13.3622549"><ele>208.0</ele><time>2026-04-23T10:54:11.887Z</time></trkpt><trkpt lat="43.2029228" lon="13.3623993"><ele>207.0</ele><time>2026-04-23T10:54:12.885Z</time></trkpt><trkpt lat="43.2027737" lon="13.3625436"><ele>207.0</ele><time>2026-04-23T10:54:13.885Z</time></trkpt><trkpt lat="43.2026369" lon="13.3626764"><ele>207.0</ele><time>2026-04-23T10:54:14.887Z</time></trkpt><trkpt lat="43.2025048" lon="13.3628034"><ele>207.0</ele><time>2026-04-23T10:54:15.885Z</time></trkpt><trkpt lat="43.2023864" lon="13.362918"><ele>206.5</ele><time>2026-04-23T10:54:16.886Z</time></trkpt><trkpt lat="43.2022713" lon="13.3630097"><ele>206.0</ele><time>2026-04-23T10:54:17.885Z</time></trkpt><trkpt lat="43.2021516" lon="13.3631083"><ele>205.5</ele><time>2026-04-23T10:54:18.886Z</time></trkpt><trkpt lat="43.2020481" lon="13.3632154"><ele>205.0</ele><time>2026-04-23T10:54:19.886Z</time></trkpt><trkpt lat="43.2019689" lon="13.3633432"><ele>205.0</ele><time>2026-04-23T10:54:20.887Z</time></trkpt><trkpt lat="43.2019249" lon="13.3634984"><ele>205.0</ele><time>2026-04-23T10:54:21.886Z</time></trkpt><trkpt lat="43.2018908" lon="13.3636698"><ele>205.0</ele><time>2026-04-23T10:54:22.886Z</time></trkpt><trkpt lat="43.2018724" lon="13.3638542"><ele>205.0</ele><time>2026-04-23T10:54:23.886Z</time></trkpt><trkpt lat="43.201852" lon="13.3640643"><ele>205.0</ele><time>2026-04-23T10:54:24.885Z</time></trkpt><trkpt lat="43.2018286" lon="13.3642947"><ele>205.0</ele><time>2026-04-23T10:54:25.885Z</time></trkpt><trkpt lat="43.201803" lon="13.3645266"><ele>205.0</ele><time>2026-04-23T10:54:26.885Z</time></trkpt><trkpt lat="43.2017775" lon="13.3647652"><ele>205.0</ele><time>2026-04-23T10:54:27.886Z</time></trkpt><trkpt lat="43.2017444" lon="13.3650196"><ele>205.0</ele><time>2026-04-23T10:54:28.886Z</time></trkpt><trkpt lat="43.201709" lon="13.3652762"><ele>205.0</ele><time>2026-04-23T10:54:29.886Z</time></trkpt><trkpt lat="43.201673" lon="13.3655279"><ele>204.33333333333331</ele><time>2026-04-23T10:54:30.887Z</time></trkpt><trkpt lat="43.2016314" lon="13.3657835"><ele>203.66666666666669</ele><time>2026-04-23T10:54:31.886Z</time></trkpt><trkpt lat="43.2015951" lon="13.3660308"><ele>203.0</ele><time>2026-04-23T10:54:32.887Z</time></trkpt><trkpt lat="43.2015584" lon="13.3662844"><ele>203.0</ele><time>2026-04-23T10:54:33.885Z</time></trkpt><trkpt lat="43.2015224" lon="13.3665317"><ele>203.0</ele><time>2026-04-23T10:54:34.886Z</time></trkpt><trkpt lat="43.2014953" lon="13.366772"><ele>203.0</ele><time>2026-04-23T10:54:35.885Z</time></trkpt><trkpt lat="43.2014663" lon="13.3670174"><ele>202.0</ele><time>2026-04-23T10:54:36.886Z</time></trkpt><trkpt lat="43.2014383" lon="13.3672589"><ele>201.0</ele><time>2026-04-23T10:54:37.885Z</time></trkpt><trkpt lat="43.2014099" lon="13.3674884"><ele>200.0</ele><time>2026-04-23T10:54:38.885Z</time></trkpt><trkpt lat="43.2013854" lon="13.3677082"><ele>200.0</ele><time>2026-04-23T10:54:39.885Z</time></trkpt><trkpt lat="43.2013688" lon="13.3679266"><ele>200.0</ele><time>2026-04-23T10:54:40.885Z</time></trkpt><trkpt lat="43.2013468" lon="13.368152"><ele>200.0</ele><time>2026-04-23T10:54:41.885Z</time></trkpt><trkpt lat="43.2013199" lon="13.3683752"><ele>200.0</ele><time>2026-04-23T10:54:42.885Z</time></trkpt><trkpt lat="43.2013014" lon="13.3685981"><ele>200.0</ele><time>2026-04-23T10:54:43.887Z</time></trkpt><trkpt lat="43.2012831" lon="13.3688102"><ele>200.0</ele><time>2026-04-23T10:54:44.886Z</time></trkpt><trkpt lat="43.2012678" lon="13.369016"><ele>199.33333333333334</ele><time>2026-04-23T10:54:45.885Z</time></trkpt><trkpt lat="43.2012599" lon="13.3692219"><ele>198.66666666666669</ele><time>2026-04-23T10:54:46.886Z</time></trkpt><trkpt lat="43.2012703" lon="13.3694422"><ele>198.0</ele><time>2026-04-23T10:54:47.886Z</time></trkpt><trkpt lat="43.2013052" lon="13.3696469"><ele>197.75</ele><time>2026-04-23T10:54:48.886Z</time></trkpt><trkpt lat="43.2013587" lon="13.3698256"><ele>197.5</ele><time>2026-04-23T10:54:49.885Z</time></trkpt><trkpt lat="43.2014053" lon="13.3699924"><ele>197.25</ele><time>2026-04-23T10:54:50.886Z</time></trkpt><trkpt lat="43.2014056" lon="13.3701698"><ele>197.0</ele><time>2026-04-23T10:54:51.887Z</time></trkpt><trkpt lat="43.201372" lon="13.3703503"><ele>197.66666666666669</ele><time>2026-04-23T10:54:52.885Z</time></trkpt><trkpt lat="43.2013152" lon="13.3705349"><ele>198.33333333333331</ele><time>2026-04-23T10:54:53.886Z</time></trkpt><trkpt lat="43.2012584" lon="13.3707285"><ele>199.0</ele><time>2026-04-23T10:54:54.885Z</time></trkpt><trkpt lat="43.2011982" lon="13.3709346"><ele>199.0</ele><time>2026-04-23T10:54:55.885Z</time></trkpt><trkpt lat="43.2011406" lon="13.3711492"><ele>199.0</ele><time>2026-04-23T10:54:56.885Z</time></trkpt><trkpt lat="43.2010791" lon="13.3713695"><ele>199.0</ele><time>2026-04-23T10:54:57.886Z</time></trkpt><trkpt lat="43.2010027" lon="13.371573"><ele>200.0</ele><time>2026-04-23T10:54:58.886Z</time></trkpt><trkpt lat="43.2008951" lon="13.3717471"><ele>201.0</ele><time>2026-04-23T10:54:59.886Z</time></trkpt><trkpt lat="43.2007668" lon="13.3718883"><ele>202.0</ele><time>2026-04-23T10:55:00.886Z</time></trkpt><trkpt lat="43.2006351" lon="13.3720114"><ele>203.0</ele><time>2026-04-23T10:55:01.886Z</time></trkpt><trkpt lat="43.2005083" lon="13.3721456"><ele>204.0</ele><time>2026-04-23T10:55:02.885Z</time></trkpt><trkpt lat="43.2003794" lon="13.3722864"><ele>205.0</ele><time>2026-04-23T10:55:03.886Z</time></trkpt><trkpt lat="43.2002542" lon="13.372439"><ele>208.0</ele><time>2026-04-23T10:55:04.885Z</time></trkpt><trkpt lat="43.2001497" lon="13.3726164"><ele>211.0</ele><time>2026-04-23T10:55:05.886Z</time></trkpt><trkpt lat="43.2000631" lon="13.3728217"><ele>214.0</ele><time>2026-04-23T10:55:06.887Z</time></trkpt><trkpt lat="43.1999845" lon="13.3730381"><ele>216.66666666666666</ele><time>2026-04-23T10:55:07.886Z</time></trkpt><trkpt lat="43.1999111" lon="13.3732692"><ele>219.33333333333331</ele><time>2026-04-23T10:55:08.885Z</time></trkpt><trkpt lat="43.1998408" lon="13.3734998"><ele>222.0</ele><time>2026-04-23T10:55:09.887Z</time></trkpt><trkpt lat="43.1997642" lon="13.3737021"><ele>226.0</ele><time>2026-04-23T10:55:10.885Z</time></trkpt><trkpt lat="43.199679" lon="13.3738766"><ele>230.0</ele><time>2026-04-23T10:55:11.885Z</time></trkpt><trkpt lat="43.1995875" lon="13.3740186"><ele>234.0</ele><time>2026-04-23T10:55:12.886Z</time></trkpt><trkpt lat="43.1994894" lon="13.3741319"><ele>238.0</ele><time>2026-04-23T10:55:13.885Z</time></trkpt><trkpt lat="43.1993675" lon="13.3741904"><ele>238.0</ele><time>2026-04-23T10:55:14.885Z</time></trkpt><trkpt lat="43.1992336" lon="13.3742106"><ele>238.0</ele><time>2026-04-23T10:55:15.886Z</time></trkpt><trkpt lat="43.1990948" lon="13.3742252"><ele>238.0</ele><time>2026-04-23T10:55:16.886Z</time></trkpt><trkpt lat="43.1989488" lon="13.3742435"><ele>238.0</ele><time>2026-04-23T10:55:17.886Z</time></trkpt><trkpt lat="43.1987986" lon="13.3742673"><ele>240.33333333333331</ele><time>2026-04-23T10:55:18.886Z</time></trkpt><trkpt lat="43.1986431" lon="13.3742857"><ele>242.66666666666669</ele><time>2026-04-23T10:55:19.886Z</time></trkpt><trkpt lat="43.1984846" lon="13.3743041"><ele>245.0</ele><time>2026-04-23T10:55:20.886Z</time></trkpt><trkpt lat="43.1983199" lon="13.3743237"><ele>246.66666666666669</ele><time>2026-04-23T10:55:21.886Z</time></trkpt><trkpt lat="43.198148" lon="13.3743528"><ele>248.33333333333331</ele><time>2026-04-23T10:55:22.884Z</time></trkpt><trkpt lat="43.197971" lon="13.3743808"><ele>250.0</ele><time>2026-04-23T10:55:23.887Z</time></trkpt><trkpt lat="43.1977887" lon="13.3744092"><ele>250.0</ele><time>2026-04-23T10:55:24.886Z</time></trkpt><trkpt lat="43.1976058" lon="13.3744355"><ele>250.0</ele><time>2026-04-23T10:55:25.886Z</time></trkpt><trkpt lat="43.1974219" lon="13.3744604"><ele>250.0</ele><time>2026-04-23T10:55:26.885Z</time></trkpt><trkpt lat="43.1972369" lon="13.3744822"><ele>253.0</ele><time>2026-04-23T10:55:27.886Z</time></trkpt><trkpt lat="43.1970495" lon="13.3744993"><ele>256.0</ele><time>2026-04-23T10:55:28.885Z</time></trkpt><trkpt lat="43.1968591" lon="13.374505"><ele>259.0</ele><time>2026-04-23T10:55:29.885Z</time></trkpt><trkpt lat="43.1966672" lon="13.3745104"><ele>262.3333333333333</ele><time>2026-04-23T10:55:30.886Z</time></trkpt><trkpt lat="43.196467" lon="13.374521"><ele>265.6666666666667</ele><time>2026-04-23T10:55:31.885Z</time></trkpt><trkpt lat="43.1962664" lon="13.3745229"><ele>269.0</ele><time>2026-04-23T10:55:32.886Z</time></trkpt><trkpt lat="43.1960636" lon="13.3745265"><ele>269.0</ele><time>2026-04-23T10:55:33.886Z</time></trkpt><trkpt lat="43.1958594" lon="13.3745347"><ele>269.0</ele><time>2026-04-23T10:55:34.885Z</time></trkpt><trkpt lat="43.1956543" lon="13.374538"><ele>269.0</ele><time>2026-04-23T10:55:35.886Z</time></trkpt><trkpt lat="43.1954505" lon="13.3745391"><ele>272.0</ele><time>2026-04-23T10:55:36.886Z</time></trkpt><trkpt lat="43.1952663" lon="13.374543"><ele>275.0</ele><time>2026-04-23T10:55:37.885Z</time></trkpt><trkpt lat="43.1951065" lon="13.374546"><ele>278.0</ele><time>2026-04-23T10:55:38.886Z</time></trkpt><trkpt lat="43.1949789" lon="13.3745622"><ele>278.0</ele><time>2026-04-23T10:55:39.885Z</time></trkpt><trkpt lat="43.1948836" lon="13.3746117"><ele>278.0</ele><time>2026-04-23T10:55:40.886Z</time></trkpt><trkpt lat="43.1948156" lon="13.3746711"><ele>278.0</ele><time>2026-04-23T10:55:41.886Z</time></trkpt><trkpt lat="43.1947525" lon="13.3747057"><ele>278.0</ele><time>2026-04-23T10:55:42.887Z</time></trkpt><trkpt lat="43.1946895" lon="13.3747033"><ele>278.0</ele><time>2026-04-23T10:55:43.886Z</time></trkpt><trkpt lat="43.1946322" lon="13.3746467"><ele>278.0</ele><time>2026-04-23T10:55:44.886Z</time></trkpt><trkpt lat="43.1945767" lon="13.3745742"><ele>280.83333333333337</ele><time>2026-04-23T10:55:45.886Z</time></trkpt><trkpt lat="43.1945002" lon="13.3745091"><ele>283.6666666666667</ele><time>2026-04-23T10:55:46.887Z</time></trkpt><trkpt lat="43.1944117" lon="13.3744566"><ele>286.5</ele><time>2026-04-23T10:55:47.885Z</time></trkpt><trkpt lat="43.1943274" lon="13.374404"><ele>289.3333333333333</ele><time>2026-04-23T10:55:48.885Z</time></trkpt><trkpt lat="43.1942507" lon="13.3743698"><ele>292.16666666666663</ele><time>2026-04-23T10:55:49.885Z</time></trkpt><trkpt lat="43.1941654" lon="13.3743384"><ele>295.0</ele><time>2026-04-23T10:55:51.887Z</time></trkpt><trkpt lat="43.1940945" lon="13.3742222"><ele>295.0</ele><time>2026-04-23T10:55:53.886Z</time></trkpt><trkpt lat="43.1940555" lon="13.374126"><ele>295.0</ele><time>2026-04-23T10:55:54.885Z</time></trkpt><trkpt lat="43.1940057" lon="13.37401"><ele>295.0</ele><time>2026-04-23T10:55:55.885Z</time></trkpt><trkpt lat="43.1939198" lon="13.3738909"><ele>295.0</ele><time>2026-04-23T10:55:56.886Z</time></trkpt><trkpt lat="43.1938221" lon="13.3737608"><ele>295.0</ele><time>2026-04-23T10:55:57.885Z</time></trkpt><trkpt lat="43.1937251" lon="13.3736239"><ele>296.3333333333333</ele><time>2026-04-23T10:55:58.885Z</time></trkpt><trkpt lat="43.1936143" lon="13.3734829"><ele>297.6666666666667</ele><time>2026-04-23T10:55:59.886Z</time></trkpt><trkpt lat="43.1934986" lon="13.3733384"><ele>299.0</ele><time>2026-04-23T10:56:00.885Z</time></trkpt><trkpt lat="43.1933745" lon="13.373192"><ele>299.0</ele><time>2026-04-23T10:56:01.885Z</time></trkpt><trkpt lat="43.1932501" lon="13.373041"><ele>299.0</ele><time>2026-04-23T10:56:02.885Z</time></trkpt><trkpt lat="43.1931492" lon="13.3728697"><ele>299.0</ele><time>2026-04-23T10:56:03.886Z</time></trkpt><trkpt lat="43.1930425" lon="13.3727064"><ele>301.0</ele><time>2026-04-23T10:56:04.886Z</time></trkpt><trkpt lat="43.1929541" lon="13.3725193"><ele>303.0</ele><time>2026-04-23T10:56:05.885Z</time></trkpt><trkpt lat="43.1928729" lon="13.3723229"><ele>305.0</ele><time>2026-04-23T10:56:06.886Z</time></trkpt><trkpt lat="43.1927874" lon="13.3721276"><ele>299.6666666666667</ele><time>2026-04-23T10:56:07.884Z</time></trkpt><trkpt lat="43.1926741" lon="13.3719428"><ele>294.3333333333333</ele><time>2026-04-23T10:56:08.887Z</time></trkpt><trkpt lat="43.1925559" lon="13.3717586"><ele>289.0</ele><time>2026-04-23T10:56:09.885Z</time></trkpt><trkpt lat="43.1924238" lon="13.3715804"><ele>287.66666666666663</ele><time>2026-04-23T10:56:10.885Z</time></trkpt><trkpt lat="43.1923065" lon="13.3714203"><ele>286.3333333333333</ele><time>2026-04-23T10:56:11.885Z</time></trkpt><trkpt lat="43.1922035" lon="13.3712581"><ele>285.0</ele><time>2026-04-23T10:56:12.886Z</time></trkpt><trkpt lat="43.1921148" lon="13.371107"><ele>285.0</ele><time>2026-04-23T10:56:13.886Z</time></trkpt><trkpt lat="43.1920288" lon="13.3709655"><ele>285.0</ele><time>2026-04-23T10:56:14.884Z</time></trkpt><trkpt lat="43.1919694" lon="13.3708748"><ele>285.0</ele><time>2026-04-23T10:56:15.886Z</time></trkpt><trkpt lat="43.1919066" lon="13.3707769"><ele>285.0</ele><time>2026-04-23T10:56:16.885Z</time></trkpt><trkpt lat="43.1918878" lon="13.3706606"><ele>285.0</ele><time>2026-04-23T10:56:17.886Z</time></trkpt><trkpt lat="43.1918983" lon="13.3705418"><ele>284.5</ele><time>2026-04-23T10:56:18.885Z</time></trkpt><trkpt lat="43.1919532" lon="13.3704382"><ele>284.0</ele><time>2026-04-23T10:56:19.885Z</time></trkpt><trkpt lat="43.1920437" lon="13.370351"><ele>283.5</ele><time>2026-04-23T10:56:20.885Z</time></trkpt><trkpt lat="43.1921595" lon="13.3702873"><ele>283.0</ele><time>2026-04-23T10:56:21.885Z</time></trkpt><trkpt lat="43.1922923" lon="13.3702415"><ele>281.0</ele><time>2026-04-23T10:56:22.886Z</time></trkpt><trkpt lat="43.1924366" lon="13.3701907"><ele>279.0</ele><time>2026-04-23T10:56:23.885Z</time></trkpt><trkpt lat="43.1925882" lon="13.3701478"><ele>277.0</ele><time>2026-04-23T10:56:24.886Z</time></trkpt><trkpt lat="43.1927418" lon="13.3701108"><ele>277.0</ele><time>2026-04-23T10:56:25.885Z</time></trkpt><trkpt lat="43.192892" lon="13.3700647"><ele>277.0</ele><time>2026-04-23T10:56:26.885Z</time></trkpt><trkpt lat="43.1930341" lon="13.3700152"><ele>277.0</ele><time>2026-04-23T10:56:27.886Z</time></trkpt><trkpt lat="43.193181" lon="13.3699734"><ele>274.0</ele><time>2026-04-23T10:56:28.886Z</time></trkpt><trkpt lat="43.1933192" lon="13.3699096"><ele>271.0</ele><time>2026-04-23T10:56:29.885Z</time></trkpt><trkpt lat="43.1934613" lon="13.369824"><ele>268.0</ele><time>2026-04-23T10:56:30.886Z</time></trkpt><trkpt lat="43.1936023" lon="13.3697178"><ele>267.3333333333333</ele><time>2026-04-23T10:56:31.885Z</time></trkpt><trkpt lat="43.1937423" lon="13.3696045"><ele>266.6666666666667</ele><time>2026-04-23T10:56:32.884Z</time></trkpt><trkpt lat="43.1938814" lon="13.3694895"><ele>266.0</ele><time>2026-04-23T10:56:33.886Z</time></trkpt><trkpt lat="43.1940202" lon="13.3693743"><ele>266.0</ele><time>2026-04-23T10:56:34.886Z</time></trkpt><trkpt lat="43.1941614" lon="13.3692574"><ele>266.0</ele><time>2026-04-23T10:56:35.885Z</time></trkpt><trkpt lat="43.1943094" lon="13.3691375"><ele>266.0</ele><time>2026-04-23T10:56:36.885Z</time></trkpt><trkpt lat="43.1944574" lon="13.3690181"><ele>266.0</ele><time>2026-04-23T10:56:37.886Z</time></trkpt><trkpt lat="43.1946063" lon="13.3688924"><ele>266.0</ele><time>2026-04-23T10:56:38.887Z</time></trkpt><trkpt lat="43.1947597" lon="13.3687663"><ele>266.0</ele><time>2026-04-23T10:56:39.887Z</time></trkpt><trkpt lat="43.1949121" lon="13.3686382"><ele>264.33333333333337</ele><time>2026-04-23T10:56:40.885Z</time></trkpt><trkpt lat="43.1950642" lon="13.3685078"><ele>262.6666666666667</ele><time>2026-04-23T10:56:41.886Z</time></trkpt><trkpt lat="43.1952208" lon="13.3683832"><ele>261.0</ele><time>2026-04-23T10:56:42.885Z</time></trkpt><trkpt lat="43.1953808" lon="13.3682534"><ele>261.0</ele><time>2026-04-23T10:56:43.885Z</time></trkpt><trkpt lat="43.195541" lon="13.368118"><ele>261.0</ele><time>2026-04-23T10:56:44.887Z</time></trkpt><trkpt lat="43.1956961" lon="13.3679939"><ele>261.0</ele><time>2026-04-23T10:56:45.886Z</time></trkpt><trkpt lat="43.1958471" lon="13.3678733"><ele>260.25</ele><time>2026-04-23T10:56:46.886Z</time></trkpt><trkpt lat="43.1959849" lon="13.3677613"><ele>259.5</ele><time>2026-04-23T10:56:47.887Z</time></trkpt><trkpt lat="43.1961078" lon="13.3676655"><ele>258.75</ele><time>2026-04-23T10:56:48.886Z</time></trkpt><trkpt lat="43.1962197" lon="13.3675801"><ele>258.0</ele><time>2026-04-23T10:56:49.887Z</time></trkpt><trkpt lat="43.1963156" lon="13.3674765"><ele>258.0</ele><time>2026-04-23T10:56:50.885Z</time></trkpt><trkpt lat="43.1963951" lon="13.3673496"><ele>258.0</ele><time>2026-04-23T10:56:51.885Z</time></trkpt><trkpt lat="43.1964079" lon="13.3671755"><ele>258.0</ele><time>2026-04-23T10:56:52.885Z</time></trkpt><trkpt lat="43.1964057" lon="13.3669946"><ele>258.0</ele><time>2026-04-23T10:56:53.886Z</time></trkpt><trkpt lat="43.1963989" lon="13.3667851"><ele>257.3333333333333</ele><time>2026-04-23T10:56:54.886Z</time></trkpt><trkpt lat="43.1963891" lon="13.3665652"><ele>256.66666666666663</ele><time>2026-04-23T10:56:55.885Z</time></trkpt><trkpt lat="43.1963825" lon="13.3663391"><ele>256.0</ele><time>2026-04-23T10:56:56.885Z</time></trkpt><trkpt lat="43.1963764" lon="13.3661107"><ele>255.33333333333331</ele><time>2026-04-23T10:56:57.887Z</time></trkpt><trkpt lat="43.1963509" lon="13.3658591"><ele>254.66666666666669</ele><time>2026-04-23T10:56:58.886Z</time></trkpt><trkpt lat="43.1963239" lon="13.3656228"><ele>254.0</ele><time>2026-04-23T10:56:59.885Z</time></trkpt><trkpt lat="43.1962909" lon="13.3653859"><ele>252.33333333333334</ele><time>2026-04-23T10:57:00.886Z</time></trkpt><trkpt lat="43.196249" lon="13.3651602"><ele>250.66666666666669</ele><time>2026-04-23T10:57:01.886Z</time></trkpt><trkpt lat="43.1961864" lon="13.3649361"><ele>249.0</ele><time>2026-04-23T10:57:02.886Z</time></trkpt><trkpt lat="43.196104" lon="13.3647192"><ele>246.33333333333331</ele><time>2026-04-23T10:57:03.885Z</time></trkpt><trkpt lat="43.1960196" lon="13.364506"><ele>243.66666666666666</ele><time>2026-04-23T10:57:04.886Z</time></trkpt><trkpt lat="43.1959276" lon="13.3642928"><ele>241.0</ele><time>2026-04-23T10:57:05.886Z</time></trkpt><trkpt lat="43.1958299" lon="13.3640758"><ele>241.66666666666666</ele><time>2026-04-23T10:57:06.886Z</time></trkpt><trkpt lat="43.1957317" lon="13.3638592"><ele>242.33333333333331</ele><time>2026-04-23T10:57:07.887Z</time></trkpt><trkpt lat="43.1956377" lon="13.3636393"><ele>243.0</ele><time>2026-04-23T10:57:08.887Z</time></trkpt><trkpt lat="43.1955412" lon="13.3634174"><ele>243.0</ele><time>2026-04-23T10:57:09.885Z</time></trkpt><trkpt lat="43.1954455" lon="13.3631988"><ele>243.0</ele><time>2026-04-23T10:57:10.885Z</time></trkpt><trkpt lat="43.1953538" lon="13.3629781"><ele>243.0</ele><time>2026-04-23T10:57:11.885Z</time></trkpt><trkpt lat="43.195263" lon="13.3627663"><ele>241.0</ele><time>2026-04-23T10:57:12.885Z</time></trkpt><trkpt lat="43.1951784" lon="13.3625578"><ele>239.0</ele><time>2026-04-23T10:57:13.885Z</time></trkpt><trkpt lat="43.1950803" lon="13.3623414"><ele>237.0</ele><time>2026-04-23T10:57:14.886Z</time></trkpt><trkpt lat="43.1949746" lon="13.3621348"><ele>237.66666666666669</ele><time>2026-04-23T10:57:15.886Z</time></trkpt><trkpt lat="43.1948359" lon="13.3619736"><ele>238.33333333333334</ele><time>2026-04-23T10:57:16.885Z</time></trkpt><trkpt lat="43.1946995" lon="13.3618108"><ele>239.0</ele><time>2026-04-23T10:57:17.885Z</time></trkpt><trkpt lat="43.1945709" lon="13.3616623"><ele>239.0</ele><time>2026-04-23T10:57:18.886Z</time></trkpt><trkpt lat="43.1944513" lon="13.3615051"><ele>239.0</ele><time>2026-04-23T10:57:19.886Z</time></trkpt><trkpt lat="43.1943536" lon="13.3613579"><ele>239.0</ele><time>2026-04-23T10:57:20.885Z</time></trkpt><trkpt lat="43.1942824" lon="13.3611813"><ele>236.33333333333334</ele><time>2026-04-23T10:57:21.885Z</time></trkpt><trkpt lat="43.1942313" lon="13.3609862"><ele>233.66666666666669</ele><time>2026-04-23T10:57:22.886Z</time></trkpt><trkpt lat="43.1941886" lon="13.3607776"><ele>231.0</ele><time>2026-04-23T10:57:23.885Z</time></trkpt><trkpt lat="43.1941394" lon="13.360578"><ele>230.66666666666669</ele><time>2026-04-23T10:57:24.885Z</time></trkpt><trkpt lat="43.1940552" lon="13.3604127"><ele>230.33333333333334</ele><time>2026-04-23T10:57:25.886Z</time></trkpt><trkpt lat="43.1939536" lon="13.3602514"><ele>230.0</ele><time>2026-04-23T10:57:26.885Z</time></trkpt><trkpt lat="43.1938298" lon="13.3601169"><ele>230.0</ele><time>2026-04-23T10:57:27.885Z</time></trkpt><trkpt lat="43.19368" lon="13.3600147"><ele>230.0</ele><time>2026-04-23T10:57:28.885Z</time></trkpt><trkpt lat="43.193538" lon="13.359923"><ele>230.0</ele><time>2026-04-23T10:57:29.885Z</time></trkpt><trkpt lat="43.1934149" lon="13.3598137"><ele>230.66666666666669</ele><time>2026-04-23T10:57:30.886Z</time></trkpt><trkpt lat="43.1933013" lon="13.3596786"><ele>231.33333333333331</ele><time>2026-04-23T10:57:31.885Z</time></trkpt><trkpt lat="43.1932025" lon="13.3595016"><ele>232.0</ele><time>2026-04-23T10:57:32.887Z</time></trkpt><trkpt lat="43.1931133" lon="13.3593018"><ele>232.0</ele><time>2026-04-23T10:57:33.885Z</time></trkpt><trkpt lat="43.1930185" lon="13.3591041"><ele>232.0</ele><time>2026-04-23T10:57:34.885Z</time></trkpt><trkpt lat="43.1929225" lon="13.3589131"><ele>232.0</ele><time>2026-04-23T10:57:35.886Z</time></trkpt><trkpt lat="43.1928272" lon="13.3587223"><ele>229.0</ele><time>2026-04-23T10:57:36.886Z</time></trkpt><trkpt lat="43.1927298" lon="13.3585214"><ele>226.0</ele><time>2026-04-23T10:57:37.886Z</time></trkpt><trkpt lat="43.1926279" lon="13.3583209"><ele>223.0</ele><time>2026-04-23T10:57:38.886Z</time></trkpt><trkpt lat="43.1925212" lon="13.3581189"><ele>223.66666666666666</ele><time>2026-04-23T10:57:39.885Z</time></trkpt><trkpt lat="43.1924045" lon="13.3579246"><ele>224.33333333333331</ele><time>2026-04-23T10:57:40.886Z</time></trkpt><trkpt lat="43.1922892" lon="13.3577248"><ele>225.0</ele><time>2026-04-23T10:57:41.885Z</time></trkpt><trkpt lat="43.1921728" lon="13.3575291"><ele>225.0</ele><time>2026-04-23T10:57:42.886Z</time></trkpt><trkpt lat="43.1920496" lon="13.3573366"><ele>225.0</ele><time>2026-04-23T10:57:43.886Z</time></trkpt><trkpt lat="43.1919213" lon="13.3571317"><ele>225.0</ele><time>2026-04-23T10:57:44.886Z</time></trkpt><trkpt lat="43.1917997" lon="13.3569358"><ele>223.0</ele><time>2026-04-23T10:57:45.886Z</time></trkpt><trkpt lat="43.1916774" lon="13.3567407"><ele>221.0</ele><time>2026-04-23T10:57:46.886Z</time></trkpt><trkpt lat="43.1915568" lon="13.3565368"><ele>219.0</ele><time>2026-04-23T10:57:47.886Z</time></trkpt><trkpt lat="43.1914356" lon="13.3563362"><ele>219.0</ele><time>2026-04-23T10:57:48.887Z</time></trkpt><trkpt lat="43.19131" lon="13.3561461"><ele>219.0</ele><time>2026-04-23T10:57:49.886Z</time></trkpt><trkpt lat="43.1911833" lon="13.3559551"><ele>219.0</ele><time>2026-04-23T10:57:50.886Z</time></trkpt><trkpt lat="43.1910787" lon="13.3557826"><ele>219.0</ele><time>2026-04-23T10:57:51.887Z</time></trkpt><trkpt lat="43.1909716" lon="13.3556199"><ele>219.0</ele><time>2026-04-23T10:57:52.886Z</time></trkpt><trkpt lat="43.1908625" lon="13.3554721"><ele>219.0</ele><time>2026-04-23T10:57:53.886Z</time></trkpt><trkpt lat="43.1907678" lon="13.3553277"><ele>218.25</ele><time>2026-04-23T10:57:54.886Z</time></trkpt><trkpt lat="43.1907141" lon="13.355166"><ele>217.5</ele><time>2026-04-23T10:57:55.885Z</time></trkpt><trkpt lat="43.190666" lon="13.3550081"><ele>216.75</ele><time>2026-04-23T10:57:56.885Z</time></trkpt><trkpt lat="43.1906932" lon="13.3548217"><ele>216.0</ele><time>2026-04-23T10:57:57.886Z</time></trkpt><trkpt lat="43.1907437" lon="13.3546327"><ele>213.0</ele><time>2026-04-23T10:57:58.884Z</time></trkpt><trkpt lat="43.1908177" lon="13.3544384"><ele>210.0</ele><time>2026-04-23T10:57:59.885Z</time></trkpt><trkpt lat="43.1908993" lon="13.3542181"><ele>207.0</ele><time>2026-04-23T10:58:00.886Z</time></trkpt><trkpt lat="43.1909933" lon="13.3540023"><ele>206.0</ele><time>2026-04-23T10:58:01.885Z</time></trkpt><trkpt lat="43.191094" lon="13.3537677"><ele>205.0</ele><time>2026-04-23T10:58:02.884Z</time></trkpt><trkpt lat="43.1911879" lon="13.3535476"><ele>204.0</ele><time>2026-04-23T10:58:03.885Z</time></trkpt><trkpt lat="43.1912681" lon="13.3533562"><ele>204.0</ele><time>2026-04-23T10:58:04.886Z</time></trkpt><trkpt lat="43.191337" lon="13.3531887"><ele>204.0</ele><time>2026-04-23T10:58:05.885Z</time></trkpt><trkpt lat="43.1914016" lon="13.3530363"><ele>204.0</ele><time>2026-04-23T10:58:06.885Z</time></trkpt><trkpt lat="43.1914727" lon="13.3529025"><ele>204.0</ele><time>2026-04-23T10:58:07.886Z</time></trkpt><trkpt lat="43.1915639" lon="13.3528103"><ele>206.25</ele><time>2026-04-23T10:58:08.886Z</time></trkpt><trkpt lat="43.1916721" lon="13.3527499"><ele>208.5</ele><time>2026-04-23T10:58:09.885Z</time></trkpt><trkpt lat="43.1917991" lon="13.352751"><ele>210.75</ele><time>2026-04-23T10:58:10.885Z</time></trkpt><trkpt lat="43.1919226" lon="13.3527911"><ele>213.0</ele><time>2026-04-23T10:58:11.885Z</time></trkpt><trkpt lat="43.1920497" lon="13.352865"><ele>213.0</ele><time>2026-04-23T10:58:12.885Z</time></trkpt><trkpt lat="43.1921783" lon="13.3529564"><ele>213.0</ele><time>2026-04-23T10:58:13.884Z</time></trkpt><trkpt lat="43.1923083" lon="13.3530548"><ele>213.0</ele><time>2026-04-23T10:58:14.886Z</time></trkpt><trkpt lat="43.1924431" lon="13.3531597"><ele>213.0</ele><time>2026-04-23T10:58:15.885Z</time></trkpt><trkpt lat="43.1925841" lon="13.353265"><ele>213.0</ele><time>2026-04-23T10:58:16.886Z</time></trkpt><trkpt lat="43.1927376" lon="13.3533804"><ele>213.0</ele><time>2026-04-23T10:58:17.885Z</time></trkpt><trkpt lat="43.1928936" lon="13.3534882"><ele>213.0</ele><time>2026-04-23T10:58:18.885Z</time></trkpt><trkpt lat="43.1930532" lon="13.3536039"><ele>213.33333333333331</ele><time>2026-04-23T10:58:19.886Z</time></trkpt><trkpt lat="43.1932174" lon="13.3537236"><ele>213.66666666666666</ele><time>2026-04-23T10:58:20.886Z</time></trkpt><trkpt lat="43.1933893" lon="13.3538461"><ele>214.0</ele><time>2026-04-23T10:58:21.885Z</time></trkpt><trkpt lat="43.1935574" lon="13.3539731"><ele>214.0</ele><time>2026-04-23T10:58:22.887Z</time></trkpt><trkpt lat="43.1937305" lon="13.3540995"><ele>214.0</ele><time>2026-04-23T10:58:23.886Z</time></trkpt><trkpt lat="43.1938996" lon="13.3542233"><ele>214.0</ele><time>2026-04-23T10:58:24.886Z</time></trkpt><trkpt lat="43.194053" lon="13.3543363"><ele>217.0</ele><time>2026-04-23T10:58:25.887Z</time></trkpt><trkpt lat="43.1941932" lon="13.3544383"><ele>220.0</ele><time>2026-04-23T10:58:26.884Z</time></trkpt><trkpt lat="43.1943253" lon="13.3545219"><ele>223.0</ele><time>2026-04-23T10:58:27.886Z</time></trkpt><trkpt lat="43.1944584" lon="13.3545999"><ele>226.0</ele><time>2026-04-23T10:58:28.885Z</time></trkpt><trkpt lat="43.1946021" lon="13.3546461"><ele>226.0</ele><time>2026-04-23T10:58:29.887Z</time></trkpt><trkpt lat="43.1947505" lon="13.3546499"><ele>226.0</ele><time>2026-04-23T10:58:30.886Z</time></trkpt><trkpt lat="43.1949044" lon="13.3546166"><ele>226.0</ele><time>2026-04-23T10:58:31.884Z</time></trkpt><trkpt lat="43.1950628" lon="13.3545622"><ele>227.25</ele><time>2026-04-23T10:58:32.885Z</time></trkpt><trkpt lat="43.195217" lon="13.3544629"><ele>228.5</ele><time>2026-04-23T10:58:33.886Z</time></trkpt><trkpt lat="43.1953487" lon="13.3543787"><ele>229.75</ele><time>2026-04-23T10:58:34.886Z</time></trkpt><trkpt lat="43.1954661" lon="13.354303"><ele>231.0</ele><time>2026-04-23T10:58:35.887Z</time></trkpt><trkpt lat="43.1955799" lon="13.3542686"><ele>231.0</ele><time>2026-04-23T10:58:36.886Z</time></trkpt><trkpt lat="43.1956867" lon="13.3542742"><ele>231.00000000000003</ele><time>2026-04-23T10:58:37.885Z</time></trkpt><trkpt lat="43.1957806" lon="13.3543333"><ele>231.00000000000003</ele><time>2026-04-23T10:58:38.886Z</time></trkpt><trkpt lat="43.195858" lon="13.3544408"><ele>231.0</ele><time>2026-04-23T10:58:39.886Z</time></trkpt><trkpt lat="43.1959237" lon="13.354584"><ele>231.0</ele><time>2026-04-23T10:58:40.885Z</time></trkpt><trkpt lat="43.1959916" lon="13.3547349"><ele>231.0</ele><time>2026-04-23T10:58:41.886Z</time></trkpt><trkpt lat="43.1960618" lon="13.3548851"><ele>231.0</ele><time>2026-04-23T10:58:42.885Z</time></trkpt><trkpt lat="43.1961388" lon="13.3550109"><ele>231.0</ele><time>2026-04-23T10:58:43.885Z</time></trkpt><trkpt lat="43.1962383" lon="13.3551082"><ele>231.0</ele><time>2026-04-23T10:58:44.886Z</time></trkpt><trkpt lat="43.1963686" lon="13.3551762"><ele>234.33333333333331</ele><time>2026-04-23T10:58:45.887Z</time></trkpt><trkpt lat="43.1965221" lon="13.3552135"><ele>237.66666666666666</ele><time>2026-04-23T10:58:46.885Z</time></trkpt><trkpt lat="43.1966859" lon="13.3552435"><ele>241.0</ele><time>2026-04-23T10:58:47.885Z</time></trkpt><trkpt lat="43.1968463" lon="13.3552851"><ele>241.0</ele><time>2026-04-23T10:58:48.885Z</time></trkpt><trkpt lat="43.1970091" lon="13.3553193"><ele>241.0</ele><time>2026-04-23T10:58:49.886Z</time></trkpt><trkpt lat="43.1971485" lon="13.3553517"><ele>241.0</ele><time>2026-04-23T10:58:50.885Z</time></trkpt><trkpt lat="43.1972647" lon="13.3553718"><ele>241.0</ele><time>2026-04-23T10:58:51.886Z</time></trkpt><trkpt lat="43.1973672" lon="13.3553562"><ele>241.0</ele><time>2026-04-23T10:58:52.885Z</time></trkpt><trkpt lat="43.1974565" lon="13.355283"><ele>241.00000000000003</ele><time>2026-04-23T10:58:53.885Z</time></trkpt><trkpt lat="43.1974997" lon="13.3551622"><ele>241.00000000000003</ele><time>2026-04-23T10:58:54.887Z</time></trkpt><trkpt lat="43.1975074" lon="13.3550158"><ele>241.0</ele><time>2026-04-23T10:58:55.887Z</time></trkpt><trkpt lat="43.1974787" lon="13.354853"><ele>241.0</ele><time>2026-04-23T10:58:56.887Z</time></trkpt><trkpt lat="43.1974452" lon="13.3546716"><ele>242.0</ele><time>2026-04-23T10:58:57.886Z</time></trkpt><trkpt lat="43.1974059" lon="13.3544853"><ele>243.0</ele><time>2026-04-23T10:58:58.885Z</time></trkpt><trkpt lat="43.1973595" lon="13.3542856"><ele>244.0</ele><time>2026-04-23T10:58:59.887Z</time></trkpt><trkpt lat="43.1973123" lon="13.3540681"><ele>246.66666666666666</ele><time>2026-04-23T10:59:00.886Z</time></trkpt><trkpt lat="43.1972634" lon="13.353837"><ele>249.33333333333331</ele><time>2026-04-23T10:59:01.886Z</time></trkpt><trkpt lat="43.1972203" lon="13.3535982"><ele>252.0</ele><time>2026-04-23T10:59:02.886Z</time></trkpt><trkpt lat="43.1971703" lon="13.353365"><ele>252.0</ele><time>2026-04-23T10:59:03.885Z</time></trkpt><trkpt lat="43.1971137" lon="13.3531263"><ele>252.0</ele><time>2026-04-23T10:59:04.886Z</time></trkpt><trkpt lat="43.1970701" lon="13.3529142"><ele>252.0</ele><time>2026-04-23T10:59:05.886Z</time></trkpt><trkpt lat="43.1970289" lon="13.3527207"><ele>253.25</ele><time>2026-04-23T10:59:06.886Z</time></trkpt><trkpt lat="43.1969936" lon="13.3525543"><ele>254.5</ele><time>2026-04-23T10:59:07.885Z</time></trkpt><trkpt lat="43.1969295" lon="13.3524312"><ele>255.75</ele><time>2026-04-23T10:59:08.887Z</time></trkpt><trkpt lat="43.1968418" lon="13.3523644"><ele>257.0</ele><time>2026-04-23T10:59:09.886Z</time></trkpt><trkpt lat="43.1967244" lon="13.3524029"><ele>257.0</ele><time>2026-04-23T10:59:10.886Z</time></trkpt><trkpt lat="43.1966282" lon="13.352461"><ele>257.0</ele><time>2026-04-23T10:59:11.886Z</time></trkpt><trkpt lat="43.1965278" lon="13.3525654"><ele>257.0</ele><time>2026-04-23T10:59:12.886Z</time></trkpt><trkpt lat="43.196426" lon="13.3526731"><ele>257.0</ele><time>2026-04-23T10:59:13.887Z</time></trkpt><trkpt lat="43.1963219" lon="13.3527273"><ele>258.25</ele><time>2026-04-23T10:59:14.885Z</time></trkpt><trkpt lat="43.1962036" lon="13.3527303"><ele>259.5</ele><time>2026-04-23T10:59:15.885Z</time></trkpt><trkpt lat="43.1960875" lon="13.3526619"><ele>260.75</ele><time>2026-04-23T10:59:16.887Z</time></trkpt><trkpt lat="43.1959865" lon="13.3525597"><ele>262.0</ele><time>2026-04-23T10:59:17.886Z</time></trkpt><trkpt lat="43.1959212" lon="13.3524303"><ele>262.0</ele><time>2026-04-23T10:59:18.887Z</time></trkpt><trkpt lat="43.1958986" lon="13.3523043"><ele>262.0</ele><time>2026-04-23T10:59:19.885Z</time></trkpt><trkpt lat="43.1959198" lon="13.3521761"><ele>262.0</ele><time>2026-04-23T10:59:20.887Z</time></trkpt><trkpt lat="43.1959638" lon="13.3520533"><ele>262.0</ele><time>2026-04-23T10:59:21.886Z</time></trkpt><trkpt lat="43.1960416" lon="13.3519152"><ele>262.0</ele><time>2026-04-23T10:59:22.885Z</time></trkpt><trkpt lat="43.1961408" lon="13.3517618"><ele>265.66666666666663</ele><time>2026-04-23T10:59:23.886Z</time></trkpt><trkpt lat="43.1962352" lon="13.3515992"><ele>269.3333333333333</ele><time>2026-04-23T10:59:24.886Z</time></trkpt><trkpt lat="43.196341" lon="13.3514507"><ele>273.0</ele><time>2026-04-23T10:59:25.885Z</time></trkpt><trkpt lat="43.1964438" lon="13.3512741"><ele>272.6666666666667</ele><time>2026-04-23T10:59:26.886Z</time></trkpt><trkpt lat="43.1965496" lon="13.3510955"><ele>272.33333333333337</ele><time>2026-04-23T10:59:27.885Z</time></trkpt><trkpt lat="43.19666" lon="13.350912"><ele>272.0</ele><time>2026-04-23T10:59:28.886Z</time></trkpt><trkpt lat="43.1967589" lon="13.3507491"><ele>272.0</ele><time>2026-04-23T10:59:29.885Z</time></trkpt><trkpt lat="43.196838" lon="13.3505974"><ele>272.0</ele><time>2026-04-23T10:59:30.886Z</time></trkpt><trkpt lat="43.1968983" lon="13.350425"><ele>272.0</ele><time>2026-04-23T10:59:31.885Z</time></trkpt><trkpt lat="43.1969239" lon="13.3502279"><ele>272.0</ele><time>2026-04-23T10:59:32.886Z</time></trkpt><trkpt lat="43.196926" lon="13.3500224"><ele>273.33333333333337</ele><time>2026-04-23T10:59:33.886Z</time></trkpt><trkpt lat="43.1969268" lon="13.3498052"><ele>274.6666666666667</ele><time>2026-04-23T10:59:34.885Z</time></trkpt><trkpt lat="43.1969261" lon="13.349589"><ele>276.0</ele><time>2026-04-23T10:59:35.886Z</time></trkpt><trkpt lat="43.1969328" lon="13.3493879"><ele>276.0</ele><time>2026-04-23T10:59:36.885Z</time></trkpt><trkpt lat="43.1969591" lon="13.349195"><ele>276.0</ele><time>2026-04-23T10:59:37.886Z</time></trkpt><trkpt lat="43.1970145" lon="13.3490052"><ele>276.0</ele><time>2026-04-23T10:59:38.885Z</time></trkpt><trkpt lat="43.197082" lon="13.3488059"><ele>274.6666666666667</ele><time>2026-04-23T10:59:39.886Z</time></trkpt><trkpt lat="43.1971429" lon="13.3485981"><ele>273.33333333333337</ele><time>2026-04-23T10:59:40.886Z</time></trkpt><trkpt lat="43.1971734" lon="13.348381"><ele>272.0</ele><time>2026-04-23T10:59:41.887Z</time></trkpt><trkpt lat="43.1971804" lon="13.3481529"><ele>271.6666666666667</ele><time>2026-04-23T10:59:42.886Z</time></trkpt><trkpt lat="43.1971725" lon="13.3479264"><ele>271.3333333333333</ele><time>2026-04-23T10:59:43.886Z</time></trkpt><trkpt lat="43.1971371" lon="13.3476752"><ele>271.0</ele><time>2026-04-23T10:59:44.886Z</time></trkpt><trkpt lat="43.197104" lon="13.3474401"><ele>273.0</ele><time>2026-04-23T10:59:45.885Z</time></trkpt><trkpt lat="43.1970706" lon="13.3471895"><ele>275.0</ele><time>2026-04-23T10:59:46.885Z</time></trkpt><trkpt lat="43.1970167" lon="13.3469497"><ele>277.0</ele><time>2026-04-23T10:59:47.885Z</time></trkpt><trkpt lat="43.1969729" lon="13.3467108"><ele>277.0</ele><time>2026-04-23T10:59:48.886Z</time></trkpt><trkpt lat="43.196926" lon="13.3464502"><ele>277.0</ele><time>2026-04-23T10:59:49.887Z</time></trkpt><trkpt lat="43.1968798" lon="13.3462007"><ele>277.0</ele><time>2026-04-23T10:59:50.885Z</time></trkpt><trkpt lat="43.1968334" lon="13.3459471"><ele>278.3333333333333</ele><time>2026-04-23T10:59:51.887Z</time></trkpt><trkpt lat="43.1967905" lon="13.3456944"><ele>279.6666666666667</ele><time>2026-04-23T10:59:52.886Z</time></trkpt><trkpt lat="43.1967485" lon="13.3454419"><ele>281.0</ele><time>2026-04-23T10:59:53.887Z</time></trkpt><trkpt lat="43.1966928" lon="13.345195"><ele>281.33333333333337</ele><time>2026-04-23T10:59:54.886Z</time></trkpt><trkpt lat="43.1966413" lon="13.3449412"><ele>281.6666666666667</ele><time>2026-04-23T10:59:55.886Z</time></trkpt><trkpt lat="43.1965941" lon="13.3446759"><ele>282.0</ele><time>2026-04-23T10:59:56.885Z</time></trkpt><trkpt lat="43.1965556" lon="13.3444184"><ele>282.0</ele><time>2026-04-23T10:59:57.885Z</time></trkpt><trkpt lat="43.1965137" lon="13.3441528"><ele>282.0</ele><time>2026-04-23T10:59:58.886Z</time></trkpt><trkpt lat="43.1964699" lon="13.3438961"><ele>282.0</ele><time>2026-04-23T10:59:59.886Z</time></trkpt><trkpt lat="43.1964261" lon="13.3436408"><ele>283.3333333333333</ele><time>2026-04-23T11:00:00.886Z</time></trkpt><trkpt lat="43.1963851" lon="13.3434119"><ele>284.66666666666663</ele><time>2026-04-23T11:00:01.886Z</time></trkpt><trkpt lat="43.1963406" lon="13.343192"><ele>286.0</ele><time>2026-04-23T11:00:02.886Z</time></trkpt><trkpt lat="43.1962804" lon="13.3429998"><ele>289.3333333333333</ele><time>2026-04-23T11:00:03.885Z</time></trkpt><trkpt lat="43.1961901" lon="13.3428236"><ele>292.6666666666667</ele><time>2026-04-23T11:00:04.887Z</time></trkpt><trkpt lat="43.1960733" lon="13.3426708"><ele>296.0</ele><time>2026-04-23T11:00:05.885Z</time></trkpt><trkpt lat="43.1959345" lon="13.3425501"><ele>296.0</ele><time>2026-04-23T11:00:06.885Z</time></trkpt><trkpt lat="43.1958042" lon="13.3424521"><ele>296.0</ele><time>2026-04-23T11:00:07.885Z</time></trkpt><trkpt lat="43.195683" lon="13.342358"><ele>296.0</ele><time>2026-04-23T11:00:08.887Z</time></trkpt><trkpt lat="43.1955827" lon="13.3422474"><ele>296.0</ele><time>2026-04-23T11:00:09.886Z</time></trkpt><trkpt lat="43.1955033" lon="13.3421232"><ele>295.0</ele><time>2026-04-23T11:00:10.886Z</time></trkpt><trkpt lat="43.1954889" lon="13.3419547"><ele>294.0</ele><time>2026-04-23T11:00:11.886Z</time></trkpt><trkpt lat="43.195474" lon="13.3417792"><ele>293.0</ele><time>2026-04-23T11:00:12.885Z</time></trkpt><trkpt lat="43.1954809" lon="13.3416053"><ele>292.0</ele><time>2026-04-23T11:00:13.885Z</time></trkpt><trkpt lat="43.1955372" lon="13.3414092"><ele>290.3333333333333</ele><time>2026-04-23T11:00:14.887Z</time></trkpt><trkpt lat="43.1956289" lon="13.3412373"><ele>288.6666666666667</ele><time>2026-04-23T11:00:15.885Z</time></trkpt><trkpt lat="43.1957097" lon="13.3410309"><ele>287.0</ele><time>2026-04-23T11:00:16.886Z</time></trkpt><trkpt lat="43.1957944" lon="13.3408208"><ele>291.6666666666667</ele><time>2026-04-23T11:00:17.885Z</time></trkpt><trkpt lat="43.1958805" lon="13.3406123"><ele>296.3333333333333</ele><time>2026-04-23T11:00:18.886Z</time></trkpt><trkpt lat="43.1959629" lon="13.3404024"><ele>301.0</ele><time>2026-04-23T11:00:19.885Z</time></trkpt><trkpt lat="43.1960468" lon="13.340184"><ele>301.0</ele><time>2026-04-23T11:00:20.885Z</time></trkpt><trkpt lat="43.1961342" lon="13.339976"><ele>301.0</ele><time>2026-04-23T11:00:21.885Z</time></trkpt><trkpt lat="43.1962179" lon="13.3397649"><ele>301.0</ele><time>2026-04-23T11:00:22.886Z</time></trkpt><trkpt lat="43.1962994" lon="13.3395577"><ele>301.0</ele><time>2026-04-23T11:00:23.886Z</time></trkpt><trkpt lat="43.196383" lon="13.3393556"><ele>301.0</ele><time>2026-04-23T11:00:24.886Z</time></trkpt><trkpt lat="43.1964635" lon="13.3391337"><ele>301.0</ele><time>2026-04-23T11:00:25.887Z</time></trkpt><trkpt lat="43.1965495" lon="13.3389167"><ele>305.0</ele><time>2026-04-23T11:00:26.886Z</time></trkpt><trkpt lat="43.1966348" lon="13.3386986"><ele>309.0</ele><time>2026-04-23T11:00:27.886Z</time></trkpt><trkpt lat="43.1967194" lon="13.3384746"><ele>313.0</ele><time>2026-04-23T11:00:28.885Z</time></trkpt><trkpt lat="43.1968054" lon="13.3382548"><ele>314.3333333333333</ele><time>2026-04-23T11:00:29.885Z</time></trkpt><trkpt lat="43.1968862" lon="13.3380315"><ele>315.6666666666667</ele><time>2026-04-23T11:00:30.886Z</time></trkpt><trkpt lat="43.1969438" lon="13.3377883"><ele>317.0</ele><time>2026-04-23T11:00:31.885Z</time></trkpt><trkpt lat="43.1969929" lon="13.3375435"><ele>317.0</ele><time>2026-04-23T11:00:32.885Z</time></trkpt><trkpt lat="43.1969909" lon="13.337291"><ele>317.0</ele><time>2026-04-23T11:00:33.886Z</time></trkpt><trkpt lat="43.1969809" lon="13.3370429"><ele>317.0</ele><time>2026-04-23T11:00:34.887Z</time></trkpt><trkpt lat="43.196941" lon="13.336798"><ele>318.33333333333337</ele><time>2026-04-23T11:00:35.886Z</time></trkpt><trkpt lat="43.1968835" lon="13.3365513"><ele>319.6666666666667</ele><time>2026-04-23T11:00:36.886Z</time></trkpt><trkpt lat="43.1968217" lon="13.3363095"><ele>321.0</ele><time>2026-04-23T11:00:37.886Z</time></trkpt><trkpt lat="43.1967511" lon="13.3360739"><ele>324.0</ele><time>2026-04-23T11:00:38.886Z</time></trkpt><trkpt lat="43.196676" lon="13.3358431"><ele>327.0</ele><time>2026-04-23T11:00:39.886Z</time></trkpt><trkpt lat="43.1965931" lon="13.3356278"><ele>330.0</ele><time>2026-04-23T11:00:40.886Z</time></trkpt><trkpt lat="43.1965159" lon="13.3354198"><ele>328.0</ele><time>2026-04-23T11:00:41.885Z</time></trkpt><trkpt lat="43.1964419" lon="13.3352149"><ele>326.0</ele><time>2026-04-23T11:00:42.886Z</time></trkpt><trkpt lat="43.1963819" lon="13.3350038"><ele>324.0</ele><time>2026-04-23T11:00:43.885Z</time></trkpt><trkpt lat="43.1963434" lon="13.3347758"><ele>326.0</ele><time>2026-04-23T11:00:44.885Z</time></trkpt><trkpt lat="43.1963267" lon="13.3345423"><ele>328.0</ele><time>2026-04-23T11:00:45.886Z</time></trkpt><trkpt lat="43.1963141" lon="13.3343052"><ele>330.0</ele><time>2026-04-23T11:00:46.885Z</time></trkpt><trkpt lat="43.1963024" lon="13.3340626"><ele>331.0</ele><time>2026-04-23T11:00:47.885Z</time></trkpt><trkpt lat="43.1962889" lon="13.3338255"><ele>332.0</ele><time>2026-04-23T11:00:48.886Z</time></trkpt><trkpt lat="43.196277" lon="13.3336165"><ele>333.0</ele><time>2026-04-23T11:00:49.885Z</time></trkpt><trkpt lat="43.1962698" lon="13.3334137"><ele>333.0</ele><time>2026-04-23T11:00:50.885Z</time></trkpt><trkpt lat="43.1962658" lon="13.3332552"><ele>333.0</ele><time>2026-04-23T11:00:51.885Z</time></trkpt><trkpt lat="43.1962689" lon="13.3330801"><ele>333.0</ele><time>2026-04-23T11:00:52.886Z</time></trkpt><trkpt lat="43.1963168" lon="13.3329134"><ele>333.0</ele><time>2026-04-23T11:00:53.885Z</time></trkpt><trkpt lat="43.1963714" lon="13.3327572"><ele>332.75</ele><time>2026-04-23T11:00:54.886Z</time></trkpt><trkpt lat="43.1964532" lon="13.3326408"><ele>332.5</ele><time>2026-04-23T11:00:55.887Z</time></trkpt><trkpt lat="43.1965646" lon="13.3325703"><ele>332.25</ele><time>2026-04-23T11:00:56.886Z</time></trkpt><trkpt lat="43.1966876" lon="13.3325203"><ele>332.0</ele><time>2026-04-23T11:00:57.886Z</time></trkpt><trkpt lat="43.1968348" lon="13.3324959"><ele>337.33333333333337</ele><time>2026-04-23T11:00:58.886Z</time></trkpt><trkpt lat="43.1969797" lon="13.3324741"><ele>342.6666666666667</ele><time>2026-04-23T11:00:59.885Z</time></trkpt><trkpt lat="43.1971389" lon="13.332441"><ele>348.0</ele><time>2026-04-23T11:01:00.885Z</time></trkpt><trkpt lat="43.1973053" lon="13.3324107"><ele>350.6666666666667</ele><time>2026-04-23T11:01:01.887Z</time></trkpt><trkpt lat="43.197466" lon="13.3323885"><ele>353.33333333333337</ele><time>2026-04-23T11:01:02.886Z</time></trkpt><trkpt lat="43.197616" lon="13.332361"><ele>356.0</ele><time>2026-04-23T11:01:03.887Z</time></trkpt><trkpt lat="43.1977646" lon="13.3323246"><ele>351.6666666666667</ele><time>2026-04-23T11:01:04.885Z</time></trkpt><trkpt lat="43.1978958" lon="13.3322072"><ele>347.3333333333333</ele><time>2026-04-23T11:01:05.886Z</time></trkpt><trkpt lat="43.1980167" lon="13.3320593"><ele>343.0</ele><time>2026-04-23T11:01:06.885Z</time></trkpt><trkpt lat="43.1981253" lon="13.3319039"><ele>346.66666666666663</ele><time>2026-04-23T11:01:07.885Z</time></trkpt><trkpt lat="43.1982316" lon="13.3317176"><ele>350.3333333333333</ele><time>2026-04-23T11:01:08.886Z</time></trkpt><trkpt lat="43.1983399" lon="13.3315182"><ele>354.0</ele><time>2026-04-23T11:01:09.886Z</time></trkpt><trkpt lat="43.1984445" lon="13.3313233"><ele>354.0</ele><time>2026-04-23T11:01:10.886Z</time></trkpt><trkpt lat="43.1985577" lon="13.3311328"><ele>354.0</ele><time>2026-04-23T11:01:11.885Z</time></trkpt><trkpt lat="43.1986724" lon="13.3309389"><ele>354.0</ele><time>2026-04-23T11:01:12.885Z</time></trkpt><trkpt lat="43.1987807" lon="13.330736"><ele>353.0</ele><time>2026-04-23T11:01:13.886Z</time></trkpt><trkpt lat="43.1988567" lon="13.3305012"><ele>352.0</ele><time>2026-04-23T11:01:14.885Z</time></trkpt><trkpt lat="43.1989392" lon="13.3302702"><ele>351.0</ele><time>2026-04-23T11:01:15.886Z</time></trkpt><trkpt lat="43.1990032" lon="13.3300317"><ele>358.6666666666667</ele><time>2026-04-23T11:01:16.886Z</time></trkpt><trkpt lat="43.1990717" lon="13.3298003"><ele>366.33333333333337</ele><time>2026-04-23T11:01:17.887Z</time></trkpt><trkpt lat="43.1991246" lon="13.3295542"><ele>374.0</ele><time>2026-04-23T11:01:18.886Z</time></trkpt><trkpt lat="43.1991698" lon="13.3293128"><ele>374.33333333333337</ele><time>2026-04-23T11:01:19.887Z</time></trkpt><trkpt lat="43.1991864" lon="13.3290739"><ele>374.6666666666667</ele><time>2026-04-23T11:01:20.885Z</time></trkpt><trkpt lat="43.1991643" lon="13.3288275"><ele>375.0</ele><time>2026-04-23T11:01:21.887Z</time></trkpt><trkpt lat="43.1991203" lon="13.3285842"><ele>375.0</ele><time>2026-04-23T11:01:22.886Z</time></trkpt><trkpt lat="43.1990711" lon="13.3283349"><ele>375.0</ele><time>2026-04-23T11:01:23.887Z</time></trkpt><trkpt lat="43.1990153" lon="13.328089"><ele>375.0</ele><time>2026-04-23T11:01:24.887Z</time></trkpt><trkpt lat="43.1989522" lon="13.3278515"><ele>375.0</ele><time>2026-04-23T11:01:25.885Z</time></trkpt><trkpt lat="43.1988469" lon="13.3276506"><ele>375.0</ele><time>2026-04-23T11:01:26.886Z</time></trkpt><trkpt lat="43.1987266" lon="13.3274891"><ele>375.0</ele><time>2026-04-23T11:01:27.886Z</time></trkpt><trkpt lat="43.1986233" lon="13.3273399"><ele>375.25</ele><time>2026-04-23T11:01:28.885Z</time></trkpt><trkpt lat="43.1985533" lon="13.3271978"><ele>375.5</ele><time>2026-04-23T11:01:29.886Z</time></trkpt><trkpt lat="43.1985297" lon="13.3270506"><ele>375.75</ele><time>2026-04-23T11:01:30.885Z</time></trkpt><trkpt lat="43.1985298" lon="13.3268981"><ele>376.0</ele><time>2026-04-23T11:01:31.886Z</time></trkpt><trkpt lat="43.198588" lon="13.3267395"><ele>376.0</ele><time>2026-04-23T11:01:32.885Z</time></trkpt><trkpt lat="43.1986463" lon="13.326545"><ele>376.0</ele><time>2026-04-23T11:01:33.885Z</time></trkpt><trkpt lat="43.1987105" lon="13.3263664"><ele>376.0</ele><time>2026-04-23T11:01:34.885Z</time></trkpt><trkpt lat="43.1987886" lon="13.3262306"><ele>376.0</ele><time>2026-04-23T11:01:35.886Z</time></trkpt><trkpt lat="43.1989104" lon="13.3261209"><ele>379.66666666666663</ele><time>2026-04-23T11:01:36.886Z</time></trkpt><trkpt lat="43.199078" lon="13.3260703"><ele>383.3333333333333</ele><time>2026-04-23T11:01:37.885Z</time></trkpt><trkpt lat="43.1992222" lon="13.3259868"><ele>387.0</ele><time>2026-04-23T11:01:38.885Z</time></trkpt><trkpt lat="43.1993759" lon="13.3258731"><ele>387.0</ele><time>2026-04-23T11:01:39.885Z</time></trkpt><trkpt lat="43.1995225" lon="13.3256983"><ele>387.0</ele><time>2026-04-23T11:01:40.886Z</time></trkpt><trkpt lat="43.1996755" lon="13.3255334"><ele>387.0</ele><time>2026-04-23T11:01:41.886Z</time></trkpt><trkpt lat="43.1998149" lon="13.3253535"><ele>388.33333333333337</ele><time>2026-04-23T11:01:42.886Z</time></trkpt><trkpt lat="43.1999351" lon="13.3251735"><ele>389.6666666666667</ele><time>2026-04-23T11:01:43.886Z</time></trkpt><trkpt lat="43.2000289" lon="13.3249739"><ele>391.0</ele><time>2026-04-23T11:01:44.885Z</time></trkpt><trkpt lat="43.2000925" lon="13.3247679"><ele>391.6666666666667</ele><time>2026-04-23T11:01:45.886Z</time></trkpt><trkpt lat="43.2001173" lon="13.3245531"><ele>392.33333333333337</ele><time>2026-04-23T11:01:46.885Z</time></trkpt><trkpt lat="43.2001106" lon="13.3243525"><ele>393.0</ele><time>2026-04-23T11:01:47.886Z</time></trkpt><trkpt lat="43.2000659" lon="13.3241457"><ele>393.0</ele><time>2026-04-23T11:01:48.886Z</time></trkpt><trkpt lat="43.1999839" lon="13.3239532"><ele>393.0</ele><time>2026-04-23T11:01:49.885Z</time></trkpt><trkpt lat="43.1998691" lon="13.3237867"><ele>393.0</ele><time>2026-04-23T11:01:50.886Z</time></trkpt><trkpt lat="43.1997238" lon="13.3236487"><ele>394.33333333333337</ele><time>2026-04-23T11:01:51.885Z</time></trkpt><trkpt lat="43.1995615" lon="13.3235261"><ele>395.6666666666667</ele><time>2026-04-23T11:01:52.886Z</time></trkpt><trkpt lat="43.1993935" lon="13.3234133"><ele>397.0</ele><time>2026-04-23T11:01:53.887Z</time></trkpt><trkpt lat="43.1992183" lon="13.3233017"><ele>397.0</ele><time>2026-04-23T11:01:54.885Z</time></trkpt><trkpt lat="43.1990543" lon="13.3232007"><ele>397.0</ele><time>2026-04-23T11:01:55.886Z</time></trkpt><trkpt lat="43.1989079" lon="13.3231099"><ele>397.0</ele><time>2026-04-23T11:01:56.885Z</time></trkpt><trkpt lat="43.1987878" lon="13.3230188"><ele>397.0</ele><time>2026-04-23T11:01:57.885Z</time></trkpt><trkpt lat="43.1986965" lon="13.3229073"><ele>397.0</ele><time>2026-04-23T11:01:58.886Z</time></trkpt><trkpt lat="43.1986374" lon="13.3227766"><ele>397.0</ele><time>2026-04-23T11:01:59.887Z</time></trkpt><trkpt lat="43.1986024" lon="13.3226176"><ele>397.0</ele><time>2026-04-23T11:02:00.886Z</time></trkpt><trkpt lat="43.1985942" lon="13.3224405"><ele>397.0</ele><time>2026-04-23T11:02:01.885Z</time></trkpt><trkpt lat="43.1986091" lon="13.3222599"><ele>397.0</ele><time>2026-04-23T11:02:02.886Z</time></trkpt><trkpt lat="43.1986065" lon="13.3220888"><ele>397.0</ele><time>2026-04-23T11:02:03.885Z</time></trkpt><trkpt lat="43.1985663" lon="13.3219067"><ele>397.0</ele><time>2026-04-23T11:02:04.886Z</time></trkpt><trkpt lat="43.1984839" lon="13.3217336"><ele>398.33333333333337</ele><time>2026-04-23T11:02:05.886Z</time></trkpt><trkpt lat="43.1983567" lon="13.3215615"><ele>399.66666666666663</ele><time>2026-04-23T11:02:06.886Z</time></trkpt><trkpt lat="43.1982125" lon="13.3213856"><ele>401.0</ele><time>2026-04-23T11:02:07.887Z</time></trkpt><trkpt lat="43.1980651" lon="13.3212379"><ele>401.0</ele><time>2026-04-23T11:02:08.887Z</time></trkpt><trkpt lat="43.1979534" lon="13.3211195"><ele>401.0</ele><time>2026-04-23T11:02:09.886Z</time></trkpt><trkpt lat="43.197844" lon="13.3209677"><ele>401.0</ele><time>2026-04-23T11:02:10.886Z</time></trkpt><trkpt lat="43.1977569" lon="13.3208032"><ele>401.0</ele><time>2026-04-23T11:02:11.885Z</time></trkpt><trkpt lat="43.1976992" lon="13.3206173"><ele>401.66666666666663</ele><time>2026-04-23T11:02:12.886Z</time></trkpt><trkpt lat="43.1976926" lon="13.3204161"><ele>402.33333333333337</ele><time>2026-04-23T11:02:13.886Z</time></trkpt><trkpt lat="43.1977184" lon="13.3201959"><ele>403.0</ele><time>2026-04-23T11:02:14.886Z</time></trkpt><trkpt lat="43.1977526" lon="13.3199714"><ele>402.0</ele><time>2026-04-23T11:02:15.885Z</time></trkpt><trkpt lat="43.1978093" lon="13.3197329"><ele>401.0</ele><time>2026-04-23T11:02:16.886Z</time></trkpt><trkpt lat="43.1978693" lon="13.319483"><ele>400.0</ele><time>2026-04-23T11:02:17.887Z</time></trkpt><trkpt lat="43.1979271" lon="13.3192241"><ele>400.0</ele><time>2026-04-23T11:02:18.886Z</time></trkpt><trkpt lat="43.1979923" lon="13.3189541"><ele>400.0</ele><time>2026-04-23T11:02:19.886Z</time></trkpt><trkpt lat="43.19806" lon="13.3186938"><ele>400.0</ele><time>2026-04-23T11:02:20.885Z</time></trkpt><trkpt lat="43.1981218" lon="13.3184676"><ele>399.0</ele><time>2026-04-23T11:02:21.886Z</time></trkpt><trkpt lat="43.198168" lon="13.3182654"><ele>398.0</ele><time>2026-04-23T11:02:22.887Z</time></trkpt><trkpt lat="43.1981907" lon="13.3180725"><ele>397.0</ele><time>2026-04-23T11:02:23.886Z</time></trkpt><trkpt lat="43.1981771" lon="13.3178771"><ele>396.0</ele><time>2026-04-23T11:02:24.885Z</time></trkpt><trkpt lat="43.1981202" lon="13.3176843"><ele>396.0</ele><time>2026-04-23T11:02:25.885Z</time></trkpt><trkpt lat="43.1980654" lon="13.3175018"><ele>396.0</ele><time>2026-04-23T11:02:26.887Z</time></trkpt><trkpt lat="43.1980506" lon="13.3173188"><ele>396.0</ele><time>2026-04-23T11:02:27.886Z</time></trkpt><trkpt lat="43.198078" lon="13.3171302"><ele>396.0</ele><time>2026-04-23T11:02:28.886Z</time></trkpt><trkpt lat="43.198114" lon="13.3169243"><ele>398.75</ele><time>2026-04-23T11:02:29.886Z</time></trkpt><trkpt lat="43.198123" lon="13.3167312"><ele>401.5</ele><time>2026-04-23T11:02:30.886Z</time></trkpt><trkpt lat="43.19809" lon="13.3165611"><ele>404.25</ele><time>2026-04-23T11:02:31.886Z</time></trkpt><trkpt lat="43.198011" lon="13.3164178"><ele>407.0</ele><time>2026-04-23T11:02:32.887Z</time></trkpt><trkpt lat="43.1978864" lon="13.3163104"><ele>408.66666666666663</ele><time>2026-04-23T11:02:33.887Z</time></trkpt><trkpt lat="43.1977319" lon="13.3162273"><ele>410.33333333333337</ele><time>2026-04-23T11:02:34.885Z</time></trkpt><trkpt lat="43.1975839" lon="13.3161488"><ele>412.0</ele><time>2026-04-23T11:02:35.886Z</time></trkpt><trkpt lat="43.1974443" lon="13.3160757"><ele>412.0</ele><time>2026-04-23T11:02:36.885Z</time></trkpt><trkpt lat="43.1973383" lon="13.3159685"><ele>412.0</ele><time>2026-04-23T11:02:37.887Z</time></trkpt><trkpt lat="43.1972394" lon="13.3158256"><ele>412.0</ele><time>2026-04-23T11:02:38.886Z</time></trkpt><trkpt lat="43.1971449" lon="13.31565"><ele>412.0</ele><time>2026-04-23T11:02:39.887Z</time></trkpt><trkpt lat="43.1970625" lon="13.315473"><ele>409.6666666666667</ele><time>2026-04-23T11:02:40.886Z</time></trkpt><trkpt lat="43.1969982" lon="13.3152835"><ele>407.33333333333337</ele><time>2026-04-23T11:02:41.885Z</time></trkpt><trkpt lat="43.196957" lon="13.3150702"><ele>405.0</ele><time>2026-04-23T11:02:42.886Z</time></trkpt><trkpt lat="43.1969271" lon="13.3148675"><ele>405.0</ele><time>2026-04-23T11:02:43.887Z</time></trkpt><trkpt lat="43.1969179" lon="13.3146722"><ele>405.0</ele><time>2026-04-23T11:02:44.886Z</time></trkpt><trkpt lat="43.1968855" lon="13.3144832"><ele>405.0</ele><time>2026-04-23T11:02:45.885Z</time></trkpt><trkpt lat="43.196824" lon="13.3143014"><ele>405.0</ele><time>2026-04-23T11:02:46.888Z</time></trkpt><trkpt lat="43.1967375" lon="13.3141285"><ele>405.0</ele><time>2026-04-23T11:02:47.886Z</time></trkpt><trkpt lat="43.1965916" lon="13.3139908"><ele>405.0</ele><time>2026-04-23T11:02:48.886Z</time></trkpt><trkpt lat="43.1964407" lon="13.3138717"><ele>405.0</ele><time>2026-04-23T11:02:49.886Z</time></trkpt><trkpt lat="43.1963047" lon="13.3137362"><ele>403.0</ele><time>2026-04-23T11:02:50.885Z</time></trkpt><trkpt lat="43.1962085" lon="13.3135448"><ele>401.0</ele><time>2026-04-23T11:02:51.885Z</time></trkpt><trkpt lat="43.1961227" lon="13.313345"><ele>399.0</ele><time>2026-04-23T11:02:52.885Z</time></trkpt><trkpt lat="43.196054" lon="13.3131007"><ele>400.66666666666663</ele><time>2026-04-23T11:02:53.885Z</time></trkpt><trkpt lat="43.1959875" lon="13.3128449"><ele>402.3333333333333</ele><time>2026-04-23T11:02:54.886Z</time></trkpt><trkpt lat="43.1959" lon="13.3125953"><ele>404.0</ele><time>2026-04-23T11:02:55.887Z</time></trkpt><trkpt lat="43.1957799" lon="13.3123577"><ele>399.0</ele><time>2026-04-23T11:02:56.886Z</time></trkpt><trkpt lat="43.1956592" lon="13.312168"><ele>394.0</ele><time>2026-04-23T11:02:57.888Z</time></trkpt><trkpt lat="43.1955623" lon="13.3119983"><ele>389.0</ele><time>2026-04-23T11:02:58.886Z</time></trkpt><trkpt lat="43.1954882" lon="13.3118332"><ele>389.0</ele><time>2026-04-23T11:02:59.885Z</time></trkpt><trkpt lat="43.1954412" lon="13.3116765"><ele>389.0</ele><time>2026-04-23T11:03:00.886Z</time></trkpt><trkpt lat="43.1953974" lon="13.3115229"><ele>389.0</ele><time>2026-04-23T11:03:01.885Z</time></trkpt><trkpt lat="43.1953623" lon="13.311378"><ele>389.0</ele><time>2026-04-23T11:03:02.885Z</time></trkpt><trkpt lat="43.1953261" lon="13.3112352"><ele>390.2</ele><time>2026-04-23T11:03:03.886Z</time></trkpt><trkpt lat="43.1952974" lon="13.3111026"><ele>391.4</ele><time>2026-04-23T11:03:04.887Z</time></trkpt><trkpt lat="43.1952645" lon="13.3109649"><ele>392.6</ele><time>2026-04-23T11:03:05.887Z</time></trkpt><trkpt lat="43.1952239" lon="13.3108304"><ele>393.8</ele><time>2026-04-23T11:03:06.886Z</time></trkpt><trkpt lat="43.1951844" lon="13.3107143"><ele>395.0</ele><time>2026-04-23T11:03:07.886Z</time></trkpt><trkpt lat="43.1951521" lon="13.3106041"><ele>394.99999999999994</ele><time>2026-04-23T11:03:09.885Z</time></trkpt><trkpt lat="43.1951173" lon="13.3106901"><ele>395.0</ele><time>2026-04-23T11:03:15.885Z</time></trkpt><trkpt lat="43.1951646" lon="13.3107923"><ele>395.0</ele><time>2026-04-23T11:03:17.886Z</time></trkpt><trkpt lat="43.1951954" lon="13.3108834"><ele>395.0</ele><time>2026-04-23T11:03:18.886Z</time></trkpt><trkpt lat="43.1952298" lon="13.3109887"><ele>394.99999999999994</ele><time>2026-04-23T11:03:19.886Z</time></trkpt><trkpt lat="43.1952632" lon="13.3111192"><ele>395.0</ele><time>2026-04-23T11:03:20.885Z</time></trkpt><trkpt lat="43.1952914" lon="13.3112613"><ele>393.5</ele><time>2026-04-23T11:03:21.885Z</time></trkpt><trkpt lat="43.1953246" lon="13.3114196"><ele>392.0</ele><time>2026-04-23T11:03:22.885Z</time></trkpt><trkpt lat="43.1953664" lon="13.3115897"><ele>390.5</ele><time>2026-04-23T11:03:23.887Z</time></trkpt><trkpt lat="43.1954271" lon="13.3117688"><ele>389.0</ele><time>2026-04-23T11:03:24.885Z</time></trkpt><trkpt lat="43.1955079" lon="13.3119424"><ele>389.0</ele><time>2026-04-23T11:03:25.887Z</time></trkpt><trkpt lat="43.1956038" lon="13.3121148"><ele>389.0</ele><time>2026-04-23T11:03:26.886Z</time></trkpt><trkpt lat="43.1957092" lon="13.3122899"><ele>389.0</ele><time>2026-04-23T11:03:27.886Z</time></trkpt><trkpt lat="43.1958118" lon="13.3124672"><ele>392.3333333333333</ele><time>2026-04-23T11:03:28.885Z</time></trkpt><trkpt lat="43.1958963" lon="13.3126619"><ele>395.66666666666663</ele><time>2026-04-23T11:03:29.886Z</time></trkpt><trkpt lat="43.195952" lon="13.3128729"><ele>399.0</ele><time>2026-04-23T11:03:30.885Z</time></trkpt><trkpt lat="43.1960032" lon="13.3130838"><ele>399.0</ele><time>2026-04-23T11:03:31.886Z</time></trkpt><trkpt lat="43.1960623" lon="13.3132972"><ele>399.0</ele><time>2026-04-23T11:03:32.885Z</time></trkpt><trkpt lat="43.1961442" lon="13.3135033"><ele>399.0</ele><time>2026-04-23T11:03:33.886Z</time></trkpt><trkpt lat="43.1962465" lon="13.3136762"><ele>399.0</ele><time>2026-04-23T11:03:34.886Z</time></trkpt><trkpt lat="43.1963686" lon="13.3138222"><ele>399.0</ele><time>2026-04-23T11:03:35.886Z</time></trkpt><trkpt lat="43.1964941" lon="13.3139365"><ele>399.0</ele><time>2026-04-23T11:03:36.886Z</time></trkpt><trkpt lat="43.1966128" lon="13.3140421"><ele>400.2</ele><time>2026-04-23T11:03:37.886Z</time></trkpt><trkpt lat="43.1967208" lon="13.314152"><ele>401.4</ele><time>2026-04-23T11:03:38.886Z</time></trkpt><trkpt lat="43.1967898" lon="13.3142701"><ele>402.6</ele><time>2026-04-23T11:03:39.885Z</time></trkpt><trkpt lat="43.1968442" lon="13.3143782"><ele>403.8</ele><time>2026-04-23T11:03:40.887Z</time></trkpt><trkpt lat="43.1968812" lon="13.3144628"><ele>405.0</ele><time>2026-04-23T11:03:41.885Z</time></trkpt><trkpt lat="43.1969557" lon="13.3145186"><ele>405.0</ele><time>2026-04-23T11:03:43.886Z</time></trkpt><trkpt lat="43.1970025" lon="13.3144086"><ele>405.0</ele><time>2026-04-23T11:03:45.887Z</time></trkpt><trkpt lat="43.1970203" lon="13.3142408"><ele>405.0</ele><time>2026-04-23T11:03:47.886Z</time></trkpt><trkpt lat="43.197035" lon="13.3141228"><ele>405.0</ele><time>2026-04-23T11:03:48.886Z</time></trkpt><trkpt lat="43.1970452" lon="13.3139959"><ele>405.0</ele><time>2026-04-23T11:03:49.885Z</time></trkpt><trkpt lat="43.1970573" lon="13.3138515"><ele>406.25</ele><time>2026-04-23T11:03:50.885Z</time></trkpt><trkpt lat="43.1970672" lon="13.3137012"><ele>407.5</ele><time>2026-04-23T11:03:51.886Z</time></trkpt><trkpt lat="43.1970807" lon="13.3135473"><ele>408.75</ele><time>2026-04-23T11:03:52.886Z</time></trkpt><trkpt lat="43.1971" lon="13.3133773"><ele>410.0</ele><time>2026-04-23T11:03:53.886Z</time></trkpt><trkpt lat="43.1971307" lon="13.3131896"><ele>408.66666666666663</ele><time>2026-04-23T11:03:54.886Z</time></trkpt><trkpt lat="43.1971578" lon="13.312994"><ele>407.33333333333337</ele><time>2026-04-23T11:03:55.887Z</time></trkpt><trkpt lat="43.1971813" lon="13.312773"><ele>406.0</ele><time>2026-04-23T11:03:56.887Z</time></trkpt><trkpt lat="43.1971973" lon="13.3125612"><ele>406.0</ele><time>2026-04-23T11:03:57.885Z</time></trkpt><trkpt lat="43.1972137" lon="13.3123598"><ele>406.0</ele><time>2026-04-23T11:03:58.886Z</time></trkpt><trkpt lat="43.1972394" lon="13.3121582"><ele>406.0</ele><time>2026-04-23T11:03:59.886Z</time></trkpt><trkpt lat="43.197267" lon="13.3119626"><ele>406.0</ele><time>2026-04-23T11:04:00.886Z</time></trkpt><trkpt lat="43.1973089" lon="13.3117666"><ele>401.25</ele><time>2026-04-23T11:04:01.887Z</time></trkpt><trkpt lat="43.197343" lon="13.3115781"><ele>396.5</ele><time>2026-04-23T11:04:02.886Z</time></trkpt><trkpt lat="43.197389" lon="13.3113933"><ele>391.75</ele><time>2026-04-23T11:04:03.886Z</time></trkpt><trkpt lat="43.1974471" lon="13.3112216"><ele>387.0</ele><time>2026-04-23T11:04:04.886Z</time></trkpt><trkpt lat="43.1975167" lon="13.311068"><ele>387.0</ele><time>2026-04-23T11:04:05.887Z</time></trkpt><trkpt lat="43.1975965" lon="13.3109339"><ele>387.0</ele><time>2026-04-23T11:04:06.886Z</time></trkpt><trkpt lat="43.1976728" lon="13.3107795"><ele>387.0</ele><time>2026-04-23T11:04:07.886Z</time></trkpt><trkpt lat="43.1977356" lon="13.3106258"><ele>387.0</ele><time>2026-04-23T11:04:08.887Z</time></trkpt><trkpt lat="43.1977692" lon="13.3104914"><ele>386.20000000000005</ele><time>2026-04-23T11:04:09.886Z</time></trkpt><trkpt lat="43.1977978" lon="13.3103578"><ele>385.4</ele><time>2026-04-23T11:04:10.886Z</time></trkpt><trkpt lat="43.1978187" lon="13.3102115"><ele>384.6</ele><time>2026-04-23T11:04:11.885Z</time></trkpt><trkpt lat="43.1978378" lon="13.3100567"><ele>383.79999999999995</ele><time>2026-04-23T11:04:12.886Z</time></trkpt><trkpt lat="43.1978584" lon="13.3099002"><ele>383.0</ele><time>2026-04-23T11:04:13.887Z</time></trkpt><trkpt lat="43.1978745" lon="13.309744"><ele>380.0</ele><time>2026-04-23T11:04:14.885Z</time></trkpt><trkpt lat="43.1978926" lon="13.3095765"><ele>377.0</ele><time>2026-04-23T11:04:15.885Z</time></trkpt><trkpt lat="43.1979107" lon="13.3094128"><ele>374.0</ele><time>2026-04-23T11:04:16.887Z</time></trkpt><trkpt lat="43.1979371" lon="13.3092539"><ele>371.0</ele><time>2026-04-23T11:04:17.886Z</time></trkpt><trkpt lat="43.1979663" lon="13.3090849"><ele>371.0</ele><time>2026-04-23T11:04:18.885Z</time></trkpt><trkpt lat="43.1979978" lon="13.3089223"><ele>371.0</ele><time>2026-04-23T11:04:19.886Z</time></trkpt><trkpt lat="43.1980426" lon="13.3087621"><ele>371.0</ele><time>2026-04-23T11:04:20.886Z</time></trkpt><trkpt lat="43.1980884" lon="13.3086104"><ele>371.0</ele><time>2026-04-23T11:04:21.887Z</time></trkpt><trkpt lat="43.1981422" lon="13.3084629"><ele>366.0</ele><time>2026-04-23T11:04:22.886Z</time></trkpt><trkpt lat="43.1982345" lon="13.3083293"><ele>361.0</ele><time>2026-04-23T11:04:23.886Z</time></trkpt><trkpt lat="43.1983273" lon="13.3081927"><ele>356.0</ele><time>2026-04-23T11:04:24.885Z</time></trkpt><trkpt lat="43.198422" lon="13.3080581"><ele>351.0</ele><time>2026-04-23T11:04:25.885Z</time></trkpt><trkpt lat="43.1985045" lon="13.3079243"><ele>349.0</ele><time>2026-04-23T11:04:26.885Z</time></trkpt><trkpt lat="43.1985659" lon="13.3078051"><ele>347.0</ele><time>2026-04-23T11:04:27.886Z</time></trkpt><trkpt lat="43.1986304" lon="13.3076855"><ele>345.0</ele><time>2026-04-23T11:04:28.886Z</time></trkpt><trkpt lat="43.1986621" lon="13.3075533"><ele>343.0</ele><time>2026-04-23T11:04:29.885Z</time></trkpt><trkpt lat="43.1986936" lon="13.3074181"><ele>341.0</ele><time>2026-04-23T11:04:30.888Z</time></trkpt><trkpt lat="43.1987169" lon="13.3072678"><ele>338.6</ele><time>2026-04-23T11:04:31.886Z</time></trkpt><trkpt lat="43.1987577" lon="13.3071339"><ele>336.20000000000005</ele><time>2026-04-23T11:04:32.886Z</time></trkpt><trkpt lat="43.198805" lon="13.3070088"><ele>333.79999999999995</ele><time>2026-04-23T11:04:33.886Z</time></trkpt><trkpt lat="43.1988369" lon="13.3068818"><ele>331.4</ele><time>2026-04-23T11:04:34.888Z</time></trkpt><trkpt lat="43.1988525" lon="13.3067498"><ele>329.0</ele><time>2026-04-23T11:04:35.885Z</time></trkpt><trkpt lat="43.1988613" lon="13.3066175"><ele>329.0</ele><time>2026-04-23T11:04:36.886Z</time></trkpt><trkpt lat="43.1988676" lon="13.3064899"><ele>329.0</ele><time>2026-04-23T11:04:37.886Z</time></trkpt><trkpt lat="43.1988624" lon="13.3063513"><ele>329.0</ele><time>2026-04-23T11:04:38.886Z</time></trkpt><trkpt lat="43.1988587" lon="13.306206"><ele>329.0</ele><time>2026-04-23T11:04:39.886Z</time></trkpt><trkpt lat="43.1988532" lon="13.3060481"><ele>329.0</ele><time>2026-04-23T11:04:40.886Z</time></trkpt><trkpt lat="43.1988594" lon="13.3059094"><ele>327.6</ele><time>2026-04-23T11:04:41.886Z</time></trkpt><trkpt lat="43.1988577" lon="13.305769"><ele>326.2</ele><time>2026-04-23T11:04:42.886Z</time></trkpt><trkpt lat="43.1988503" lon="13.3056277"><ele>324.8</ele><time>2026-04-23T11:04:43.885Z</time></trkpt><trkpt lat="43.1988279" lon="13.3054886"><ele>323.40000000000003</ele><time>2026-04-23T11:04:44.885Z</time></trkpt><trkpt lat="43.1988187" lon="13.3053425"><ele>322.0</ele><time>2026-04-23T11:04:45.885Z</time></trkpt><trkpt lat="43.1988479" lon="13.3051932"><ele>319.5</ele><time>2026-04-23T11:04:46.886Z</time></trkpt><trkpt lat="43.198875" lon="13.3050453"><ele>317.0</ele><time>2026-04-23T11:04:47.885Z</time></trkpt><trkpt lat="43.1989276" lon="13.3049024"><ele>314.5</ele><time>2026-04-23T11:04:48.885Z</time></trkpt><trkpt lat="43.1989874" lon="13.3047295"><ele>312.0</ele><time>2026-04-23T11:04:49.885Z</time></trkpt><trkpt lat="43.1990402" lon="13.3045622"><ele>310.5</ele><time>2026-04-23T11:04:50.888Z</time></trkpt><trkpt lat="43.1991005" lon="13.3043895"><ele>309.0</ele><time>2026-04-23T11:04:51.886Z</time></trkpt><trkpt lat="43.1991552" lon="13.3042292"><ele>307.5</ele><time>2026-04-23T11:04:52.885Z</time></trkpt><trkpt lat="43.1992008" lon="13.3040733"><ele>306.0</ele><time>2026-04-23T11:04:53.887Z</time></trkpt><trkpt lat="43.199251" lon="13.3039348"><ele>303.0</ele><time>2026-04-23T11:04:54.887Z</time></trkpt><trkpt lat="43.1993171" lon="13.3038244"><ele>300.0</ele><time>2026-04-23T11:04:55.886Z</time></trkpt><trkpt lat="43.1993953" lon="13.3037391"><ele>297.0</ele><time>2026-04-23T11:04:56.887Z</time></trkpt><trkpt lat="43.1994767" lon="13.3036865"><ele>294.0</ele><time>2026-04-23T11:04:57.886Z</time></trkpt><trkpt lat="43.1995583" lon="13.3036294"><ele>291.0</ele><time>2026-04-23T11:04:58.885Z</time></trkpt><trkpt lat="43.1996166" lon="13.3035471"><ele>291.0</ele><time>2026-04-23T11:04:59.887Z</time></trkpt><trkpt lat="43.199639" lon="13.3034267"><ele>291.0</ele><time>2026-04-23T11:05:00.887Z</time></trkpt><trkpt lat="43.1996438" lon="13.3033136"><ele>291.0</ele><time>2026-04-23T11:05:01.886Z</time></trkpt><trkpt lat="43.1996401" lon="13.3031996"><ele>291.0</ele><time>2026-04-23T11:05:02.885Z</time></trkpt><trkpt lat="43.1996146" lon="13.3030772"><ele>291.0</ele><time>2026-04-23T11:05:03.886Z</time></trkpt><trkpt lat="43.1996053" lon="13.302969"><ele>291.0</ele><time>2026-04-23T11:05:04.886Z</time></trkpt><trkpt lat="43.1996162" lon="13.3028613"><ele>288.8</ele><time>2026-04-23T11:05:05.887Z</time></trkpt><trkpt lat="43.1996481" lon="13.3027456"><ele>286.6</ele><time>2026-04-23T11:05:06.887Z</time></trkpt><trkpt lat="43.1996954" lon="13.3026287"><ele>284.4</ele><time>2026-04-23T11:05:07.886Z</time></trkpt><trkpt lat="43.1997379" lon="13.3024943"><ele>282.2</ele><time>2026-04-23T11:05:08.886Z</time></trkpt><trkpt lat="43.1997868" lon="13.3023333"><ele>280.0</ele><time>2026-04-23T11:05:09.886Z</time></trkpt><trkpt lat="43.1998286" lon="13.3021621"><ele>276.75</ele><time>2026-04-23T11:05:10.886Z</time></trkpt><trkpt lat="43.199867" lon="13.3019891"><ele>273.5</ele><time>2026-04-23T11:05:11.885Z</time></trkpt><trkpt lat="43.1999034" lon="13.3018232"><ele>270.25</ele><time>2026-04-23T11:05:12.886Z</time></trkpt><trkpt lat="43.1999454" lon="13.301663"><ele>267.0</ele><time>2026-04-23T11:05:13.886Z</time></trkpt><trkpt lat="43.1999857" lon="13.3015136"><ele>263.25</ele><time>2026-04-23T11:05:14.887Z</time></trkpt><trkpt lat="43.2000401" lon="13.3013692"><ele>259.5</ele><time>2026-04-23T11:05:15.886Z</time></trkpt><trkpt lat="43.2001108" lon="13.3012277"><ele>255.75</ele><time>2026-04-23T11:05:16.886Z</time></trkpt><trkpt lat="43.2001924" lon="13.3010757"><ele>252.0</ele><time>2026-04-23T11:05:17.887Z</time></trkpt><trkpt lat="43.2002888" lon="13.3009312"><ele>252.0</ele><time>2026-04-23T11:05:18.887Z</time></trkpt><trkpt lat="43.200381" lon="13.3007813"><ele>252.0</ele><time>2026-04-23T11:05:19.887Z</time></trkpt><trkpt lat="43.2004758" lon="13.3006207"><ele>252.0</ele><time>2026-04-23T11:05:20.887Z</time></trkpt><trkpt lat="43.2005587" lon="13.3004923"><ele>252.0</ele><time>2026-04-23T11:05:21.886Z</time></trkpt><trkpt lat="43.2006358" lon="13.3003676"><ele>250.16666666666666</ele><time>2026-04-23T11:05:22.885Z</time></trkpt><trkpt lat="43.2007026" lon="13.3002705"><ele>248.33333333333331</ele><time>2026-04-23T11:05:23.886Z</time></trkpt><trkpt lat="43.2007584" lon="13.3001817"><ele>246.5</ele><time>2026-04-23T11:05:24.886Z</time></trkpt><trkpt lat="43.2007993" lon="13.3001153"><ele>244.66666666666666</ele><time>2026-04-23T11:05:25.887Z</time></trkpt><trkpt lat="43.2008056" lon="13.300007"><ele>242.83333333333331</ele><time>2026-04-23T11:05:27.886Z</time></trkpt><trkpt lat="43.2007395" lon="13.2999287"><ele>241.0</ele><time>2026-04-23T11:05:29.886Z</time></trkpt><trkpt lat="43.2006407" lon="13.2998993"><ele>240.83333333333331</ele><time>2026-04-23T11:05:31.886Z</time></trkpt><trkpt lat="43.2006168" lon="13.2998167"><ele>240.66666666666666</ele><time>2026-04-23T11:05:33.886Z</time></trkpt><trkpt lat="43.2006845" lon="13.2997071"><ele>240.5</ele><time>2026-04-23T11:05:35.886Z</time></trkpt><trkpt lat="43.2007195" lon="13.2996345"><ele>240.33333333333331</ele><time>2026-04-23T11:05:36.885Z</time></trkpt><trkpt lat="43.2006919" lon="13.2995028"><ele>240.16666666666666</ele><time>2026-04-23T11:05:38.886Z</time></trkpt><trkpt lat="43.2005786" lon="13.2994747"><ele>240.0</ele><time>2026-04-23T11:05:40.885Z</time></trkpt><trkpt lat="43.2005125" lon="13.2994697"><ele>238.0</ele><time>2026-04-23T11:05:41.885Z</time></trkpt><trkpt lat="43.2004145" lon="13.2994114"><ele>236.0</ele><time>2026-04-23T11:05:43.886Z</time></trkpt><trkpt lat="43.2004252" lon="13.2993073"><ele>234.0</ele><time>2026-04-23T11:05:45.888Z</time></trkpt><trkpt lat="43.2005394" lon="13.2992234"><ele>232.0</ele><time>2026-04-23T11:05:47.886Z</time></trkpt><trkpt lat="43.2006246" lon="13.2992049"><ele>230.0</ele><time>2026-04-23T11:05:48.886Z</time></trkpt><trkpt lat="43.2007284" lon="13.2992017"><ele>229.6</ele><time>2026-04-23T11:05:49.885Z</time></trkpt><trkpt lat="43.2008245" lon="13.2992016"><ele>229.2</ele><time>2026-04-23T11:05:50.887Z</time></trkpt><trkpt lat="43.2009177" lon="13.2992166"><ele>228.8</ele><time>2026-04-23T11:05:51.886Z</time></trkpt><trkpt lat="43.2009955" lon="13.2992294"><ele>228.4</ele><time>2026-04-23T11:05:52.886Z</time></trkpt><trkpt lat="43.2010837" lon="13.2992116"><ele>228.0</ele><time>2026-04-23T11:05:53.886Z</time></trkpt><trkpt lat="43.2011722" lon="13.2991709"><ele>228.0</ele><time>2026-04-23T11:05:54.887Z</time></trkpt><trkpt lat="43.2012637" lon="13.299047"><ele>228.0</ele><time>2026-04-23T11:05:55.887Z</time></trkpt><trkpt lat="43.2013509" lon="13.2989081"><ele>228.0</ele><time>2026-04-23T11:05:56.885Z</time></trkpt><trkpt lat="43.2014312" lon="13.2987471"><ele>228.0</ele><time>2026-04-23T11:05:57.886Z</time></trkpt><trkpt lat="43.2015182" lon="13.2985697"><ele>228.33333333333331</ele><time>2026-04-23T11:05:58.885Z</time></trkpt><trkpt lat="43.2016103" lon="13.2983873"><ele>228.66666666666666</ele><time>2026-04-23T11:05:59.887Z</time></trkpt><trkpt lat="43.2017201" lon="13.2982089"><ele>229.0</ele><time>2026-04-23T11:06:00.887Z</time></trkpt><trkpt lat="43.2018411" lon="13.2980608"><ele>229.0</ele><time>2026-04-23T11:06:01.886Z</time></trkpt><trkpt lat="43.201954" lon="13.2979301"><ele>229.0</ele><time>2026-04-23T11:06:02.887Z</time></trkpt><trkpt lat="43.202037" lon="13.2977964"><ele>229.0</ele><time>2026-04-23T11:06:03.887Z</time></trkpt><trkpt lat="43.2020927" lon="13.297653"><ele>229.0</ele><time>2026-04-23T11:06:04.885Z</time></trkpt><trkpt lat="43.2021419" lon="13.2974972"><ele>229.0</ele><time>2026-04-23T11:06:05.887Z</time></trkpt><trkpt lat="43.2022007" lon="13.2973506"><ele>229.0</ele><time>2026-04-23T11:06:06.886Z</time></trkpt><trkpt lat="43.202281" lon="13.2972184"><ele>229.0</ele><time>2026-04-23T11:06:07.886Z</time></trkpt><trkpt lat="43.2023738" lon="13.2970731"><ele>229.0</ele><time>2026-04-23T11:06:08.887Z</time></trkpt><trkpt lat="43.2024918" lon="13.2969517"><ele>228.75</ele><time>2026-04-23T11:06:09.886Z</time></trkpt><trkpt lat="43.2026073" lon="13.2968339"><ele>228.5</ele><time>2026-04-23T11:06:10.886Z</time></trkpt><trkpt lat="43.2027256" lon="13.2967263"><ele>228.25</ele><time>2026-04-23T11:06:11.886Z</time></trkpt><trkpt lat="43.2028474" lon="13.296628"><ele>228.0</ele><time>2026-04-23T11:06:12.887Z</time></trkpt><trkpt lat="43.2029911" lon="13.296537"><ele>228.0</ele><time>2026-04-23T11:06:13.886Z</time></trkpt><trkpt lat="43.2031172" lon="13.2964425"><ele>228.0</ele><time>2026-04-23T11:06:14.885Z</time></trkpt><trkpt lat="43.2032427" lon="13.2963481"><ele>228.0</ele><time>2026-04-23T11:06:15.886Z</time></trkpt><trkpt lat="43.2033453" lon="13.2962561"><ele>228.0</ele><time>2026-04-23T11:06:16.886Z</time></trkpt><trkpt lat="43.2034309" lon="13.2961333"><ele>226.5</ele><time>2026-04-23T11:06:17.886Z</time></trkpt><trkpt lat="43.2035257" lon="13.2959985"><ele>225.0</ele><time>2026-04-23T11:06:18.887Z</time></trkpt><trkpt lat="43.2036046" lon="13.2958343"><ele>223.5</ele><time>2026-04-23T11:06:19.886Z</time></trkpt><trkpt lat="43.2036845" lon="13.2956992"><ele>222.0</ele><time>2026-04-23T11:06:20.885Z</time></trkpt><trkpt lat="43.2037557" lon="13.2955514"><ele>222.0</ele><time>2026-04-23T11:06:21.885Z</time></trkpt><trkpt lat="43.2038183" lon="13.2954146"><ele>222.0</ele><time>2026-04-23T11:06:22.886Z</time></trkpt><trkpt lat="43.203885" lon="13.2952954"><ele>222.0</ele><time>2026-04-23T11:06:23.885Z</time></trkpt><trkpt lat="43.203938" lon="13.2951714"><ele>222.0</ele><time>2026-04-23T11:06:24.887Z</time></trkpt><trkpt lat="43.2039573" lon="13.2950476"><ele>222.0</ele><time>2026-04-23T11:06:25.887Z</time></trkpt><trkpt lat="43.2039744" lon="13.2949271"><ele>222.0</ele><time>2026-04-23T11:06:26.886Z</time></trkpt><trkpt lat="43.2039797" lon="13.2948176"><ele>222.0</ele><time>2026-04-23T11:06:27.885Z</time></trkpt><trkpt lat="43.2039863" lon="13.294705"><ele>222.0</ele><time>2026-04-23T11:06:28.885Z</time></trkpt><trkpt lat="43.2039937" lon="13.2945704"><ele>222.0</ele><time>2026-04-23T11:06:29.886Z</time></trkpt><trkpt lat="43.2039941" lon="13.2944341"><ele>222.0</ele><time>2026-04-23T11:06:30.885Z</time></trkpt><trkpt lat="43.2039889" lon="13.2942599"><ele>222.5</ele><time>2026-04-23T11:06:31.886Z</time></trkpt><trkpt lat="43.2039809" lon="13.2940779"><ele>223.0</ele><time>2026-04-23T11:06:32.885Z</time></trkpt><trkpt lat="43.2039709" lon="13.2938744"><ele>223.5</ele><time>2026-04-23T11:06:33.885Z</time></trkpt><trkpt lat="43.2039757" lon="13.2936645"><ele>224.0</ele><time>2026-04-23T11:06:34.887Z</time></trkpt><trkpt lat="43.203987" lon="13.293436"><ele>224.33333333333334</ele><time>2026-04-23T11:06:35.886Z</time></trkpt><trkpt lat="43.2039938" lon="13.2932076"><ele>224.66666666666669</ele><time>2026-04-23T11:06:36.886Z</time></trkpt><trkpt lat="43.2040015" lon="13.2929705"><ele>225.0</ele><time>2026-04-23T11:06:37.886Z</time></trkpt><trkpt lat="43.2040083" lon="13.292738"><ele>223.0</ele><time>2026-04-23T11:06:38.886Z</time></trkpt><trkpt lat="43.2040184" lon="13.2924996"><ele>221.0</ele><time>2026-04-23T11:06:39.885Z</time></trkpt><trkpt lat="43.2040271" lon="13.2922648"><ele>219.0</ele><time>2026-04-23T11:06:40.887Z</time></trkpt><trkpt lat="43.2040375" lon="13.2920518"><ele>219.0</ele><time>2026-04-23T11:06:41.885Z</time></trkpt><trkpt lat="43.2040396" lon="13.2918408"><ele>219.0</ele><time>2026-04-23T11:06:42.886Z</time></trkpt><trkpt lat="43.2040468" lon="13.2916415"><ele>219.0</ele><time>2026-04-23T11:06:43.886Z</time></trkpt><trkpt lat="43.2040533" lon="13.2914451"><ele>219.0</ele><time>2026-04-23T11:06:44.886Z</time></trkpt><trkpt lat="43.2040498" lon="13.2912493"><ele>218.5</ele><time>2026-04-23T11:06:45.885Z</time></trkpt><trkpt lat="43.2040346" lon="13.2910541"><ele>218.0</ele><time>2026-04-23T11:06:46.886Z</time></trkpt><trkpt lat="43.2040105" lon="13.2908587"><ele>217.5</ele><time>2026-04-23T11:06:47.885Z</time></trkpt><trkpt lat="43.203981" lon="13.290671"><ele>217.0</ele><time>2026-04-23T11:06:48.886Z</time></trkpt><trkpt lat="43.2039617" lon="13.2905164"><ele>217.0</ele><time>2026-04-23T11:06:49.885Z</time></trkpt><trkpt lat="43.2039471" lon="13.2903864"><ele>217.0</ele><time>2026-04-23T11:06:50.887Z</time></trkpt><trkpt lat="43.2039368" lon="13.2902972"><ele>217.0</ele><time>2026-04-23T11:06:51.886Z</time></trkpt><trkpt lat="43.2039439" lon="13.2901684"><ele>217.0</ele><time>2026-04-23T11:06:55.887Z</time></trkpt><trkpt lat="43.2040356" lon="13.2900251"><ele>217.0</ele><time>2026-04-23T11:06:57.887Z</time></trkpt><trkpt lat="43.2041121" lon="13.289936"><ele>217.0</ele><time>2026-04-23T11:06:58.886Z</time></trkpt><trkpt lat="43.2041966" lon="13.2898271"><ele>217.0</ele><time>2026-04-23T11:06:59.886Z</time></trkpt><trkpt lat="43.2042883" lon="13.2896997"><ele>217.0</ele><time>2026-04-23T11:07:00.886Z</time></trkpt><trkpt lat="43.2044003" lon="13.2895584"><ele>217.0</ele><time>2026-04-23T11:07:01.886Z</time></trkpt><trkpt lat="43.2045036" lon="13.2894284"><ele>218.0</ele><time>2026-04-23T11:07:02.888Z</time></trkpt><trkpt lat="43.2046064" lon="13.2893022"><ele>219.0</ele><time>2026-04-23T11:07:03.886Z</time></trkpt><trkpt lat="43.2046996" lon="13.2891777"><ele>220.0</ele><time>2026-04-23T11:07:04.886Z</time></trkpt><trkpt lat="43.2047816" lon="13.2890368"><ele>221.0</ele><time>2026-04-23T11:07:05.886Z</time></trkpt><trkpt lat="43.2048531" lon="13.2888927"><ele>218.0</ele><time>2026-04-23T11:07:06.888Z</time></trkpt><trkpt lat="43.2049131" lon="13.2887562"><ele>215.00000000000003</ele><time>2026-04-23T11:07:07.885Z</time></trkpt><trkpt lat="43.2049404" lon="13.2886215"><ele>212.0</ele><time>2026-04-23T11:07:08.887Z</time></trkpt><trkpt lat="43.2049647" lon="13.2884905"><ele>209.0</ele><time>2026-04-23T11:07:09.886Z</time></trkpt><trkpt lat="43.2049754" lon="13.2883543"><ele>206.0</ele><time>2026-04-23T11:07:10.886Z</time></trkpt><trkpt lat="43.2049868" lon="13.2882153"><ele>206.0</ele><time>2026-04-23T11:07:11.886Z</time></trkpt><trkpt lat="43.2049997" lon="13.2880647"><ele>206.0</ele><time>2026-04-23T11:07:12.886Z</time></trkpt><trkpt lat="43.2050192" lon="13.287928"><ele>206.0</ele><time>2026-04-23T11:07:13.887Z</time></trkpt><trkpt lat="43.205022" lon="13.2877675"><ele>206.0</ele><time>2026-04-23T11:07:14.886Z</time></trkpt><trkpt lat="43.2050318" lon="13.2876135"><ele>206.0</ele><time>2026-04-23T11:07:15.887Z</time></trkpt><trkpt lat="43.2050393" lon="13.2874674"><ele>206.0</ele><time>2026-04-23T11:07:16.886Z</time></trkpt><trkpt lat="43.2050446" lon="13.2873232"><ele>206.0</ele><time>2026-04-23T11:07:17.886Z</time></trkpt><trkpt lat="43.205061" lon="13.2871845"><ele>206.0</ele><time>2026-04-23T11:07:18.885Z</time></trkpt><trkpt lat="43.2050733" lon="13.287064"><ele>206.0</ele><time>2026-04-23T11:07:19.886Z</time></trkpt><trkpt lat="43.2050772" lon="13.2869543"><ele>206.0</ele><time>2026-04-23T11:07:20.886Z</time></trkpt><trkpt lat="43.2050792" lon="13.2868463"><ele>206.00000000000003</ele><time>2026-04-23T11:07:21.885Z</time></trkpt><trkpt lat="43.2050756" lon="13.2867525"><ele>206.0</ele><time>2026-04-23T11:07:22.886Z</time></trkpt><trkpt lat="43.2050886" lon="13.2866123"><ele>206.0</ele><time>2026-04-23T11:07:24.885Z</time></trkpt><trkpt lat="43.2051213" lon="13.2864954"><ele>206.0</ele><time>2026-04-23T11:07:30.886Z</time></trkpt><trkpt lat="43.2051875" lon="13.2864363"><ele>206.00000000000003</ele><time>2026-04-23T11:07:32.887Z</time></trkpt><trkpt lat="43.2052749" lon="13.286398"><ele>206.0</ele><time>2026-04-23T11:07:34.885Z</time></trkpt><trkpt lat="43.2053888" lon="13.2863552"><ele>205.16666666666669</ele><time>2026-04-23T11:07:36.886Z</time></trkpt><trkpt lat="43.2054548" lon="13.2863365"><ele>204.33333333333334</ele><time>2026-04-23T11:07:37.887Z</time></trkpt><trkpt lat="43.2055297" lon="13.2863123"><ele>203.5</ele><time>2026-04-23T11:07:38.887Z</time></trkpt><trkpt lat="43.2056127" lon="13.286291"><ele>202.66666666666669</ele><time>2026-04-23T11:07:39.886Z</time></trkpt><trkpt lat="43.2056904" lon="13.2862677"><ele>201.83333333333334</ele><time>2026-04-23T11:07:40.885Z</time></trkpt><trkpt lat="43.2057723" lon="13.2862369"><ele>201.0</ele><time>2026-04-23T11:07:41.887Z</time></trkpt><trkpt lat="43.2058511" lon="13.286213"><ele>200.4</ele><time>2026-04-23T11:07:42.887Z</time></trkpt><trkpt lat="43.2059368" lon="13.2861932"><ele>199.8</ele><time>2026-04-23T11:07:43.886Z</time></trkpt><trkpt lat="43.2060189" lon="13.2861677"><ele>199.20000000000002</ele><time>2026-04-23T11:07:44.887Z</time></trkpt><trkpt lat="43.2060808" lon="13.2861456"><ele>198.60000000000002</ele><time>2026-04-23T11:07:45.885Z</time></trkpt><trkpt lat="43.2061988" lon="13.286117"><ele>198.0</ele><time>2026-04-23T11:07:47.886Z</time></trkpt><trkpt lat="43.2063073" lon="13.2860643"><ele>198.0</ele><time>2026-04-23T11:07:49.886Z</time></trkpt><trkpt lat="43.2063811" lon="13.2860343"><ele>198.0</ele><time>2026-04-23T11:07:51.885Z</time></trkpt><trkpt lat="43.2064658" lon="13.2860217"><ele>198.0</ele><time>2026-04-23T11:07:54.887Z</time></trkpt><trkpt lat="43.206564" lon="13.2860069"><ele>198.0</ele><time>2026-04-23T11:07:58.886Z</time></trkpt><trkpt lat="43.2066412" lon="13.2860155"><ele>198.0</ele><time>2026-04-23T11:08:00.885Z</time></trkpt><trkpt lat="43.2067102" lon="13.2859551"><ele>198.0</ele><time>2026-04-23T11:08:02.885Z</time></trkpt><trkpt lat="43.2067752" lon="13.285869"><ele>199.60000000000002</ele><time>2026-04-23T11:08:05.887Z</time></trkpt><trkpt lat="43.2068253" lon="13.2857391"><ele>201.20000000000002</ele><time>2026-04-23T11:08:07.887Z</time></trkpt><trkpt lat="43.2068241" lon="13.2856383"><ele>202.8</ele><time>2026-04-23T11:08:08.887Z</time></trkpt><trkpt lat="43.2068154" lon="13.285513"><ele>204.4</ele><time>2026-04-23T11:08:09.886Z</time></trkpt><trkpt lat="43.2068108" lon="13.2853698"><ele>206.0</ele><time>2026-04-23T11:08:10.885Z</time></trkpt><trkpt lat="43.2068103" lon="13.285224"><ele>206.20000000000002</ele><time>2026-04-23T11:08:11.885Z</time></trkpt><trkpt lat="43.206821" lon="13.2850662"><ele>206.4</ele><time>2026-04-23T11:08:12.885Z</time></trkpt><trkpt lat="43.2068325" lon="13.2849124"><ele>206.6</ele><time>2026-04-23T11:08:13.885Z</time></trkpt><trkpt lat="43.206849" lon="13.284756"><ele>206.8</ele><time>2026-04-23T11:08:14.885Z</time></trkpt><trkpt lat="43.2068794" lon="13.2846187"><ele>207.0</ele><time>2026-04-23T11:08:15.887Z</time></trkpt><trkpt lat="43.206932" lon="13.2844874"><ele>205.75</ele><time>2026-04-23T11:08:16.885Z</time></trkpt><trkpt lat="43.2069855" lon="13.2843534"><ele>204.5</ele><time>2026-04-23T11:08:17.886Z</time></trkpt><trkpt lat="43.20706" lon="13.2842094"><ele>203.25</ele><time>2026-04-23T11:08:18.885Z</time></trkpt><trkpt lat="43.2071349" lon="13.2840654"><ele>202.0</ele><time>2026-04-23T11:08:19.886Z</time></trkpt><trkpt lat="43.2072054" lon="13.2839233"><ele>201.2</ele><time>2026-04-23T11:08:20.887Z</time></trkpt><trkpt lat="43.2072769" lon="13.2838099"><ele>200.39999999999998</ele><time>2026-04-23T11:08:21.886Z</time></trkpt><trkpt lat="43.2073495" lon="13.2836979"><ele>199.60000000000002</ele><time>2026-04-23T11:08:22.886Z</time></trkpt><trkpt lat="43.2074232" lon="13.2836112"><ele>198.8</ele><time>2026-04-23T11:08:23.886Z</time></trkpt><trkpt lat="43.2074839" lon="13.2835189"><ele>198.0</ele><time>2026-04-23T11:08:24.886Z</time></trkpt><trkpt lat="43.2075374" lon="13.2834014"><ele>198.8</ele><time>2026-04-23T11:08:25.886Z</time></trkpt><trkpt lat="43.2075823" lon="13.2832898"><ele>199.60000000000002</ele><time>2026-04-23T11:08:26.887Z</time></trkpt><trkpt lat="43.207637" lon="13.2831875"><ele>200.39999999999998</ele><time>2026-04-23T11:08:27.886Z</time></trkpt><trkpt lat="43.207697" lon="13.2830971"><ele>201.2</ele><time>2026-04-23T11:08:28.885Z</time></trkpt><trkpt lat="43.2077746" lon="13.2830128"><ele>202.0</ele><time>2026-04-23T11:08:29.886Z</time></trkpt><trkpt lat="43.2078503" lon="13.2829386"><ele>202.0</ele><time>2026-04-23T11:08:30.887Z</time></trkpt><trkpt lat="43.2079183" lon="13.2828462"><ele>202.0</ele><time>2026-04-23T11:08:31.887Z</time></trkpt><trkpt lat="43.2079835" lon="13.2827484"><ele>202.0</ele><time>2026-04-23T11:08:32.887Z</time></trkpt><trkpt lat="43.2080346" lon="13.2826465"><ele>202.0</ele><time>2026-04-23T11:08:33.886Z</time></trkpt><trkpt lat="43.2080661" lon="13.2825202"><ele>202.0</ele><time>2026-04-23T11:08:34.885Z</time></trkpt><trkpt lat="43.2081046" lon="13.2823945"><ele>202.0</ele><time>2026-04-23T11:08:35.886Z</time></trkpt><trkpt lat="43.2081469" lon="13.2822707"><ele>202.0</ele><time>2026-04-23T11:08:36.887Z</time></trkpt><trkpt lat="43.2082049" lon="13.2821398"><ele>202.0</ele><time>2026-04-23T11:08:37.887Z</time></trkpt><trkpt lat="43.2082556" lon="13.2820025"><ele>202.0</ele><time>2026-04-23T11:08:38.885Z</time></trkpt><trkpt lat="43.2083019" lon="13.281882"><ele>202.0</ele><time>2026-04-23T11:08:39.886Z</time></trkpt><trkpt lat="43.2083437" lon="13.2817616"><ele>202.39999999999998</ele><time>2026-04-23T11:08:40.887Z</time></trkpt><trkpt lat="43.2083605" lon="13.2816286"><ele>202.79999999999998</ele><time>2026-04-23T11:08:41.885Z</time></trkpt><trkpt lat="43.2083837" lon="13.2814963"><ele>203.2</ele><time>2026-04-23T11:08:42.885Z</time></trkpt><trkpt lat="43.2083685" lon="13.2813494"><ele>203.6</ele><time>2026-04-23T11:08:43.888Z</time></trkpt><trkpt lat="43.2083497" lon="13.2811881"><ele>204.0</ele><time>2026-04-23T11:08:44.886Z</time></trkpt><trkpt lat="43.2083276" lon="13.2810148"><ele>204.0</ele><time>2026-04-23T11:08:45.886Z</time></trkpt><trkpt lat="43.208307" lon="13.2808415"><ele>204.0</ele><time>2026-04-23T11:08:46.886Z</time></trkpt><trkpt lat="43.2082944" lon="13.2806711"><ele>204.0</ele><time>2026-04-23T11:08:47.885Z</time></trkpt><trkpt lat="43.2082835" lon="13.2805041"><ele>204.0</ele><time>2026-04-23T11:08:48.885Z</time></trkpt><trkpt lat="43.208272" lon="13.2803392"><ele>205.2</ele><time>2026-04-23T11:08:49.887Z</time></trkpt><trkpt lat="43.2082533" lon="13.2801982"><ele>206.39999999999998</ele><time>2026-04-23T11:08:50.887Z</time></trkpt><trkpt lat="43.2082639" lon="13.2800479"><ele>207.6</ele><time>2026-04-23T11:08:52.887Z</time></trkpt><trkpt lat="43.2083607" lon="13.2800122"><ele>208.8</ele><time>2026-04-23T11:08:54.886Z</time></trkpt><trkpt lat="43.2084082" lon="13.2800816"><ele>210.0</ele><time>2026-04-23T11:08:55.886Z</time></trkpt><trkpt lat="43.2084528" lon="13.2801648"><ele>210.0</ele><time>2026-04-23T11:08:56.885Z</time></trkpt><trkpt lat="43.2085076" lon="13.2802466"><ele>210.0</ele><time>2026-04-23T11:08:57.886Z</time></trkpt><trkpt lat="43.2085736" lon="13.2803454"><ele>210.0</ele><time>2026-04-23T11:08:58.887Z</time></trkpt><trkpt lat="43.2086313" lon="13.2804404"><ele>210.0</ele><time>2026-04-23T11:08:59.887Z</time></trkpt><trkpt lat="43.2086875" lon="13.2805142"><ele>210.0</ele><time>2026-04-23T11:09:00.887Z</time></trkpt><trkpt lat="43.2087433" lon="13.2805836"><ele>210.0</ele><time>2026-04-23T11:09:01.886Z</time></trkpt><trkpt lat="43.2087922" lon="13.2806633"><ele>209.0</ele><time>2026-04-23T11:09:02.886Z</time></trkpt><trkpt lat="43.2088359" lon="13.2807578"><ele>208.0</ele><time>2026-04-23T11:09:03.886Z</time></trkpt><trkpt lat="43.2088875" lon="13.2808508"><ele>207.0</ele><time>2026-04-23T11:09:04.885Z</time></trkpt><trkpt lat="43.2089334" lon="13.2809388"><ele>206.0</ele><time>2026-04-23T11:09:05.887Z</time></trkpt><trkpt lat="43.208976" lon="13.2810042"><ele>205.0</ele><time>2026-04-23T11:09:06.886Z</time></trkpt><trkpt lat="43.2090344" lon="13.2810912"><ele>204.0</ele><time>2026-04-23T11:09:08.885Z</time></trkpt><trkpt lat="43.2090748" lon="13.2812031"><ele>204.0</ele><time>2026-04-23T11:09:11.885Z</time></trkpt><trkpt lat="43.2090877" lon="13.2813173"><ele>204.0</ele><time>2026-04-23T11:09:14.887Z</time></trkpt><trkpt lat="43.2091073" lon="13.2811923"><ele>204.0</ele><time>2026-04-23T11:09:18.886Z</time></trkpt><trkpt lat="43.2090691" lon="13.2811101"><ele>204.0</ele><time>2026-04-23T11:09:20.886Z</time></trkpt><trkpt lat="43.208998" lon="13.2810287"><ele>204.0</ele><time>2026-04-23T11:09:23.886Z</time></trkpt><trkpt lat="43.2089482" lon="13.2809729"><ele>204.0</ele><time>2026-04-23T11:09:25.885Z</time></trkpt><trkpt lat="43.2088994" lon="13.2808912"><ele>204.0</ele><time>2026-04-23T11:09:27.885Z</time></trkpt><trkpt lat="43.2088396" lon="13.2807763"><ele>204.0</ele><time>2026-04-23T11:09:29.887Z</time></trkpt><trkpt lat="43.2087812" lon="13.2806595"><ele>204.0</ele><time>2026-04-23T11:09:31.885Z</time></trkpt><trkpt lat="43.208716" lon="13.2805562"><ele>204.0</ele><time>2026-04-23T11:09:33.885Z</time></trkpt><trkpt lat="43.2086341" lon="13.2804673"><ele>204.0</ele><time>2026-04-23T11:09:35.887Z</time></trkpt><trkpt lat="43.2085577" lon="13.2803432"><ele>205.0</ele><time>2026-04-23T11:09:37.885Z</time></trkpt><trkpt lat="43.2084892" lon="13.2802301"><ele>206.0</ele><time>2026-04-23T11:09:39.886Z</time></trkpt><trkpt lat="43.2084352" lon="13.2801298"><ele>207.0</ele><time>2026-04-23T11:09:41.886Z</time></trkpt><trkpt lat="43.2083846" lon="13.2800542"><ele>208.0</ele><time>2026-04-23T11:09:43.887Z</time></trkpt><trkpt lat="43.2083055" lon="13.2800498"><ele>209.0</ele><time>2026-04-23T11:10:20.886Z</time></trkpt><trkpt lat="43.208236" lon="13.2801281"><ele>210.0</ele><time>2026-04-23T11:10:23.887Z</time></trkpt><trkpt lat="43.2082409" lon="13.2802395"><ele>210.0</ele><time>2026-04-23T11:10:25.886Z</time></trkpt><trkpt lat="43.2082672" lon="13.2803352"><ele>210.0</ele><time>2026-04-23T11:10:26.887Z</time></trkpt><trkpt lat="43.2082688" lon="13.280484"><ele>210.0</ele><time>2026-04-23T11:10:28.886Z</time></trkpt><trkpt lat="43.2082682" lon="13.2805713"><ele>210.0</ele><time>2026-04-23T11:10:30.886Z</time></trkpt><trkpt lat="43.2082735" lon="13.2806582"><ele>210.0</ele><time>2026-04-23T11:10:34.887Z</time></trkpt><trkpt lat="43.2082806" lon="13.2807446"><ele>210.0</ele><time>2026-04-23T11:10:36.888Z</time></trkpt><trkpt lat="43.2082992" lon="13.2808395"><ele>210.0</ele><time>2026-04-23T11:10:37.886Z</time></trkpt><trkpt lat="43.2083125" lon="13.2809426"><ele>209.57142857142858</ele><time>2026-04-23T11:10:38.886Z</time></trkpt><trkpt lat="43.2083219" lon="13.2810453"><ele>209.14285714285714</ele><time>2026-04-23T11:10:39.886Z</time></trkpt><trkpt lat="43.2083319" lon="13.281144"><ele>208.71428571428572</ele><time>2026-04-23T11:10:40.886Z</time></trkpt><trkpt lat="43.208349" lon="13.281262"><ele>208.28571428571428</ele><time>2026-04-23T11:10:41.886Z</time></trkpt><trkpt lat="43.2083591" lon="13.2813678"><ele>207.85714285714286</ele><time>2026-04-23T11:10:42.886Z</time></trkpt><trkpt lat="43.2083705" lon="13.28146"><ele>207.42857142857144</ele><time>2026-04-23T11:10:43.887Z</time></trkpt><trkpt lat="43.2083708" lon="13.2815514"><ele>207.0</ele><time>2026-04-23T11:10:44.885Z</time></trkpt><trkpt lat="43.2083529" lon="13.2816753"><ele>207.0</ele><time>2026-04-23T11:10:46.888Z</time></trkpt><trkpt lat="43.2084225" lon="13.281735"><ele>207.0</ele><time>2026-04-23T11:10:48.886Z</time></trkpt><trkpt lat="43.2085391" lon="13.2817231"><ele>207.0</ele><time>2026-04-23T11:10:50.886Z</time></trkpt><trkpt lat="43.208596" lon="13.2816613"><ele>207.0</ele><time>2026-04-23T11:10:51.886Z</time></trkpt><trkpt lat="43.2086821" lon="13.2816368"><ele>207.0</ele><time>2026-04-23T11:10:53.886Z</time></trkpt><trkpt lat="43.2086737" lon="13.2817804"><ele>207.0</ele><time>2026-04-23T11:10:55.886Z</time></trkpt><trkpt lat="43.2086169" lon="13.2819498"><ele>207.0</ele><time>2026-04-23T11:10:57.886Z</time></trkpt><trkpt lat="43.2085872" lon="13.2820514"><ele>207.0</ele><time>2026-04-23T11:10:58.886Z</time></trkpt><trkpt lat="43.2085537" lon="13.2821429"><ele>207.0</ele><time>2026-04-23T11:11:00.885Z</time></trkpt><trkpt lat="43.2085255" lon="13.2822828"><ele>207.0</ele><time>2026-04-23T11:11:03.886Z</time></trkpt><trkpt lat="43.2084668" lon="13.2823774"><ele>208.25</ele><time>2026-04-23T11:11:04.886Z</time></trkpt><trkpt lat="43.2083969" lon="13.2824829"><ele>209.5</ele><time>2026-04-23T11:11:05.886Z</time></trkpt><trkpt lat="43.2083008" lon="13.2825978"><ele>210.75</ele><time>2026-04-23T11:11:06.887Z</time></trkpt><trkpt lat="43.2082002" lon="13.2827171"><ele>212.0</ele><time>2026-04-23T11:11:07.885Z</time></trkpt><trkpt lat="43.2080999" lon="13.2828369"><ele>211.25</ele><time>2026-04-23T11:11:08.886Z</time></trkpt><trkpt lat="43.2080037" lon="13.2829416"><ele>210.5</ele><time>2026-04-23T11:11:09.886Z</time></trkpt><trkpt lat="43.2079073" lon="13.2830427"><ele>209.75</ele><time>2026-04-23T11:11:10.886Z</time></trkpt><trkpt lat="43.2078125" lon="13.2831581"><ele>209.0</ele><time>2026-04-23T11:11:11.886Z</time></trkpt><trkpt lat="43.2077171" lon="13.2832666"><ele>209.0</ele><time>2026-04-23T11:11:12.885Z</time></trkpt><trkpt lat="43.2076066" lon="13.2833727"><ele>209.0</ele><time>2026-04-23T11:11:13.888Z</time></trkpt><trkpt lat="43.2074877" lon="13.2835044"><ele>209.0</ele><time>2026-04-23T11:11:14.886Z</time></trkpt><trkpt lat="43.2073814" lon="13.283628"><ele>209.0</ele><time>2026-04-23T11:11:15.885Z</time></trkpt><trkpt lat="43.2072879" lon="13.2837616"><ele>207.25</ele><time>2026-04-23T11:11:16.885Z</time></trkpt><trkpt lat="43.2072024" lon="13.2839015"><ele>205.5</ele><time>2026-04-23T11:11:17.886Z</time></trkpt><trkpt lat="43.2071186" lon="13.2840314"><ele>203.75</ele><time>2026-04-23T11:11:18.887Z</time></trkpt><trkpt lat="43.2070494" lon="13.2841601"><ele>202.0</ele><time>2026-04-23T11:11:19.885Z</time></trkpt><trkpt lat="43.2069955" lon="13.2842819"><ele>202.0</ele><time>2026-04-23T11:11:20.886Z</time></trkpt><trkpt lat="43.2069428" lon="13.2844035"><ele>202.0</ele><time>2026-04-23T11:11:21.885Z</time></trkpt><trkpt lat="43.2068959" lon="13.2845215"><ele>202.0</ele><time>2026-04-23T11:11:22.887Z</time></trkpt><trkpt lat="43.2068582" lon="13.2846344"><ele>202.0</ele><time>2026-04-23T11:11:23.886Z</time></trkpt><trkpt lat="43.206826" lon="13.2847404"><ele>202.0</ele><time>2026-04-23T11:11:24.885Z</time></trkpt><trkpt lat="43.2067905" lon="13.2848396"><ele>202.71428571428572</ele><time>2026-04-23T11:11:25.885Z</time></trkpt><trkpt lat="43.2067747" lon="13.2849422"><ele>203.42857142857142</ele><time>2026-04-23T11:11:26.886Z</time></trkpt><trkpt lat="43.2067599" lon="13.285044"><ele>204.14285714285717</ele><time>2026-04-23T11:11:27.885Z</time></trkpt><trkpt lat="43.2067512" lon="13.2851446"><ele>204.85714285714286</ele><time>2026-04-23T11:11:28.886Z</time></trkpt><trkpt lat="43.2067477" lon="13.2852445"><ele>205.57142857142858</ele><time>2026-04-23T11:11:29.886Z</time></trkpt><trkpt lat="43.2067404" lon="13.2853446"><ele>206.2857142857143</ele><time>2026-04-23T11:11:30.885Z</time></trkpt><trkpt lat="43.2067323" lon="13.2854433"><ele>207.0</ele><time>2026-04-23T11:11:31.885Z</time></trkpt><trkpt lat="43.2067318" lon="13.2855375"><ele>206.8</ele><time>2026-04-23T11:11:32.885Z</time></trkpt><trkpt lat="43.2067341" lon="13.2856383"><ele>206.6</ele><time>2026-04-23T11:11:33.886Z</time></trkpt><trkpt lat="43.2067597" lon="13.2857551"><ele>206.4</ele><time>2026-04-23T11:11:34.885Z</time></trkpt><trkpt lat="43.2067906" lon="13.285878"><ele>206.20000000000002</ele><time>2026-04-23T11:11:35.887Z</time></trkpt><trkpt lat="43.2068671" lon="13.2860027"><ele>206.0</ele><time>2026-04-23T11:11:36.887Z</time></trkpt><trkpt lat="43.2069336" lon="13.2861322"><ele>206.0</ele><time>2026-04-23T11:11:37.887Z</time></trkpt><trkpt lat="43.2070175" lon="13.2862622"><ele>206.0</ele><time>2026-04-23T11:11:38.886Z</time></trkpt><trkpt lat="43.2071066" lon="13.2863994"><ele>206.0</ele><time>2026-04-23T11:11:39.886Z</time></trkpt><trkpt lat="43.2071979" lon="13.2865417"><ele>206.0</ele><time>2026-04-23T11:11:40.886Z</time></trkpt><trkpt lat="43.207295" lon="13.2866811"><ele>208.0</ele><time>2026-04-23T11:11:41.885Z</time></trkpt><trkpt lat="43.2073866" lon="13.2868119"><ele>210.0</ele><time>2026-04-23T11:11:42.886Z</time></trkpt><trkpt lat="43.2074862" lon="13.2869393"><ele>212.0</ele><time>2026-04-23T11:11:43.886Z</time></trkpt><trkpt lat="43.2075784" lon="13.2870476"><ele>214.0</ele><time>2026-04-23T11:11:44.887Z</time></trkpt><trkpt lat="43.207665" lon="13.2871458"><ele>214.0</ele><time>2026-04-23T11:11:45.886Z</time></trkpt><trkpt lat="43.2077301" lon="13.287227"><ele>213.99999999999997</ele><time>2026-04-23T11:11:46.885Z</time></trkpt><trkpt lat="43.2078088" lon="13.2872929"><ele>213.99999999999997</ele><time>2026-04-23T11:11:47.885Z</time></trkpt><trkpt lat="43.20791" lon="13.2873092"><ele>214.0</ele><time>2026-04-23T11:11:48.886Z</time></trkpt><trkpt lat="43.2080159" lon="13.2873397"><ele>214.0</ele><time>2026-04-23T11:11:49.886Z</time></trkpt><trkpt lat="43.2081282" lon="13.2873707"><ele>213.75</ele><time>2026-04-23T11:11:50.885Z</time></trkpt><trkpt lat="43.2082511" lon="13.2873979"><ele>213.5</ele><time>2026-04-23T11:11:51.887Z</time></trkpt><trkpt lat="43.2083807" lon="13.2874444"><ele>213.25</ele><time>2026-04-23T11:11:52.887Z</time></trkpt><trkpt lat="43.2085011" lon="13.287495"><ele>213.0</ele><time>2026-04-23T11:11:53.887Z</time></trkpt><trkpt lat="43.2085996" lon="13.2875655"><ele>213.0</ele><time>2026-04-23T11:11:54.886Z</time></trkpt><trkpt lat="43.2086913" lon="13.2876327"><ele>213.0</ele><time>2026-04-23T11:11:55.887Z</time></trkpt><trkpt lat="43.2087801" lon="13.2876882"><ele>213.0</ele><time>2026-04-23T11:11:56.887Z</time></trkpt><trkpt lat="43.2088635" lon="13.287723"><ele>213.0</ele><time>2026-04-23T11:11:57.886Z</time></trkpt><trkpt lat="43.2089328" lon="13.2877684"><ele>213.0</ele><time>2026-04-23T11:11:58.886Z</time></trkpt><trkpt lat="43.2090538" lon="13.2878105"><ele>213.16666666666666</ele><time>2026-04-23T11:12:00.885Z</time></trkpt><trkpt lat="43.2091588" lon="13.2878781"><ele>213.33333333333331</ele><time>2026-04-23T11:12:02.886Z</time></trkpt><trkpt lat="43.2091954" lon="13.2879747"><ele>213.5</ele><time>2026-04-23T11:12:03.886Z</time></trkpt><trkpt lat="43.2092364" lon="13.2880649"><ele>213.66666666666666</ele><time>2026-04-23T11:12:04.885Z</time></trkpt><trkpt lat="43.2092849" lon="13.2881589"><ele>213.83333333333331</ele><time>2026-04-23T11:12:05.885Z</time></trkpt><trkpt lat="43.20933" lon="13.28824"><ele>214.0</ele><time>2026-04-23T11:12:06.887Z</time></trkpt><trkpt lat="43.209372" lon="13.2883306"><ele>214.0</ele><time>2026-04-23T11:12:07.886Z</time></trkpt><trkpt lat="43.2094095" lon="13.2884189"><ele>213.99999999999997</ele><time>2026-04-23T11:12:08.886Z</time></trkpt><trkpt lat="43.209445" lon="13.2884976"><ele>213.99999999999997</ele><time>2026-04-23T11:12:09.887Z</time></trkpt><trkpt lat="43.209549" lon="13.2885833"><ele>214.0</ele><time>2026-04-23T11:12:11.885Z</time></trkpt><trkpt lat="43.2096028" lon="13.2884971"><ele>214.0</ele><time>2026-04-23T11:12:14.886Z</time></trkpt><trkpt lat="43.2095558" lon="13.288342"><ele>214.0</ele><time>2026-04-23T11:12:16.888Z</time></trkpt><trkpt lat="43.2095067" lon="13.2882548"><ele>213.99999999999997</ele><time>2026-04-23T11:12:17.885Z</time></trkpt><trkpt lat="43.2094526" lon="13.2881565"><ele>213.99999999999997</ele><time>2026-04-23T11:12:18.885Z</time></trkpt><trkpt lat="43.209411" lon="13.2880261"><ele>214.0</ele><time>2026-04-23T11:12:19.885Z</time></trkpt><trkpt lat="43.2093734" lon="13.2878918"><ele>214.0</ele><time>2026-04-23T11:12:20.886Z</time></trkpt><trkpt lat="43.2093477" lon="13.2877571"><ele>216.2</ele><time>2026-04-23T11:12:21.886Z</time></trkpt><trkpt lat="43.2093217" lon="13.28762"><ele>218.39999999999998</ele><time>2026-04-23T11:12:22.886Z</time></trkpt><trkpt lat="43.2092941" lon="13.2874856"><ele>220.6</ele><time>2026-04-23T11:12:23.885Z</time></trkpt><trkpt lat="43.2092747" lon="13.2873472"><ele>222.8</ele><time>2026-04-23T11:12:24.885Z</time></trkpt><trkpt lat="43.2092496" lon="13.2872174"><ele>225.0</ele><time>2026-04-23T11:12:25.886Z</time></trkpt><trkpt lat="43.2092375" lon="13.2870938"><ele>225.4</ele><time>2026-04-23T11:12:26.886Z</time></trkpt><trkpt lat="43.2092256" lon="13.2869689"><ele>225.8</ele><time>2026-04-23T11:12:27.886Z</time></trkpt><trkpt lat="43.2092053" lon="13.2868371"><ele>226.2</ele><time>2026-04-23T11:12:28.886Z</time></trkpt><trkpt lat="43.2091806" lon="13.2867027"><ele>226.6</ele><time>2026-04-23T11:12:29.885Z</time></trkpt><trkpt lat="43.2091569" lon="13.2865622"><ele>227.0</ele><time>2026-04-23T11:12:30.886Z</time></trkpt><trkpt lat="43.2091332" lon="13.286418"><ele>227.2</ele><time>2026-04-23T11:12:31.885Z</time></trkpt><trkpt lat="43.2091019" lon="13.2862737"><ele>227.39999999999998</ele><time>2026-04-23T11:12:32.886Z</time></trkpt><trkpt lat="43.2090748" lon="13.2861318"><ele>227.60000000000002</ele><time>2026-04-23T11:12:33.886Z</time></trkpt><trkpt lat="43.209041" lon="13.2859904"><ele>227.8</ele><time>2026-04-23T11:12:34.886Z</time></trkpt><trkpt lat="43.2090092" lon="13.2858444"><ele>228.0</ele><time>2026-04-23T11:12:35.886Z</time></trkpt><trkpt lat="43.2089716" lon="13.2857032"><ele>227.4</ele><time>2026-04-23T11:12:36.885Z</time></trkpt><trkpt lat="43.2089415" lon="13.285572"><ele>226.8</ele><time>2026-04-23T11:12:37.885Z</time></trkpt><trkpt lat="43.208913" lon="13.2854416"><ele>226.2</ele><time>2026-04-23T11:12:38.887Z</time></trkpt><trkpt lat="43.2088745" lon="13.2853155"><ele>225.6</ele><time>2026-04-23T11:12:39.885Z</time></trkpt><trkpt lat="43.2088391" lon="13.2851895"><ele>225.0</ele><time>2026-04-23T11:12:40.885Z</time></trkpt><trkpt lat="43.2088053" lon="13.2850565"><ele>225.0</ele><time>2026-04-23T11:12:41.887Z</time></trkpt><trkpt lat="43.2087611" lon="13.2849283"><ele>225.0</ele><time>2026-04-23T11:12:42.886Z</time></trkpt><trkpt lat="43.2087077" lon="13.2847996"><ele>225.0</ele><time>2026-04-23T11:12:43.886Z</time></trkpt><trkpt lat="43.2086499" lon="13.2846691"><ele>225.0</ele><time>2026-04-23T11:12:44.886Z</time></trkpt><trkpt lat="43.2085912" lon="13.2845374"><ele>225.0</ele><time>2026-04-23T11:12:45.886Z</time></trkpt><trkpt lat="43.2085409" lon="13.2844003"><ele>224.25</ele><time>2026-04-23T11:12:46.885Z</time></trkpt><trkpt lat="43.2084934" lon="13.2842595"><ele>223.5</ele><time>2026-04-23T11:12:47.886Z</time></trkpt><trkpt lat="43.2084584" lon="13.2841104"><ele>222.75</ele><time>2026-04-23T11:12:48.885Z</time></trkpt><trkpt lat="43.2084224" lon="13.2839623"><ele>222.0</ele><time>2026-04-23T11:12:49.885Z</time></trkpt><trkpt lat="43.2083907" lon="13.2838121"><ele>222.0</ele><time>2026-04-23T11:12:50.886Z</time></trkpt><trkpt lat="43.2083568" lon="13.2836703"><ele>222.0</ele><time>2026-04-23T11:12:51.885Z</time></trkpt><trkpt lat="43.2083331" lon="13.2835282"><ele>222.0</ele><time>2026-04-23T11:12:52.888Z</time></trkpt><trkpt lat="43.2083339" lon="13.2833834"><ele>222.0</ele><time>2026-04-23T11:12:53.885Z</time></trkpt><trkpt lat="43.2083419" lon="13.2832411"><ele>222.0</ele><time>2026-04-23T11:12:54.888Z</time></trkpt><trkpt lat="43.2083672" lon="13.2830905"><ele>219.5</ele><time>2026-04-23T11:12:55.886Z</time></trkpt><trkpt lat="43.208432" lon="13.2829497"><ele>217.0</ele><time>2026-04-23T11:12:56.885Z</time></trkpt><trkpt lat="43.2084985" lon="13.2827849"><ele>214.5</ele><time>2026-04-23T11:12:57.887Z</time></trkpt><trkpt lat="43.208566" lon="13.2826191"><ele>212.0</ele><time>2026-04-23T11:12:58.886Z</time></trkpt><trkpt lat="43.2086381" lon="13.28244"><ele>212.0</ele><time>2026-04-23T11:12:59.885Z</time></trkpt><trkpt lat="43.2087141" lon="13.2822662"><ele>212.0</ele><time>2026-04-23T11:13:00.885Z</time></trkpt><trkpt lat="43.2087956" lon="13.2820987"><ele>212.0</ele><time>2026-04-23T11:13:01.886Z</time></trkpt><trkpt lat="43.2088766" lon="13.2819436"><ele>212.0</ele><time>2026-04-23T11:13:02.886Z</time></trkpt><trkpt lat="43.2089535" lon="13.2817869"><ele>213.5</ele><time>2026-04-23T11:13:03.885Z</time></trkpt><trkpt lat="43.2090329" lon="13.2816397"><ele>215.0</ele><time>2026-04-23T11:13:04.886Z</time></trkpt><trkpt lat="43.2091149" lon="13.2815009"><ele>216.5</ele><time>2026-04-23T11:13:05.886Z</time></trkpt><trkpt lat="43.2091985" lon="13.2813582"><ele>218.0</ele><time>2026-04-23T11:13:06.885Z</time></trkpt><trkpt lat="43.2092598" lon="13.2812428"><ele>218.00000000000003</ele><time>2026-04-23T11:13:07.886Z</time></trkpt><trkpt lat="43.2093033" lon="13.281178"><ele>218.0</ele><time>2026-04-23T11:13:08.886Z</time></trkpt><trkpt lat="43.2093449" lon="13.2810835"><ele>218.0</ele><time>2026-04-23T11:13:09.886Z</time></trkpt><trkpt lat="43.209371" lon="13.2809796"><ele>218.0</ele><time>2026-04-23T11:13:10.888Z</time></trkpt><trkpt lat="43.2093959" lon="13.2808694"><ele>218.00000000000003</ele><time>2026-04-23T11:13:11.885Z</time></trkpt><trkpt lat="43.2093919" lon="13.2807304"><ele>218.0</ele><time>2026-04-23T11:13:12.886Z</time></trkpt><trkpt lat="43.2093748" lon="13.2805554"><ele>218.0</ele><time>2026-04-23T11:13:13.885Z</time></trkpt><trkpt lat="43.2093664" lon="13.2804047"><ele>218.0</ele><time>2026-04-23T11:13:14.886Z</time></trkpt><trkpt lat="43.209357" lon="13.2802587"><ele>218.0</ele><time>2026-04-23T11:13:15.886Z</time></trkpt><trkpt lat="43.209347" lon="13.2801333"><ele>218.0</ele><time>2026-04-23T11:13:16.886Z</time></trkpt><trkpt lat="43.2093385" lon="13.2800324"><ele>218.0</ele><time>2026-04-23T11:13:17.888Z</time></trkpt><trkpt lat="43.2093291" lon="13.2798537"><ele>218.66666666666669</ele><time>2026-04-23T11:13:19.885Z</time></trkpt><trkpt lat="43.2093276" lon="13.2797488"><ele>219.33333333333334</ele><time>2026-04-23T11:13:20.886Z</time></trkpt><trkpt lat="43.2093157" lon="13.2796349"><ele>220.0</ele><time>2026-04-23T11:13:21.886Z</time></trkpt><trkpt lat="43.2092788" lon="13.2795238"><ele>220.66666666666669</ele><time>2026-04-23T11:13:22.887Z</time></trkpt><trkpt lat="43.2092245" lon="13.27941"><ele>221.33333333333334</ele><time>2026-04-23T11:13:23.886Z</time></trkpt><trkpt lat="43.209179" lon="13.2792982"><ele>222.0</ele><time>2026-04-23T11:13:24.885Z</time></trkpt><trkpt lat="43.2091159" lon="13.2792002"><ele>222.0</ele><time>2026-04-23T11:13:25.887Z</time></trkpt><trkpt lat="43.2090523" lon="13.2791092"><ele>222.0</ele><time>2026-04-23T11:13:26.886Z</time></trkpt><trkpt lat="43.2089979" lon="13.2790441"><ele>222.0</ele><time>2026-04-23T11:13:27.887Z</time></trkpt><trkpt lat="43.2089617" lon="13.2788896"><ele>222.0</ele><time>2026-04-23T11:13:29.885Z</time></trkpt><trkpt lat="43.2090254" lon="13.2787403"><ele>222.0</ele><time>2026-04-23T11:13:31.886Z</time></trkpt><trkpt lat="43.2090658" lon="13.2786462"><ele>222.39999999999998</ele><time>2026-04-23T11:13:32.887Z</time></trkpt><trkpt lat="43.2091099" lon="13.2785427"><ele>222.79999999999998</ele><time>2026-04-23T11:13:33.886Z</time></trkpt><trkpt lat="43.2091529" lon="13.2784395"><ele>223.2</ele><time>2026-04-23T11:13:34.885Z</time></trkpt><trkpt lat="43.209208" lon="13.2783205"><ele>223.6</ele><time>2026-04-23T11:13:35.886Z</time></trkpt><trkpt lat="43.2092721" lon="13.2782015"><ele>224.0</ele><time>2026-04-23T11:13:36.886Z</time></trkpt><trkpt lat="43.2093366" lon="13.2780636"><ele>224.75</ele><time>2026-04-23T11:13:37.885Z</time></trkpt><trkpt lat="43.2093885" lon="13.2779139"><ele>225.5</ele><time>2026-04-23T11:13:38.886Z</time></trkpt><trkpt lat="43.209432" lon="13.2777393"><ele>226.25</ele><time>2026-04-23T11:13:39.886Z</time></trkpt><trkpt lat="43.2094522" lon="13.2775555"><ele>227.0</ele><time>2026-04-23T11:13:40.887Z</time></trkpt><trkpt lat="43.2094381" lon="13.2773582"><ele>227.75</ele><time>2026-04-23T11:13:41.886Z</time></trkpt><trkpt lat="43.2094326" lon="13.2771627"><ele>228.5</ele><time>2026-04-23T11:13:42.885Z</time></trkpt><trkpt lat="43.2094288" lon="13.2769678"><ele>229.25</ele><time>2026-04-23T11:13:43.886Z</time></trkpt><trkpt lat="43.2094265" lon="13.2768266"><ele>230.0</ele><time>2026-04-23T11:13:44.886Z</time></trkpt><trkpt lat="43.2094258" lon="13.276687"><ele>230.0</ele><time>2026-04-23T11:13:45.886Z</time></trkpt><trkpt lat="43.2094397" lon="13.2765738"><ele>230.0</ele><time>2026-04-23T11:13:46.886Z</time></trkpt><trkpt lat="43.209473" lon="13.2764656"><ele>230.0</ele><time>2026-04-23T11:13:47.886Z</time></trkpt><trkpt lat="43.209514" lon="13.2763456"><ele>230.0</ele><time>2026-04-23T11:13:48.885Z</time></trkpt><trkpt lat="43.2095646" lon="13.2762149"><ele>230.0</ele><time>2026-04-23T11:13:49.887Z</time></trkpt><trkpt lat="43.209617" lon="13.2760677"><ele>230.5</ele><time>2026-04-23T11:13:50.885Z</time></trkpt><trkpt lat="43.2096785" lon="13.2759236"><ele>231.0</ele><time>2026-04-23T11:13:51.885Z</time></trkpt><trkpt lat="43.2097347" lon="13.2757707"><ele>231.5</ele><time>2026-04-23T11:13:52.886Z</time></trkpt><trkpt lat="43.2097579" lon="13.2756103"><ele>232.0</ele><time>2026-04-23T11:13:53.885Z</time></trkpt><trkpt lat="43.209766" lon="13.2754479"><ele>232.39999999999998</ele><time>2026-04-23T11:13:54.885Z</time></trkpt><trkpt lat="43.2097706" lon="13.2752915"><ele>232.79999999999998</ele><time>2026-04-23T11:13:55.886Z</time></trkpt><trkpt lat="43.2097771" lon="13.2751661"><ele>233.2</ele><time>2026-04-23T11:13:56.887Z</time></trkpt><trkpt lat="43.2098112" lon="13.27504"><ele>233.6</ele><time>2026-04-23T11:13:57.885Z</time></trkpt><trkpt lat="43.2098527" lon="13.2749079"><ele>234.0</ele><time>2026-04-23T11:13:58.886Z</time></trkpt><trkpt lat="43.2098964" lon="13.2747765"><ele>240.5</ele><time>2026-04-23T11:13:59.885Z</time></trkpt><trkpt lat="43.2099021" lon="13.274638"><ele>247.0</ele><time>2026-04-23T11:14:00.886Z</time></trkpt><trkpt lat="43.2098777" lon="13.2744713"><ele>253.5</ele><time>2026-04-23T11:14:01.887Z</time></trkpt><trkpt lat="43.2098599" lon="13.2743108"><ele>260.0</ele><time>2026-04-23T11:14:02.886Z</time></trkpt><trkpt lat="43.2098546" lon="13.2741371"><ele>260.0</ele><time>2026-04-23T11:14:03.887Z</time></trkpt><trkpt lat="43.2098596" lon="13.2739804"><ele>260.0</ele><time>2026-04-23T11:14:04.886Z</time></trkpt><trkpt lat="43.2098746" lon="13.27385"><ele>260.0</ele><time>2026-04-23T11:14:05.887Z</time></trkpt><trkpt lat="43.2099128" lon="13.2737447"><ele>260.0</ele><time>2026-04-23T11:14:06.885Z</time></trkpt><trkpt lat="43.2099636" lon="13.2736417"><ele>260.0</ele><time>2026-04-23T11:14:07.886Z</time></trkpt><trkpt lat="43.2100281" lon="13.2735416"><ele>261.75</ele><time>2026-04-23T11:14:08.887Z</time></trkpt><trkpt lat="43.2100924" lon="13.2734178"><ele>263.5</ele><time>2026-04-23T11:14:09.885Z</time></trkpt><trkpt lat="43.2101694" lon="13.2732943"><ele>265.25</ele><time>2026-04-23T11:14:10.887Z</time></trkpt><trkpt lat="43.2102402" lon="13.2731545"><ele>267.0</ele><time>2026-04-23T11:14:11.885Z</time></trkpt><trkpt lat="43.2103096" lon="13.2729902"><ele>268.5</ele><time>2026-04-23T11:14:12.887Z</time></trkpt><trkpt lat="43.2103671" lon="13.2728251"><ele>270.0</ele><time>2026-04-23T11:14:13.886Z</time></trkpt><trkpt lat="43.2104255" lon="13.2726487"><ele>271.5</ele><time>2026-04-23T11:14:14.885Z</time></trkpt><trkpt lat="43.2104788" lon="13.2724592"><ele>273.0</ele><time>2026-04-23T11:14:15.886Z</time></trkpt><trkpt lat="43.2105157" lon="13.2722395"><ele>277.3333333333333</ele><time>2026-04-23T11:14:16.887Z</time></trkpt><trkpt lat="43.2105587" lon="13.2720062"><ele>281.66666666666663</ele><time>2026-04-23T11:14:17.886Z</time></trkpt><trkpt lat="43.2105874" lon="13.2717775"><ele>286.0</ele><time>2026-04-23T11:14:18.887Z</time></trkpt><trkpt lat="43.2106258" lon="13.2715954"><ele>292.25</ele><time>2026-04-23T11:14:19.886Z</time></trkpt><trkpt lat="43.2106686" lon="13.2714348"><ele>298.5</ele><time>2026-04-23T11:14:20.886Z</time></trkpt><trkpt lat="43.2107232" lon="13.2712765"><ele>304.75</ele><time>2026-04-23T11:14:21.885Z</time></trkpt><trkpt lat="43.2107774" lon="13.2711167"><ele>311.0</ele><time>2026-04-23T11:14:22.887Z</time></trkpt><trkpt lat="43.2108362" lon="13.2709746"><ele>311.0</ele><time>2026-04-23T11:14:23.885Z</time></trkpt><trkpt lat="43.2108834" lon="13.2708246"><ele>311.0</ele><time>2026-04-23T11:14:24.885Z</time></trkpt><trkpt lat="43.2109118" lon="13.2706606"><ele>311.0</ele><time>2026-04-23T11:14:25.886Z</time></trkpt><trkpt lat="43.2109118" lon="13.2704656"><ele>311.0</ele><time>2026-04-23T11:14:26.886Z</time></trkpt><trkpt lat="43.2109084" lon="13.2702883"><ele>312.75</ele><time>2026-04-23T11:14:27.886Z</time></trkpt><trkpt lat="43.2108739" lon="13.2700945"><ele>314.5</ele><time>2026-04-23T11:14:28.886Z</time></trkpt><trkpt lat="43.2108527" lon="13.2699008"><ele>316.25</ele><time>2026-04-23T11:14:29.886Z</time></trkpt><trkpt lat="43.2108356" lon="13.2697121"><ele>318.0</ele><time>2026-04-23T11:14:30.886Z</time></trkpt><trkpt lat="43.2108268" lon="13.2695192"><ele>319.0</ele><time>2026-04-23T11:14:31.886Z</time></trkpt><trkpt lat="43.2108125" lon="13.2693262"><ele>320.0</ele><time>2026-04-23T11:14:32.886Z</time></trkpt><trkpt lat="43.2107822" lon="13.2691367"><ele>321.0</ele><time>2026-04-23T11:14:33.885Z</time></trkpt><trkpt lat="43.2107263" lon="13.2689347"><ele>322.0</ele><time>2026-04-23T11:14:34.886Z</time></trkpt><trkpt lat="43.210663" lon="13.2687419"><ele>324.0</ele><time>2026-04-23T11:14:35.885Z</time></trkpt><trkpt lat="43.2105601" lon="13.2685604"><ele>326.0</ele><time>2026-04-23T11:14:36.887Z</time></trkpt><trkpt lat="43.210452" lon="13.2683881"><ele>328.0</ele><time>2026-04-23T11:14:37.885Z</time></trkpt><trkpt lat="43.2103405" lon="13.2682312"><ele>330.2</ele><time>2026-04-23T11:14:38.886Z</time></trkpt><trkpt lat="43.2102431" lon="13.268104"><ele>332.4</ele><time>2026-04-23T11:14:39.886Z</time></trkpt><trkpt lat="43.2101792" lon="13.2679863"><ele>334.59999999999997</ele><time>2026-04-23T11:14:40.886Z</time></trkpt><trkpt lat="43.2101483" lon="13.267852"><ele>336.79999999999995</ele><time>2026-04-23T11:14:41.887Z</time></trkpt><trkpt lat="43.2101286" lon="13.2677109"><ele>339.0</ele><time>2026-04-23T11:14:42.886Z</time></trkpt><trkpt lat="43.210113" lon="13.2675636"><ele>339.0</ele><time>2026-04-23T11:14:43.885Z</time></trkpt><trkpt lat="43.2100957" lon="13.2674239"><ele>339.0</ele><time>2026-04-23T11:14:44.885Z</time></trkpt><trkpt lat="43.21009" lon="13.2673041"><ele>339.0</ele><time>2026-04-23T11:14:45.885Z</time></trkpt><trkpt lat="43.2100799" lon="13.2671908"><ele>339.0</ele><time>2026-04-23T11:14:46.887Z</time></trkpt><trkpt lat="43.210062" lon="13.2670553"><ele>339.0</ele><time>2026-04-23T11:14:47.887Z</time></trkpt><trkpt lat="43.2100197" lon="13.2669007"><ele>341.0</ele><time>2026-04-23T11:14:48.886Z</time></trkpt><trkpt lat="43.2099618" lon="13.2667538"><ele>343.0</ele><time>2026-04-23T11:14:49.886Z</time></trkpt><trkpt lat="43.2099032" lon="13.2666361"><ele>345.0</ele><time>2026-04-23T11:14:50.887Z</time></trkpt><trkpt lat="43.2098536" lon="13.2665033"><ele>347.0</ele><time>2026-04-23T11:14:51.885Z</time></trkpt><trkpt lat="43.2098421" lon="13.2663708"><ele>349.0</ele><time>2026-04-23T11:14:52.886Z</time></trkpt><trkpt lat="43.2098315" lon="13.2662541"><ele>350.2</ele><time>2026-04-23T11:14:53.885Z</time></trkpt><trkpt lat="43.2098292" lon="13.2661259"><ele>351.4</ele><time>2026-04-23T11:14:54.887Z</time></trkpt><trkpt lat="43.20985" lon="13.2659804"><ele>352.6</ele><time>2026-04-23T11:14:55.886Z</time></trkpt><trkpt lat="43.2098688" lon="13.2658185"><ele>353.8</ele><time>2026-04-23T11:14:56.885Z</time></trkpt><trkpt lat="43.2099016" lon="13.2656554"><ele>355.0</ele><time>2026-04-23T11:14:57.886Z</time></trkpt><trkpt lat="43.2099387" lon="13.2654743"><ele>355.8</ele><time>2026-04-23T11:14:58.886Z</time></trkpt><trkpt lat="43.2099709" lon="13.2652858"><ele>356.6</ele><time>2026-04-23T11:14:59.887Z</time></trkpt><trkpt lat="43.2099831" lon="13.2651145"><ele>357.4</ele><time>2026-04-23T11:15:00.886Z</time></trkpt><trkpt lat="43.2100069" lon="13.2649658"><ele>358.2</ele><time>2026-04-23T11:15:01.886Z</time></trkpt><trkpt lat="43.2100429" lon="13.2648876"><ele>359.0</ele><time>2026-04-23T11:15:02.886Z</time></trkpt><trkpt lat="43.2100953" lon="13.2648352"><ele>359.0</ele><time>2026-04-23T11:15:03.886Z</time></trkpt><trkpt lat="43.2101606" lon="13.2647992"><ele>359.0</ele><time>2026-04-23T11:15:04.885Z</time></trkpt><trkpt lat="43.2102316" lon="13.2647568"><ele>359.0</ele><time>2026-04-23T11:15:05.887Z</time></trkpt><trkpt lat="43.2103027" lon="13.2646934"><ele>359.0</ele><time>2026-04-23T11:15:06.887Z</time></trkpt><trkpt lat="43.2103729" lon="13.2645943"><ele>359.0</ele><time>2026-04-23T11:15:08.886Z</time></trkpt><trkpt lat="43.2103344" lon="13.2645127"><ele>359.0</ele><time>2026-04-23T11:15:14.887Z</time></trkpt><trkpt lat="43.2102638" lon="13.2645591"><ele>360.5</ele><time>2026-04-23T11:15:16.887Z</time></trkpt><trkpt lat="43.2101622" lon="13.2646073"><ele>362.0</ele><time>2026-04-23T11:15:18.886Z</time></trkpt><trkpt lat="43.2100952" lon="13.2645659"><ele>363.5</ele><time>2026-04-23T11:15:19.885Z</time></trkpt><trkpt lat="43.2100384" lon="13.2645135"><ele>365.0</ele><time>2026-04-23T11:15:20.885Z</time></trkpt><trkpt lat="43.2100265" lon="13.2644158"><ele>366.5</ele><time>2026-04-23T11:15:21.885Z</time></trkpt><trkpt lat="43.2100172" lon="13.2643001"><ele>368.0</ele><time>2026-04-23T11:15:22.885Z</time></trkpt><trkpt lat="43.2100148" lon="13.2641627"><ele>368.0</ele><time>2026-04-23T11:15:23.885Z</time></trkpt><trkpt lat="43.2100181" lon="13.264001"><ele>368.0</ele><time>2026-04-23T11:15:24.886Z</time></trkpt><trkpt lat="43.2100168" lon="13.2638367"><ele>368.0</ele><time>2026-04-23T11:15:25.886Z</time></trkpt><trkpt lat="43.2099982" lon="13.2636623"><ele>368.0</ele><time>2026-04-23T11:15:26.886Z</time></trkpt><trkpt lat="43.2099668" lon="13.2634829"><ele>371.0</ele><time>2026-04-23T11:15:27.886Z</time></trkpt><trkpt lat="43.2099363" lon="13.2633105"><ele>374.0</ele><time>2026-04-23T11:15:28.886Z</time></trkpt><trkpt lat="43.209894" lon="13.2631195"><ele>377.0</ele><time>2026-04-23T11:15:29.885Z</time></trkpt><trkpt lat="43.2098443" lon="13.2629474"><ele>380.0</ele><time>2026-04-23T11:15:30.886Z</time></trkpt><trkpt lat="43.2097839" lon="13.2627772"><ele>382.75</ele><time>2026-04-23T11:15:31.887Z</time></trkpt><trkpt lat="43.2097261" lon="13.2626043"><ele>385.5</ele><time>2026-04-23T11:15:32.887Z</time></trkpt><trkpt lat="43.2096558" lon="13.2624427"><ele>388.25</ele><time>2026-04-23T11:15:33.887Z</time></trkpt><trkpt lat="43.2095895" lon="13.2622862"><ele>391.0</ele><time>2026-04-23T11:15:34.887Z</time></trkpt><trkpt lat="43.2095219" lon="13.2621578"><ele>393.83333333333337</ele><time>2026-04-23T11:15:35.885Z</time></trkpt><trkpt lat="43.2094684" lon="13.2620558"><ele>396.6666666666667</ele><time>2026-04-23T11:15:36.887Z</time></trkpt><trkpt lat="43.2094162" lon="13.2619663"><ele>399.5</ele><time>2026-04-23T11:15:37.886Z</time></trkpt><trkpt lat="43.2093752" lon="13.2618908"><ele>402.33333333333337</ele><time>2026-04-23T11:15:38.885Z</time></trkpt><trkpt lat="43.2093825" lon="13.2617544"><ele>405.1666666666667</ele><time>2026-04-23T11:15:40.887Z</time></trkpt><trkpt lat="43.2094649" lon="13.2616828"><ele>408.0</ele><time>2026-04-23T11:15:42.886Z</time></trkpt><trkpt lat="43.2095346" lon="13.2616423"><ele>408.0</ele><time>2026-04-23T11:15:43.885Z</time></trkpt><trkpt lat="43.2096295" lon="13.2615864"><ele>408.0</ele><time>2026-04-23T11:15:44.886Z</time></trkpt><trkpt lat="43.2097166" lon="13.2615307"><ele>408.0</ele><time>2026-04-23T11:15:45.886Z</time></trkpt><trkpt lat="43.2098095" lon="13.261458"><ele>408.0</ele><time>2026-04-23T11:15:46.887Z</time></trkpt><trkpt lat="43.2098898" lon="13.2613789"><ele>408.0</ele><time>2026-04-23T11:15:47.887Z</time></trkpt><trkpt lat="43.2099358" lon="13.261257"><ele>409.4</ele><time>2026-04-23T11:15:48.886Z</time></trkpt><trkpt lat="43.2099636" lon="13.2611261"><ele>410.79999999999995</ele><time>2026-04-23T11:15:49.886Z</time></trkpt><trkpt lat="43.2099573" lon="13.2609723"><ele>412.2</ele><time>2026-04-23T11:15:50.886Z</time></trkpt><trkpt lat="43.2099498" lon="13.2608286"><ele>413.6</ele><time>2026-04-23T11:15:51.885Z</time></trkpt><trkpt lat="43.2099718" lon="13.260683"><ele>415.0</ele><time>2026-04-23T11:15:52.885Z</time></trkpt><trkpt lat="43.2100202" lon="13.2605613"><ele>418.4</ele><time>2026-04-23T11:15:53.885Z</time></trkpt><trkpt lat="43.2100685" lon="13.2604625"><ele>421.8</ele><time>2026-04-23T11:15:54.886Z</time></trkpt><trkpt lat="43.2101381" lon="13.2603569"><ele>425.20000000000005</ele><time>2026-04-23T11:15:55.885Z</time></trkpt><trkpt lat="43.2101845" lon="13.2602182"><ele>428.6</ele><time>2026-04-23T11:15:56.885Z</time></trkpt><trkpt lat="43.2102196" lon="13.2600694"><ele>432.0</ele><time>2026-04-23T11:15:57.887Z</time></trkpt><trkpt lat="43.2102777" lon="13.2599356"><ele>432.0</ele><time>2026-04-23T11:15:58.886Z</time></trkpt><trkpt lat="43.210358" lon="13.2598415"><ele>432.0</ele><time>2026-04-23T11:15:59.886Z</time></trkpt><trkpt lat="43.2104456" lon="13.2597495"><ele>432.0</ele><time>2026-04-23T11:16:00.886Z</time></trkpt><trkpt lat="43.2105436" lon="13.2596447"><ele>432.0</ele><time>2026-04-23T11:16:01.885Z</time></trkpt><trkpt lat="43.2106283" lon="13.2595316"><ele>433.5</ele><time>2026-04-23T11:16:02.885Z</time></trkpt><trkpt lat="43.2107096" lon="13.2594056"><ele>435.0</ele><time>2026-04-23T11:16:03.887Z</time></trkpt><trkpt lat="43.21079" lon="13.2592675"><ele>436.5</ele><time>2026-04-23T11:16:04.885Z</time></trkpt><trkpt lat="43.2108667" lon="13.2591371"><ele>438.0</ele><time>2026-04-23T11:16:05.885Z</time></trkpt><trkpt lat="43.2109414" lon="13.2590073"><ele>440.79999999999995</ele><time>2026-04-23T11:16:06.887Z</time></trkpt><trkpt lat="43.2110385" lon="13.2589248"><ele>443.59999999999997</ele><time>2026-04-23T11:16:07.886Z</time></trkpt><trkpt lat="43.2111503" lon="13.2588873"><ele>446.40000000000003</ele><time>2026-04-23T11:16:08.886Z</time></trkpt><trkpt lat="43.211255" lon="13.2588784"><ele>449.20000000000005</ele><time>2026-04-23T11:16:09.886Z</time></trkpt><trkpt lat="43.2113498" lon="13.258858"><ele>452.0</ele><time>2026-04-23T11:16:10.887Z</time></trkpt><trkpt lat="43.2114399" lon="13.2588165"><ele>450.0</ele><time>2026-04-23T11:16:11.885Z</time></trkpt><trkpt lat="43.2115223" lon="13.2587573"><ele>448.00000000000006</ele><time>2026-04-23T11:16:12.888Z</time></trkpt><trkpt lat="43.2115891" lon="13.2586691"><ele>446.00000000000006</ele><time>2026-04-23T11:16:13.887Z</time></trkpt><trkpt lat="43.2116353" lon="13.2585733"><ele>444.0</ele><time>2026-04-23T11:16:14.885Z</time></trkpt><trkpt lat="43.2116684" lon="13.2584648"><ele>442.0</ele><time>2026-04-23T11:16:15.885Z</time></trkpt><trkpt lat="43.2116812" lon="13.258328"><ele>442.0</ele><time>2026-04-23T11:16:16.885Z</time></trkpt><trkpt lat="43.2116953" lon="13.2582034"><ele>442.00000000000006</ele><time>2026-04-23T11:16:17.885Z</time></trkpt><trkpt lat="43.2117096" lon="13.2580614"><ele>442.00000000000006</ele><time>2026-04-23T11:16:18.886Z</time></trkpt><trkpt lat="43.2117279" lon="13.2579241"><ele>442.0</ele><time>2026-04-23T11:16:19.886Z</time></trkpt><trkpt lat="43.2117377" lon="13.2577986"><ele>442.0</ele><time>2026-04-23T11:16:20.886Z</time></trkpt><trkpt lat="43.2117436" lon="13.2576664"><ele>442.6</ele><time>2026-04-23T11:16:21.886Z</time></trkpt><trkpt lat="43.2117576" lon="13.2575298"><ele>443.20000000000005</ele><time>2026-04-23T11:16:22.885Z</time></trkpt><trkpt lat="43.2117741" lon="13.2573771"><ele>443.8</ele><time>2026-04-23T11:16:23.887Z</time></trkpt><trkpt lat="43.2117938" lon="13.2572246"><ele>444.4</ele><time>2026-04-23T11:16:24.886Z</time></trkpt><trkpt lat="43.2118119" lon="13.257073"><ele>445.0</ele><time>2026-04-23T11:16:25.886Z</time></trkpt><trkpt lat="43.2118256" lon="13.2569402"><ele>445.0</ele><time>2026-04-23T11:16:26.888Z</time></trkpt><trkpt lat="43.2118398" lon="13.2568348"><ele>445.0</ele><time>2026-04-23T11:16:27.886Z</time></trkpt><trkpt lat="43.2118242" lon="13.2567105"><ele>445.0</ele><time>2026-04-23T11:16:29.885Z</time></trkpt><trkpt lat="43.211704" lon="13.2566294"><ele>445.0</ele><time>2026-04-23T11:16:31.888Z</time></trkpt><trkpt lat="43.2116254" lon="13.2565664"><ele>445.0</ele><time>2026-04-23T11:16:32.885Z</time></trkpt><trkpt lat="43.2115373" lon="13.256482"><ele>443.2</ele><time>2026-04-23T11:16:33.885Z</time></trkpt><trkpt lat="43.2114384" lon="13.256388"><ele>441.4</ele><time>2026-04-23T11:16:34.886Z</time></trkpt><trkpt lat="43.2113422" lon="13.2562886"><ele>439.6</ele><time>2026-04-23T11:16:35.886Z</time></trkpt><trkpt lat="43.2112597" lon="13.2562"><ele>437.8</ele><time>2026-04-23T11:16:36.885Z</time></trkpt><trkpt lat="43.211182" lon="13.2561234"><ele>436.0</ele><time>2026-04-23T11:16:37.886Z</time></trkpt><trkpt lat="43.2111156" lon="13.2560607"><ele>436.0</ele><time>2026-04-23T11:16:38.885Z</time></trkpt><trkpt lat="43.211052" lon="13.2559951"><ele>436.0</ele><time>2026-04-23T11:16:39.885Z</time></trkpt><trkpt lat="43.2109884" lon="13.2559361"><ele>436.0</ele><time>2026-04-23T11:16:40.885Z</time></trkpt><trkpt lat="43.2109348" lon="13.2558835"><ele>436.0</ele><time>2026-04-23T11:16:41.885Z</time></trkpt><trkpt lat="43.2108931" lon="13.2558109"><ele>436.0</ele><time>2026-04-23T11:16:42.885Z</time></trkpt><trkpt lat="43.2108772" lon="13.2557151"><ele>436.0</ele><time>2026-04-23T11:16:43.885Z</time></trkpt><trkpt lat="43.2108641" lon="13.2555993"><ele>436.0</ele><time>2026-04-23T11:16:44.886Z</time></trkpt><trkpt lat="43.2108515" lon="13.2554871"><ele>436.4</ele><time>2026-04-23T11:16:45.888Z</time></trkpt><trkpt lat="43.2108198" lon="13.2553842"><ele>436.8</ele><time>2026-04-23T11:16:46.885Z</time></trkpt><trkpt lat="43.2107565" lon="13.2552938"><ele>437.19999999999993</ele><time>2026-04-23T11:16:47.887Z</time></trkpt><trkpt lat="43.2106827" lon="13.2552233"><ele>437.59999999999997</ele><time>2026-04-23T11:16:48.887Z</time></trkpt><trkpt lat="43.2106026" lon="13.2551524"><ele>438.0</ele><time>2026-04-23T11:16:49.886Z</time></trkpt><trkpt lat="43.2105112" lon="13.2551082"><ele>434.79999999999995</ele><time>2026-04-23T11:16:50.886Z</time></trkpt><trkpt lat="43.2104215" lon="13.2550558"><ele>431.59999999999997</ele><time>2026-04-23T11:16:51.887Z</time></trkpt><trkpt lat="43.2103202" lon="13.255003"><ele>428.4</ele><time>2026-04-23T11:16:52.887Z</time></trkpt><trkpt lat="43.2102143" lon="13.25494"><ele>425.20000000000005</ele><time>2026-04-23T11:16:53.885Z</time></trkpt><trkpt lat="43.2101093" lon="13.2548885"><ele>422.0</ele><time>2026-04-23T11:16:54.885Z</time></trkpt><trkpt lat="43.2100171" lon="13.2548449"><ele>421.99999999999994</ele><time>2026-04-23T11:16:55.886Z</time></trkpt><trkpt lat="43.2099573" lon="13.2547943"><ele>422.0</ele><time>2026-04-23T11:16:56.887Z</time></trkpt><trkpt lat="43.2098931" lon="13.254756"><ele>422.0</ele><time>2026-04-23T11:16:57.885Z</time></trkpt><trkpt lat="43.2098254" lon="13.2547116"><ele>422.0</ele><time>2026-04-23T11:16:58.885Z</time></trkpt><trkpt lat="43.2097763" lon="13.2546285"><ele>421.99999999999994</ele><time>2026-04-23T11:16:59.886Z</time></trkpt><trkpt lat="43.20975" lon="13.2545138"><ele>422.0</ele><time>2026-04-23T11:17:00.886Z</time></trkpt><trkpt lat="43.2097383" lon="13.2543877"><ele>416.0</ele><time>2026-04-23T11:17:01.887Z</time></trkpt><trkpt lat="43.2097303" lon="13.254259"><ele>410.0</ele><time>2026-04-23T11:17:02.887Z</time></trkpt><trkpt lat="43.2097222" lon="13.2541206"><ele>404.0</ele><time>2026-04-23T11:17:03.886Z</time></trkpt><trkpt lat="43.2097116" lon="13.2539935"><ele>398.0</ele><time>2026-04-23T11:17:04.885Z</time></trkpt><trkpt lat="43.2097085" lon="13.2538643"><ele>392.0</ele><time>2026-04-23T11:17:05.885Z</time></trkpt><trkpt lat="43.2097008" lon="13.2537405"><ele>391.8</ele><time>2026-04-23T11:17:06.885Z</time></trkpt><trkpt lat="43.2097033" lon="13.2536031"><ele>391.6</ele><time>2026-04-23T11:17:07.886Z</time></trkpt><trkpt lat="43.2097145" lon="13.2534748"><ele>391.40000000000003</ele><time>2026-04-23T11:17:08.885Z</time></trkpt><trkpt lat="43.2097384" lon="13.2533482"><ele>391.20000000000005</ele><time>2026-04-23T11:17:09.885Z</time></trkpt><trkpt lat="43.2097576" lon="13.2532377"><ele>391.0</ele><time>2026-04-23T11:17:10.886Z</time></trkpt><trkpt lat="43.2097901" lon="13.2531266"><ele>392.00000000000006</ele><time>2026-04-23T11:17:11.887Z</time></trkpt><trkpt lat="43.2098349" lon="13.2530438"><ele>393.0</ele><time>2026-04-23T11:17:12.886Z</time></trkpt><trkpt lat="43.2098918" lon="13.2529683"><ele>394.0</ele><time>2026-04-23T11:17:13.885Z</time></trkpt><trkpt lat="43.2099849" lon="13.2529269"><ele>395.0</ele><time>2026-04-23T11:17:14.886Z</time></trkpt><trkpt lat="43.2100608" lon="13.2528712"><ele>396.00000000000006</ele><time>2026-04-23T11:17:15.887Z</time></trkpt><trkpt lat="43.2101304" lon="13.2528038"><ele>397.0</ele><time>2026-04-23T11:17:16.886Z</time></trkpt><trkpt lat="43.2101668" lon="13.2527022"><ele>397.0</ele><time>2026-04-23T11:17:17.886Z</time></trkpt><trkpt lat="43.2101871" lon="13.2525825"><ele>397.0</ele><time>2026-04-23T11:17:18.887Z</time></trkpt><trkpt lat="43.2101955" lon="13.2524713"><ele>397.0</ele><time>2026-04-23T11:17:19.887Z</time></trkpt><trkpt lat="43.2101656" lon="13.2523489"><ele>397.0</ele><time>2026-04-23T11:17:20.885Z</time></trkpt><trkpt lat="43.2101187" lon="13.2522339"><ele>397.0</ele><time>2026-04-23T11:17:21.886Z</time></trkpt><trkpt lat="43.2100462" lon="13.2521321"><ele>397.50000000000006</ele><time>2026-04-23T11:17:22.885Z</time></trkpt><trkpt lat="43.2099727" lon="13.2520463"><ele>398.0</ele><time>2026-04-23T11:17:23.886Z</time></trkpt><trkpt lat="43.2099351" lon="13.2519622"><ele>398.5</ele><time>2026-04-23T11:17:24.885Z</time></trkpt><trkpt lat="43.2099202" lon="13.2518708"><ele>399.0</ele><time>2026-04-23T11:17:25.887Z</time></trkpt><trkpt lat="43.2099042" lon="13.2517574"><ele>399.50000000000006</ele><time>2026-04-23T11:17:26.887Z</time></trkpt><trkpt lat="43.2099043" lon="13.2516035"><ele>400.0</ele><time>2026-04-23T11:17:27.887Z</time></trkpt><trkpt lat="43.2099068" lon="13.2514564"><ele>401.75</ele><time>2026-04-23T11:17:28.885Z</time></trkpt><trkpt lat="43.209894" lon="13.2512858"><ele>403.5</ele><time>2026-04-23T11:17:29.885Z</time></trkpt><trkpt lat="43.2098581" lon="13.2511236"><ele>405.25</ele><time>2026-04-23T11:17:30.885Z</time></trkpt><trkpt lat="43.2098049" lon="13.2509669"><ele>407.0</ele><time>2026-04-23T11:17:31.886Z</time></trkpt><trkpt lat="43.2097456" lon="13.2508114"><ele>403.75</ele><time>2026-04-23T11:17:32.886Z</time></trkpt><trkpt lat="43.2096876" lon="13.2506543"><ele>400.5</ele><time>2026-04-23T11:17:33.886Z</time></trkpt><trkpt lat="43.2096578" lon="13.2505002"><ele>397.25</ele><time>2026-04-23T11:17:34.887Z</time></trkpt><trkpt lat="43.2096289" lon="13.250354"><ele>394.0</ele><time>2026-04-23T11:17:35.885Z</time></trkpt><trkpt lat="43.20962" lon="13.2502116"><ele>394.0</ele><time>2026-04-23T11:17:36.887Z</time></trkpt><trkpt lat="43.2096449" lon="13.250068"><ele>394.0</ele><time>2026-04-23T11:17:37.886Z</time></trkpt><trkpt lat="43.2096702" lon="13.2499154"><ele>394.0</ele><time>2026-04-23T11:17:38.886Z</time></trkpt><trkpt lat="43.2097221" lon="13.2497843"><ele>394.0</ele><time>2026-04-23T11:17:39.886Z</time></trkpt><trkpt lat="43.2097531" lon="13.2496815"><ele>394.0</ele><time>2026-04-23T11:17:40.886Z</time></trkpt><trkpt lat="43.2097674" lon="13.2495686"><ele>397.0</ele><time>2026-04-23T11:17:41.887Z</time></trkpt><trkpt lat="43.209731" lon="13.2494632"><ele>400.0</ele><time>2026-04-23T11:17:42.887Z</time></trkpt><trkpt lat="43.2096615" lon="13.2493841"><ele>403.0</ele><time>2026-04-23T11:17:43.886Z</time></trkpt><trkpt lat="43.2095742" lon="13.2493269"><ele>406.0</ele><time>2026-04-23T11:17:44.887Z</time></trkpt><trkpt lat="43.2094743" lon="13.249274"><ele>409.0</ele><time>2026-04-23T11:17:45.886Z</time></trkpt><trkpt lat="43.2093705" lon="13.2492132"><ele>409.0</ele><time>2026-04-23T11:17:46.886Z</time></trkpt><trkpt lat="43.209267" lon="13.2491617"><ele>409.0</ele><time>2026-04-23T11:17:47.885Z</time></trkpt><trkpt lat="43.2091532" lon="13.2490866"><ele>409.0</ele><time>2026-04-23T11:17:48.886Z</time></trkpt><trkpt lat="43.2090358" lon="13.2489906"><ele>409.0</ele><time>2026-04-23T11:17:49.887Z</time></trkpt><trkpt lat="43.2089129" lon="13.2489016"><ele>411.6</ele><time>2026-04-23T11:17:50.887Z</time></trkpt><trkpt lat="43.2088019" lon="13.2488198"><ele>414.2</ele><time>2026-04-23T11:17:51.887Z</time></trkpt><trkpt lat="43.208698" lon="13.2487606"><ele>416.8</ele><time>2026-04-23T11:17:52.885Z</time></trkpt><trkpt lat="43.2086162" lon="13.2487543"><ele>419.40000000000003</ele><time>2026-04-23T11:17:53.886Z</time></trkpt><trkpt lat="43.2085241" lon="13.248801"><ele>422.0</ele><time>2026-04-23T11:17:54.886Z</time></trkpt><trkpt lat="43.2084478" lon="13.2488499"><ele>422.0</ele><time>2026-04-23T11:17:55.886Z</time></trkpt><trkpt lat="43.2083699" lon="13.2489145"><ele>422.0</ele><time>2026-04-23T11:17:56.886Z</time></trkpt><trkpt lat="43.2082797" lon="13.2489735"><ele>422.0</ele><time>2026-04-23T11:17:57.886Z</time></trkpt><trkpt lat="43.2081841" lon="13.2489927"><ele>422.0</ele><time>2026-04-23T11:17:58.886Z</time></trkpt><trkpt lat="43.2080961" lon="13.2489747"><ele>422.0</ele><time>2026-04-23T11:17:59.886Z</time></trkpt><trkpt lat="43.2080078" lon="13.2489167"><ele>421.0</ele><time>2026-04-23T11:18:00.886Z</time></trkpt><trkpt lat="43.2079018" lon="13.2488485"><ele>420.0</ele><time>2026-04-23T11:18:01.887Z</time></trkpt><trkpt lat="43.2077791" lon="13.2487997"><ele>419.0</ele><time>2026-04-23T11:18:02.885Z</time></trkpt><trkpt lat="43.2076624" lon="13.2487524"><ele>418.0</ele><time>2026-04-23T11:18:03.886Z</time></trkpt><trkpt lat="43.2075379" lon="13.2487316"><ele>418.0</ele><time>2026-04-23T11:18:04.886Z</time></trkpt><trkpt lat="43.2074196" lon="13.2487115"><ele>418.0</ele><time>2026-04-23T11:18:05.887Z</time></trkpt><trkpt lat="43.2073063" lon="13.2487043"><ele>418.0</ele><time>2026-04-23T11:18:06.886Z</time></trkpt><trkpt lat="43.2071855" lon="13.248706"><ele>418.0</ele><time>2026-04-23T11:18:07.886Z</time></trkpt><trkpt lat="43.207085" lon="13.2487182"><ele>415.4</ele><time>2026-04-23T11:18:08.887Z</time></trkpt><trkpt lat="43.2069813" lon="13.2487239"><ele>412.79999999999995</ele><time>2026-04-23T11:18:09.887Z</time></trkpt><trkpt lat="43.2068703" lon="13.2487257"><ele>410.2</ele><time>2026-04-23T11:18:10.885Z</time></trkpt><trkpt lat="43.2067558" lon="13.2487432"><ele>407.6</ele><time>2026-04-23T11:18:11.887Z</time></trkpt><trkpt lat="43.2066562" lon="13.2487561"><ele>405.0</ele><time>2026-04-23T11:18:12.886Z</time></trkpt><trkpt lat="43.2065428" lon="13.2487672"><ele>400.5</ele><time>2026-04-23T11:18:13.885Z</time></trkpt><trkpt lat="43.2064216" lon="13.2487711"><ele>396.0</ele><time>2026-04-23T11:18:14.886Z</time></trkpt><trkpt lat="43.2063119" lon="13.2487767"><ele>391.5</ele><time>2026-04-23T11:18:15.885Z</time></trkpt><trkpt lat="43.2061944" lon="13.2487798"><ele>387.0</ele><time>2026-04-23T11:18:16.886Z</time></trkpt><trkpt lat="43.2060798" lon="13.2487614"><ele>387.0</ele><time>2026-04-23T11:18:17.886Z</time></trkpt><trkpt lat="43.2059616" lon="13.2487529"><ele>387.0</ele><time>2026-04-23T11:18:18.885Z</time></trkpt><trkpt lat="43.2058575" lon="13.2487774"><ele>387.0</ele><time>2026-04-23T11:18:19.885Z</time></trkpt><trkpt lat="43.2057428" lon="13.2488238"><ele>387.0</ele><time>2026-04-23T11:18:20.886Z</time></trkpt><trkpt lat="43.2056373" lon="13.2488701"><ele>383.6</ele><time>2026-04-23T11:18:21.888Z</time></trkpt><trkpt lat="43.2055312" lon="13.2489128"><ele>380.20000000000005</ele><time>2026-04-23T11:18:22.885Z</time></trkpt><trkpt lat="43.2054393" lon="13.2489731"><ele>376.8</ele><time>2026-04-23T11:18:23.886Z</time></trkpt><trkpt lat="43.2053512" lon="13.2490377"><ele>373.4</ele><time>2026-04-23T11:18:24.886Z</time></trkpt><trkpt lat="43.2052696" lon="13.2491098"><ele>370.0</ele><time>2026-04-23T11:18:25.887Z</time></trkpt><trkpt lat="43.2051883" lon="13.2491919"><ele>369.3333333333333</ele><time>2026-04-23T11:18:26.885Z</time></trkpt><trkpt lat="43.205112" lon="13.2492718"><ele>368.66666666666663</ele><time>2026-04-23T11:18:27.886Z</time></trkpt><trkpt lat="43.2050448" lon="13.2493473"><ele>368.0</ele><time>2026-04-23T11:18:28.886Z</time></trkpt><trkpt lat="43.2049779" lon="13.2494316"><ele>367.3333333333333</ele><time>2026-04-23T11:18:29.885Z</time></trkpt><trkpt lat="43.2049216" lon="13.2495017"><ele>366.6666666666667</ele><time>2026-04-23T11:18:30.888Z</time></trkpt><trkpt lat="43.20486" lon="13.2495735"><ele>366.0</ele><time>2026-04-23T11:18:31.886Z</time></trkpt><trkpt lat="43.2047786" lon="13.2495873"><ele>362.6</ele><time>2026-04-23T11:18:32.886Z</time></trkpt><trkpt lat="43.2046872" lon="13.2495772"><ele>359.20000000000005</ele><time>2026-04-23T11:18:33.885Z</time></trkpt><trkpt lat="43.2045915" lon="13.2495534"><ele>355.79999999999995</ele><time>2026-04-23T11:18:34.887Z</time></trkpt><trkpt lat="43.2044899" lon="13.2495006"><ele>352.4</ele><time>2026-04-23T11:18:35.886Z</time></trkpt><trkpt lat="43.2043958" lon="13.2494573"><ele>349.0</ele><time>2026-04-23T11:18:36.885Z</time></trkpt><trkpt lat="43.2042981" lon="13.2494085"><ele>349.0</ele><time>2026-04-23T11:18:37.885Z</time></trkpt><trkpt lat="43.2041988" lon="13.2493615"><ele>349.0</ele><time>2026-04-23T11:18:38.886Z</time></trkpt><trkpt lat="43.2040967" lon="13.2493126"><ele>349.0</ele><time>2026-04-23T11:18:39.886Z</time></trkpt><trkpt lat="43.2039969" lon="13.2492658"><ele>349.0</ele><time>2026-04-23T11:18:40.886Z</time></trkpt><trkpt lat="43.2039041" lon="13.2492227"><ele>349.0</ele><time>2026-04-23T11:18:41.885Z</time></trkpt><trkpt lat="43.2038191" lon="13.2491954"><ele>345.79999999999995</ele><time>2026-04-23T11:18:42.886Z</time></trkpt><trkpt lat="43.20372" lon="13.2491784"><ele>342.59999999999997</ele><time>2026-04-23T11:18:43.885Z</time></trkpt><trkpt lat="43.2036137" lon="13.2491876"><ele>339.4</ele><time>2026-04-23T11:18:44.885Z</time></trkpt><trkpt lat="43.2035123" lon="13.2492506"><ele>336.2</ele><time>2026-04-23T11:18:45.885Z</time></trkpt><trkpt lat="43.2034018" lon="13.2493081"><ele>333.0</ele><time>2026-04-23T11:18:46.887Z</time></trkpt><trkpt lat="43.2033045" lon="13.2493838"><ele>333.0</ele><time>2026-04-23T11:18:47.887Z</time></trkpt><trkpt lat="43.2032025" lon="13.2494582"><ele>333.0</ele><time>2026-04-23T11:18:48.887Z</time></trkpt><trkpt lat="43.2030952" lon="13.2495351"><ele>333.0</ele><time>2026-04-23T11:18:49.885Z</time></trkpt><trkpt lat="43.2029904" lon="13.2496091"><ele>333.0</ele><time>2026-04-23T11:18:50.886Z</time></trkpt><trkpt lat="43.2028916" lon="13.2496648"><ele>330.5</ele><time>2026-04-23T11:18:51.886Z</time></trkpt><trkpt lat="43.2028084" lon="13.2497173"><ele>328.0</ele><time>2026-04-23T11:18:52.886Z</time></trkpt><trkpt lat="43.2027327" lon="13.2497686"><ele>325.5</ele><time>2026-04-23T11:18:53.885Z</time></trkpt><trkpt lat="43.2026479" lon="13.2498148"><ele>323.0</ele><time>2026-04-23T11:18:55.887Z</time></trkpt><trkpt lat="43.2025862" lon="13.2498488"><ele>320.5</ele><time>2026-04-23T11:19:15.886Z</time></trkpt><trkpt lat="43.2025075" lon="13.2499497"><ele>318.0</ele><time>2026-04-23T11:19:18.885Z</time></trkpt><trkpt lat="43.2024414" lon="13.2499957"><ele>317.2</ele><time>2026-04-23T11:19:19.885Z</time></trkpt><trkpt lat="43.202361" lon="13.2500466"><ele>316.4</ele><time>2026-04-23T11:19:20.887Z</time></trkpt><trkpt lat="43.202278" lon="13.2500965"><ele>315.59999999999997</ele><time>2026-04-23T11:19:21.887Z</time></trkpt><trkpt lat="43.2021854" lon="13.2501406"><ele>314.8</ele><time>2026-04-23T11:19:22.886Z</time></trkpt><trkpt lat="43.2020899" lon="13.2501677"><ele>314.0</ele><time>2026-04-23T11:19:23.885Z</time></trkpt><trkpt lat="43.2020063" lon="13.2501767"><ele>312.0</ele><time>2026-04-23T11:19:24.887Z</time></trkpt><trkpt lat="43.2019279" lon="13.2501675"><ele>310.0</ele><time>2026-04-23T11:19:25.887Z</time></trkpt><trkpt lat="43.2018506" lon="13.2501462"><ele>308.0</ele><time>2026-04-23T11:19:26.886Z</time></trkpt><trkpt lat="43.2017808" lon="13.2501116"><ele>306.0</ele><time>2026-04-23T11:19:27.886Z</time></trkpt><trkpt lat="43.2017076" lon="13.2500673"><ele>304.0</ele><time>2026-04-23T11:19:28.885Z</time></trkpt><trkpt lat="43.2016342" lon="13.2500198"><ele>302.0</ele><time>2026-04-23T11:19:29.886Z</time></trkpt><trkpt lat="43.2015659" lon="13.2499859"><ele>302.0</ele><time>2026-04-23T11:19:30.886Z</time></trkpt><trkpt lat="43.2015025" lon="13.2499467"><ele>302.0</ele><time>2026-04-23T11:19:31.887Z</time></trkpt><trkpt lat="43.2014302" lon="13.2498229"><ele>302.0</ele><time>2026-04-23T11:19:33.886Z</time></trkpt><trkpt lat="43.2014119" lon="13.2497383"><ele>302.0</ele><time>2026-04-23T11:19:34.886Z</time></trkpt><trkpt lat="43.201422" lon="13.249651"><ele>302.0</ele><time>2026-04-23T11:19:35.885Z</time></trkpt><trkpt lat="43.2014554" lon="13.2495739"><ele>302.0</ele><time>2026-04-23T11:19:36.885Z</time></trkpt><trkpt lat="43.2015033" lon="13.2494798"><ele>302.6</ele><time>2026-04-23T11:19:37.885Z</time></trkpt><trkpt lat="43.2015635" lon="13.2493655"><ele>303.2</ele><time>2026-04-23T11:19:38.885Z</time></trkpt><trkpt lat="43.201617" lon="13.2492395"><ele>303.8</ele><time>2026-04-23T11:19:39.886Z</time></trkpt><trkpt lat="43.2016581" lon="13.2491174"><ele>304.4</ele><time>2026-04-23T11:19:40.885Z</time></trkpt><trkpt lat="43.2016835" lon="13.2490044"><ele>305.0</ele><time>2026-04-23T11:19:41.887Z</time></trkpt><trkpt lat="43.2016853" lon="13.2488877"><ele>306.6</ele><time>2026-04-23T11:19:42.885Z</time></trkpt><trkpt lat="43.2016818" lon="13.2487709"><ele>308.2</ele><time>2026-04-23T11:19:43.886Z</time></trkpt><trkpt lat="43.2016792" lon="13.2486449"><ele>309.8</ele><time>2026-04-23T11:19:44.887Z</time></trkpt><trkpt lat="43.2016736" lon="13.2485162"><ele>311.4</ele><time>2026-04-23T11:19:45.886Z</time></trkpt><trkpt lat="43.2016674" lon="13.2483692"><ele>313.0</ele><time>2026-04-23T11:19:46.887Z</time></trkpt><trkpt lat="43.2016581" lon="13.2482308"><ele>311.4</ele><time>2026-04-23T11:19:47.886Z</time></trkpt><trkpt lat="43.2016382" lon="13.2480663"><ele>309.8</ele><time>2026-04-23T11:19:48.886Z</time></trkpt><trkpt lat="43.2016064" lon="13.2479254"><ele>308.2</ele><time>2026-04-23T11:19:49.886Z</time></trkpt><trkpt lat="43.2015652" lon="13.2478029"><ele>306.6</ele><time>2026-04-23T11:19:50.886Z</time></trkpt><trkpt lat="43.201512" lon="13.2477066"><ele>305.0</ele><time>2026-04-23T11:19:51.886Z</time></trkpt><trkpt lat="43.2014713" lon="13.2476222"><ele>305.0</ele><time>2026-04-23T11:19:52.885Z</time></trkpt><trkpt lat="43.2014437" lon="13.2474615"><ele>305.0</ele><time>2026-04-23T11:19:54.886Z</time></trkpt><trkpt lat="43.2014413" lon="13.2473552"><ele>305.0</ele><time>2026-04-23T11:19:55.885Z</time></trkpt><trkpt lat="43.2014311" lon="13.24724"><ele>305.0</ele><time>2026-04-23T11:19:56.886Z</time></trkpt><trkpt lat="43.2014516" lon="13.2471149"><ele>305.0</ele><time>2026-04-23T11:19:58.887Z</time></trkpt><trkpt lat="43.2015123" lon="13.2470738"><ele>305.0</ele><time>2026-04-23T11:20:00.886Z</time></trkpt><trkpt lat="43.2016201" lon="13.2470684"><ele>308.0</ele><time>2026-04-23T11:20:02.887Z</time></trkpt><trkpt lat="43.2016848" lon="13.2470613"><ele>311.0</ele><time>2026-04-23T11:20:03.887Z</time></trkpt><trkpt lat="43.2017701" lon="13.2470458"><ele>314.0</ele><time>2026-04-23T11:20:04.885Z</time></trkpt><trkpt lat="43.2018311" lon="13.2470155"><ele>317.0</ele><time>2026-04-23T11:20:05.886Z</time></trkpt><trkpt lat="43.2019092" lon="13.2469468"><ele>320.0</ele><time>2026-04-23T11:20:07.885Z</time></trkpt><trkpt lat="43.2018619" lon="13.2468689"><ele>323.0</ele><time>2026-04-23T11:20:10.886Z</time></trkpt><trkpt lat="43.2017624" lon="13.2468469"><ele>323.0</ele><time>2026-04-23T11:20:12.887Z</time></trkpt><trkpt lat="43.2016982" lon="13.2468375"><ele>323.0</ele><time>2026-04-23T11:20:13.885Z</time></trkpt><trkpt lat="43.2016288" lon="13.2468261"><ele>323.0</ele><time>2026-04-23T11:20:14.885Z</time></trkpt><trkpt lat="43.2015017" lon="13.2467861"><ele>323.0</ele><time>2026-04-23T11:20:16.886Z</time></trkpt><trkpt lat="43.2014324" lon="13.2467807"><ele>323.0</ele><time>2026-04-23T11:20:17.887Z</time></trkpt><trkpt lat="43.2013641" lon="13.2467714"><ele>323.0</ele><time>2026-04-23T11:20:18.887Z</time></trkpt><trkpt lat="43.2012712" lon="13.2467708"><ele>320.5</ele><time>2026-04-23T11:20:19.885Z</time></trkpt><trkpt lat="43.2011953" lon="13.246786"><ele>318.0</ele><time>2026-04-23T11:20:20.886Z</time></trkpt><trkpt lat="43.201111" lon="13.2468087"><ele>315.5</ele><time>2026-04-23T11:20:21.885Z</time></trkpt><trkpt lat="43.2010218" lon="13.2468337"><ele>313.0</ele><time>2026-04-23T11:20:22.887Z</time></trkpt><trkpt lat="43.2009355" lon="13.2468527"><ele>310.5</ele><time>2026-04-23T11:20:23.886Z</time></trkpt><trkpt lat="43.2008518" lon="13.2468904"><ele>308.0</ele><time>2026-04-23T11:20:24.886Z</time></trkpt><trkpt lat="43.2007644" lon="13.246912"><ele>308.0</ele><time>2026-04-23T11:20:25.885Z</time></trkpt><trkpt lat="43.2006803" lon="13.2469337"><ele>308.0</ele><time>2026-04-23T11:20:26.886Z</time></trkpt><trkpt lat="43.2005991" lon="13.2469481"><ele>308.0</ele><time>2026-04-23T11:20:27.887Z</time></trkpt><trkpt lat="43.2005194" lon="13.2469693"><ele>308.0</ele><time>2026-04-23T11:20:28.886Z</time></trkpt><trkpt lat="43.2004443" lon="13.2469869"><ele>308.0</ele><time>2026-04-23T11:20:29.886Z</time></trkpt><trkpt lat="43.2003652" lon="13.2470014"><ele>308.0</ele><time>2026-04-23T11:20:30.885Z</time></trkpt><trkpt lat="43.2002802" lon="13.2470167"><ele>304.83333333333337</ele><time>2026-04-23T11:20:31.885Z</time></trkpt><trkpt lat="43.2001955" lon="13.2470285"><ele>301.6666666666667</ele><time>2026-04-23T11:20:32.885Z</time></trkpt><trkpt lat="43.2001126" lon="13.2470391"><ele>298.5</ele><time>2026-04-23T11:20:33.886Z</time></trkpt><trkpt lat="43.2000344" lon="13.2470522"><ele>295.3333333333333</ele><time>2026-04-23T11:20:34.886Z</time></trkpt><trkpt lat="43.1999557" lon="13.2470589"><ele>292.16666666666663</ele><time>2026-04-23T11:20:35.887Z</time></trkpt><trkpt lat="43.1998768" lon="13.2470595"><ele>289.0</ele><time>2026-04-23T11:20:36.886Z</time></trkpt><trkpt lat="43.1998027" lon="13.2470597"><ele>285.5</ele><time>2026-04-23T11:20:37.886Z</time></trkpt><trkpt lat="43.199721" lon="13.2470554"><ele>282.0</ele><time>2026-04-23T11:20:38.885Z</time></trkpt><trkpt lat="43.1996439" lon="13.2470553"><ele>278.5</ele><time>2026-04-23T11:20:39.885Z</time></trkpt><trkpt lat="43.1995693" lon="13.2470589"><ele>275.0</ele><time>2026-04-23T11:20:40.886Z</time></trkpt><trkpt lat="43.1994889" lon="13.247064"><ele>271.5</ele><time>2026-04-23T11:20:41.887Z</time></trkpt><trkpt lat="43.1994129" lon="13.2470616"><ele>268.0</ele><time>2026-04-23T11:20:42.886Z</time></trkpt><trkpt lat="43.1993298" lon="13.2470633"><ele>268.0</ele><time>2026-04-23T11:20:43.886Z</time></trkpt><trkpt lat="43.1992462" lon="13.2470708"><ele>268.0</ele><time>2026-04-23T11:20:44.886Z</time></trkpt><trkpt lat="43.1991743" lon="13.2470619"><ele>268.0</ele><time>2026-04-23T11:20:45.887Z</time></trkpt><trkpt lat="43.1991043" lon="13.2470424"><ele>268.0</ele><time>2026-04-23T11:20:46.887Z</time></trkpt><trkpt lat="43.1990263" lon="13.246935"><ele>268.0</ele><time>2026-04-23T11:20:48.886Z</time></trkpt><trkpt lat="43.1990192" lon="13.2468372"><ele>268.0</ele><time>2026-04-23T11:20:49.886Z</time></trkpt><trkpt lat="43.1990358" lon="13.2466984"><ele>268.0</ele><time>2026-04-23T11:20:50.886Z</time></trkpt><trkpt lat="43.1990475" lon="13.2465571"><ele>268.0</ele><time>2026-04-23T11:20:51.887Z</time></trkpt><trkpt lat="43.1990552" lon="13.2464212"><ele>268.0</ele><time>2026-04-23T11:20:52.885Z</time></trkpt><trkpt lat="43.1990666" lon="13.2463031"><ele>268.0</ele><time>2026-04-23T11:20:53.886Z</time></trkpt><trkpt lat="43.1990764" lon="13.2462022"><ele>268.0</ele><time>2026-04-23T11:20:54.886Z</time></trkpt><trkpt lat="43.1990777" lon="13.2460815"><ele>268.0</ele><time>2026-04-23T11:20:56.887Z</time></trkpt><trkpt lat="43.1990393" lon="13.2459997"><ele>268.0</ele><time>2026-04-23T11:20:59.886Z</time></trkpt><trkpt lat="43.1990435" lon="13.2458785"><ele>268.0</ele><time>2026-04-23T11:21:01.886Z</time></trkpt><trkpt lat="43.1990592" lon="13.2457776"><ele>268.0</ele><time>2026-04-23T11:21:02.886Z</time></trkpt><trkpt lat="43.1990748" lon="13.2456766"><ele>268.0</ele><time>2026-04-23T11:21:03.887Z</time></trkpt><trkpt lat="43.1990729" lon="13.2455383"><ele>268.0</ele><time>2026-04-23T11:21:04.886Z</time></trkpt><trkpt lat="43.1990918" lon="13.2453872"><ele>268.0</ele><time>2026-04-23T11:21:05.885Z</time></trkpt><trkpt lat="43.1991012" lon="13.245205"><ele>268.0</ele><time>2026-04-23T11:21:06.886Z</time></trkpt><trkpt lat="43.1991141" lon="13.2450345"><ele>268.0</ele><time>2026-04-23T11:21:07.888Z</time></trkpt><trkpt lat="43.1991206" lon="13.2448444"><ele>268.0</ele><time>2026-04-23T11:21:08.886Z</time></trkpt><trkpt lat="43.1991185" lon="13.244641"><ele>268.75</ele><time>2026-04-23T11:21:09.886Z</time></trkpt><trkpt lat="43.1991144" lon="13.2444401"><ele>269.5</ele><time>2026-04-23T11:21:10.886Z</time></trkpt><trkpt lat="43.1991128" lon="13.2442469"><ele>270.25</ele><time>2026-04-23T11:21:11.885Z</time></trkpt><trkpt lat="43.1991093" lon="13.2440651"><ele>271.0</ele><time>2026-04-23T11:21:12.886Z</time></trkpt><trkpt lat="43.1991216" lon="13.2439142"><ele>271.25</ele><time>2026-04-23T11:21:13.886Z</time></trkpt><trkpt lat="43.1991467" lon="13.2437518"><ele>271.5</ele><time>2026-04-23T11:21:14.887Z</time></trkpt><trkpt lat="43.1991997" lon="13.2435905"><ele>271.75</ele><time>2026-04-23T11:21:15.885Z</time></trkpt><trkpt lat="43.1992514" lon="13.2434354"><ele>272.0</ele><time>2026-04-23T11:21:16.886Z</time></trkpt><trkpt lat="43.1993013" lon="13.2432913"><ele>272.0</ele><time>2026-04-23T11:21:17.885Z</time></trkpt><trkpt lat="43.199348" lon="13.2431618"><ele>272.0</ele><time>2026-04-23T11:21:18.886Z</time></trkpt><trkpt lat="43.1993812" lon="13.2430452"><ele>272.0</ele><time>2026-04-23T11:21:19.886Z</time></trkpt><trkpt lat="43.1994226" lon="13.2429122"><ele>272.0</ele><time>2026-04-23T11:21:21.885Z</time></trkpt><trkpt lat="43.1993633" lon="13.2429772"><ele>272.0</ele><time>2026-04-23T11:21:29.887Z</time></trkpt><trkpt lat="43.1993207" lon="13.2431433"><ele>272.0</ele><time>2026-04-23T11:21:31.885Z</time></trkpt><trkpt lat="43.1992856" lon="13.2432517"><ele>272.0</ele><time>2026-04-23T11:21:32.885Z</time></trkpt><trkpt lat="43.1992488" lon="13.243362"><ele>272.0</ele><time>2026-04-23T11:21:33.886Z</time></trkpt><trkpt lat="43.1992081" lon="13.2434684"><ele>272.0</ele><time>2026-04-23T11:21:34.886Z</time></trkpt><trkpt lat="43.199165" lon="13.2435853"><ele>272.0</ele><time>2026-04-23T11:21:35.886Z</time></trkpt><trkpt lat="43.1991329" lon="13.2437059"><ele>272.0</ele><time>2026-04-23T11:21:36.885Z</time></trkpt><trkpt lat="43.1991112" lon="13.2438544"><ele>272.0</ele><time>2026-04-23T11:21:37.885Z</time></trkpt><trkpt lat="43.1990975" lon="13.244005"><ele>272.0</ele><time>2026-04-23T11:21:38.885Z</time></trkpt><trkpt lat="43.199096" lon="13.2441738"><ele>272.0</ele><time>2026-04-23T11:21:39.886Z</time></trkpt><trkpt lat="43.1990944" lon="13.2443416"><ele>271.8</ele><time>2026-04-23T11:21:40.888Z</time></trkpt><trkpt lat="43.1991037" lon="13.2444979"><ele>271.6</ele><time>2026-04-23T11:21:41.887Z</time></trkpt><trkpt lat="43.1991024" lon="13.2446505"><ele>271.40000000000003</ele><time>2026-04-23T11:21:42.886Z</time></trkpt><trkpt lat="43.1991049" lon="13.2447939"><ele>271.2</ele><time>2026-04-23T11:21:43.887Z</time></trkpt><trkpt lat="43.1991006" lon="13.2449308"><ele>271.0</ele><time>2026-04-23T11:21:44.885Z</time></trkpt><trkpt lat="43.1990951" lon="13.245064"><ele>270.66666666666663</ele><time>2026-04-23T11:21:45.886Z</time></trkpt><trkpt lat="43.19908" lon="13.2451878"><ele>270.3333333333333</ele><time>2026-04-23T11:21:46.886Z</time></trkpt><trkpt lat="43.1990742" lon="13.2452892"><ele>270.0</ele><time>2026-04-23T11:21:47.886Z</time></trkpt><trkpt lat="43.1990685" lon="13.2453903"><ele>269.6666666666667</ele><time>2026-04-23T11:21:48.885Z</time></trkpt><trkpt lat="43.1990552" lon="13.2455075"><ele>269.33333333333337</ele><time>2026-04-23T11:21:49.887Z</time></trkpt><trkpt lat="43.1990405" lon="13.2456329"><ele>269.0</ele><time>2026-04-23T11:21:50.886Z</time></trkpt><trkpt lat="43.1990295" lon="13.2457414"><ele>266.2</ele><time>2026-04-23T11:21:51.887Z</time></trkpt><trkpt lat="43.1989625" lon="13.2458502"><ele>263.4</ele><time>2026-04-23T11:21:53.887Z</time></trkpt><trkpt lat="43.1988522" lon="13.2457743"><ele>260.6</ele><time>2026-04-23T11:21:55.886Z</time></trkpt><trkpt lat="43.1987773" lon="13.2456925"><ele>257.8</ele><time>2026-04-23T11:21:56.886Z</time></trkpt><trkpt lat="43.1986968" lon="13.2455923"><ele>255.0</ele><time>2026-04-23T11:21:57.888Z</time></trkpt><trkpt lat="43.1986058" lon="13.2454765"><ele>254.75</ele><time>2026-04-23T11:21:58.886Z</time></trkpt><trkpt lat="43.1985133" lon="13.2453596"><ele>254.5</ele><time>2026-04-23T11:21:59.886Z</time></trkpt><trkpt lat="43.1984153" lon="13.2452349"><ele>254.25</ele><time>2026-04-23T11:22:00.887Z</time></trkpt><trkpt lat="43.1983061" lon="13.2451113"><ele>254.0</ele><time>2026-04-23T11:22:01.886Z</time></trkpt><trkpt lat="43.1982035" lon="13.2449802"><ele>254.0</ele><time>2026-04-23T11:22:02.885Z</time></trkpt><trkpt lat="43.1981162" lon="13.2448522"><ele>254.0</ele><time>2026-04-23T11:22:03.886Z</time></trkpt><trkpt lat="43.1980285" lon="13.2447023"><ele>254.0</ele><time>2026-04-23T11:22:04.886Z</time></trkpt><trkpt lat="43.1979459" lon="13.2445311"><ele>254.0</ele><time>2026-04-23T11:22:05.885Z</time></trkpt><trkpt lat="43.1978699" lon="13.2443401"><ele>254.0</ele><time>2026-04-23T11:22:06.886Z</time></trkpt><trkpt lat="43.1978023" lon="13.2441365"><ele>254.0</ele><time>2026-04-23T11:22:07.885Z</time></trkpt><trkpt lat="43.1977231" lon="13.2439309"><ele>254.0</ele><time>2026-04-23T11:22:08.886Z</time></trkpt><trkpt lat="43.1976403" lon="13.243728"><ele>255.66666666666669</ele><time>2026-04-23T11:22:09.886Z</time></trkpt><trkpt lat="43.1975551" lon="13.2435216"><ele>257.3333333333333</ele><time>2026-04-23T11:22:10.886Z</time></trkpt><trkpt lat="43.1974664" lon="13.2433166"><ele>259.0</ele><time>2026-04-23T11:22:11.885Z</time></trkpt><trkpt lat="43.19738" lon="13.2430977"><ele>260.3333333333333</ele><time>2026-04-23T11:22:12.885Z</time></trkpt><trkpt lat="43.1973025" lon="13.2428819"><ele>261.6666666666667</ele><time>2026-04-23T11:22:13.885Z</time></trkpt><trkpt lat="43.1972239" lon="13.2426493"><ele>263.0</ele><time>2026-04-23T11:22:14.887Z</time></trkpt><trkpt lat="43.1971606" lon="13.2424185"><ele>264.6666666666667</ele><time>2026-04-23T11:22:15.885Z</time></trkpt><trkpt lat="43.1970934" lon="13.2421912"><ele>266.3333333333333</ele><time>2026-04-23T11:22:16.886Z</time></trkpt><trkpt lat="43.1970385" lon="13.2419623"><ele>268.0</ele><time>2026-04-23T11:22:17.885Z</time></trkpt><trkpt lat="43.1969735" lon="13.241715"><ele>268.0</ele><time>2026-04-23T11:22:18.886Z</time></trkpt><trkpt lat="43.1969149" lon="13.2414699"><ele>268.0</ele><time>2026-04-23T11:22:19.886Z</time></trkpt><trkpt lat="43.1968583" lon="13.2412264"><ele>268.0</ele><time>2026-04-23T11:22:20.886Z</time></trkpt><trkpt lat="43.1968014" lon="13.2409875"><ele>269.66666666666663</ele><time>2026-04-23T11:22:21.887Z</time></trkpt><trkpt lat="43.1967497" lon="13.2407473"><ele>271.3333333333333</ele><time>2026-04-23T11:22:22.887Z</time></trkpt><trkpt lat="43.1967041" lon="13.2405028"><ele>273.0</ele><time>2026-04-23T11:22:23.887Z</time></trkpt><trkpt lat="43.1966682" lon="13.2402631"><ele>276.6666666666667</ele><time>2026-04-23T11:22:24.886Z</time></trkpt><trkpt lat="43.1966231" lon="13.2400329"><ele>280.33333333333337</ele><time>2026-04-23T11:22:25.886Z</time></trkpt><trkpt lat="43.1965838" lon="13.2397985"><ele>284.0</ele><time>2026-04-23T11:22:26.886Z</time></trkpt><trkpt lat="43.1965301" lon="13.2395832"><ele>282.0</ele><time>2026-04-23T11:22:27.887Z</time></trkpt><trkpt lat="43.1964763" lon="13.2393668"><ele>280.0</ele><time>2026-04-23T11:22:28.886Z</time></trkpt><trkpt lat="43.1964262" lon="13.2391584"><ele>278.0</ele><time>2026-04-23T11:22:29.886Z</time></trkpt><trkpt lat="43.1963866" lon="13.2389543"><ele>282.6666666666667</ele><time>2026-04-23T11:22:30.885Z</time></trkpt><trkpt lat="43.1963336" lon="13.2387308"><ele>287.3333333333333</ele><time>2026-04-23T11:22:31.886Z</time></trkpt><trkpt lat="43.1962889" lon="13.2384978"><ele>292.0</ele><time>2026-04-23T11:22:32.885Z</time></trkpt><trkpt lat="43.1962335" lon="13.2382657"><ele>295.66666666666663</ele><time>2026-04-23T11:22:33.885Z</time></trkpt><trkpt lat="43.1961813" lon="13.2380421"><ele>299.3333333333333</ele><time>2026-04-23T11:22:34.886Z</time></trkpt><trkpt lat="43.1961274" lon="13.2378146"><ele>303.0</ele><time>2026-04-23T11:22:35.885Z</time></trkpt><trkpt lat="43.196064" lon="13.2375791"><ele>303.0</ele><time>2026-04-23T11:22:36.885Z</time></trkpt><trkpt lat="43.1960109" lon="13.2373768"><ele>303.0</ele><time>2026-04-23T11:22:37.886Z</time></trkpt><trkpt lat="43.1959603" lon="13.2371851"><ele>303.0</ele><time>2026-04-23T11:22:38.886Z</time></trkpt><trkpt lat="43.1959034" lon="13.2370196"><ele>303.0</ele><time>2026-04-23T11:22:39.886Z</time></trkpt><trkpt lat="43.1958606" lon="13.2368681"><ele>304.5</ele><time>2026-04-23T11:22:40.885Z</time></trkpt><trkpt lat="43.1958233" lon="13.2367136"><ele>306.0</ele><time>2026-04-23T11:22:41.886Z</time></trkpt><trkpt lat="43.1958045" lon="13.2365544"><ele>307.5</ele><time>2026-04-23T11:22:42.886Z</time></trkpt><trkpt lat="43.1957983" lon="13.2363892"><ele>309.0</ele><time>2026-04-23T11:22:43.887Z</time></trkpt><trkpt lat="43.1958002" lon="13.2362122"><ele>311.0</ele><time>2026-04-23T11:22:44.887Z</time></trkpt><trkpt lat="43.1958064" lon="13.2360272"><ele>313.0</ele><time>2026-04-23T11:22:45.886Z</time></trkpt><trkpt lat="43.1958021" lon="13.2358378"><ele>315.0</ele><time>2026-04-23T11:22:46.886Z</time></trkpt><trkpt lat="43.1957996" lon="13.2356492"><ele>317.0</ele><time>2026-04-23T11:22:47.886Z</time></trkpt><trkpt lat="43.1957906" lon="13.2354556"><ele>318.0</ele><time>2026-04-23T11:22:48.886Z</time></trkpt><trkpt lat="43.1957786" lon="13.2352613"><ele>319.0</ele><time>2026-04-23T11:22:49.887Z</time></trkpt><trkpt lat="43.1957709" lon="13.2350626"><ele>320.0</ele><time>2026-04-23T11:22:50.886Z</time></trkpt><trkpt lat="43.1957723" lon="13.2348567"><ele>321.0</ele><time>2026-04-23T11:22:51.885Z</time></trkpt><trkpt lat="43.1957744" lon="13.2346534"><ele>321.5</ele><time>2026-04-23T11:22:52.886Z</time></trkpt><trkpt lat="43.1957801" lon="13.2344552"><ele>322.0</ele><time>2026-04-23T11:22:53.887Z</time></trkpt><trkpt lat="43.1957864" lon="13.2342569"><ele>322.5</ele><time>2026-04-23T11:22:54.885Z</time></trkpt><trkpt lat="43.1957901" lon="13.2340566"><ele>323.0</ele><time>2026-04-23T11:22:55.886Z</time></trkpt><trkpt lat="43.1957941" lon="13.2338601"><ele>323.0</ele><time>2026-04-23T11:22:56.886Z</time></trkpt><trkpt lat="43.1957896" lon="13.2336544"><ele>323.0</ele><time>2026-04-23T11:22:57.886Z</time></trkpt><trkpt lat="43.195787" lon="13.233447"><ele>323.0</ele><time>2026-04-23T11:22:58.885Z</time></trkpt><trkpt lat="43.1957827" lon="13.2332406"><ele>320.6666666666667</ele><time>2026-04-23T11:22:59.887Z</time></trkpt><trkpt lat="43.1957784" lon="13.2330297"><ele>318.3333333333333</ele><time>2026-04-23T11:23:00.885Z</time></trkpt><trkpt lat="43.1957786" lon="13.2328183"><ele>316.0</ele><time>2026-04-23T11:23:01.887Z</time></trkpt><trkpt lat="43.1957772" lon="13.2325933"><ele>316.0</ele><time>2026-04-23T11:23:02.886Z</time></trkpt><trkpt lat="43.1957748" lon="13.2323693"><ele>316.0</ele><time>2026-04-23T11:23:03.887Z</time></trkpt><trkpt lat="43.1957747" lon="13.2321352"><ele>316.0</ele><time>2026-04-23T11:23:04.886Z</time></trkpt><trkpt lat="43.1957733" lon="13.2319087"><ele>315.3333333333333</ele><time>2026-04-23T11:23:05.886Z</time></trkpt><trkpt lat="43.1957743" lon="13.2316836"><ele>314.6666666666667</ele><time>2026-04-23T11:23:06.886Z</time></trkpt><trkpt lat="43.195759" lon="13.2314704"><ele>314.0</ele><time>2026-04-23T11:23:07.885Z</time></trkpt><trkpt lat="43.1957437" lon="13.231277"><ele>315.25</ele><time>2026-04-23T11:23:08.886Z</time></trkpt><trkpt lat="43.1957139" lon="13.2311054"><ele>316.5</ele><time>2026-04-23T11:23:09.888Z</time></trkpt><trkpt lat="43.1956698" lon="13.2309539"><ele>317.75</ele><time>2026-04-23T11:23:10.887Z</time></trkpt><trkpt lat="43.1955977" lon="13.2308149"><ele>319.0</ele><time>2026-04-23T11:23:11.887Z</time></trkpt><trkpt lat="43.1955111" lon="13.2306682"><ele>317.5</ele><time>2026-04-23T11:23:12.885Z</time></trkpt><trkpt lat="43.1954234" lon="13.2305123"><ele>316.0</ele><time>2026-04-23T11:23:13.885Z</time></trkpt><trkpt lat="43.1953503" lon="13.2303255"><ele>314.5</ele><time>2026-04-23T11:23:14.886Z</time></trkpt><trkpt lat="43.1952816" lon="13.2301472"><ele>313.0</ele><time>2026-04-23T11:23:15.885Z</time></trkpt><trkpt lat="43.1952227" lon="13.2299562"><ele>313.75</ele><time>2026-04-23T11:23:16.888Z</time></trkpt><trkpt lat="43.1951693" lon="13.2297764"><ele>314.5</ele><time>2026-04-23T11:23:17.886Z</time></trkpt><trkpt lat="43.1951193" lon="13.2295992"><ele>315.25</ele><time>2026-04-23T11:23:18.885Z</time></trkpt><trkpt lat="43.195079" lon="13.2294167"><ele>316.0</ele><time>2026-04-23T11:23:19.887Z</time></trkpt><trkpt lat="43.1950515" lon="13.2292227"><ele>316.0</ele><time>2026-04-23T11:23:20.885Z</time></trkpt><trkpt lat="43.1950263" lon="13.2290333"><ele>316.0</ele><time>2026-04-23T11:23:21.887Z</time></trkpt><trkpt lat="43.1949907" lon="13.2288395"><ele>316.0</ele><time>2026-04-23T11:23:22.887Z</time></trkpt><trkpt lat="43.1949647" lon="13.2286399"><ele>316.0</ele><time>2026-04-23T11:23:23.886Z</time></trkpt><trkpt lat="43.1949271" lon="13.2284303"><ele>315.3333333333333</ele><time>2026-04-23T11:23:24.886Z</time></trkpt><trkpt lat="43.1948893" lon="13.2282144"><ele>314.6666666666667</ele><time>2026-04-23T11:23:25.886Z</time></trkpt><trkpt lat="43.1948377" lon="13.2279865"><ele>314.0</ele><time>2026-04-23T11:23:26.886Z</time></trkpt><trkpt lat="43.1947837" lon="13.2277673"><ele>314.0</ele><time>2026-04-23T11:23:27.887Z</time></trkpt><trkpt lat="43.1947356" lon="13.2275541"><ele>314.0</ele><time>2026-04-23T11:23:28.885Z</time></trkpt><trkpt lat="43.1947036" lon="13.2273451"><ele>314.0</ele><time>2026-04-23T11:23:29.886Z</time></trkpt><trkpt lat="43.1946851" lon="13.2271365"><ele>317.0</ele><time>2026-04-23T11:23:30.886Z</time></trkpt><trkpt lat="43.1946791" lon="13.226915"><ele>320.0</ele><time>2026-04-23T11:23:31.887Z</time></trkpt><trkpt lat="43.194687" lon="13.2266932"><ele>323.0</ele><time>2026-04-23T11:23:32.886Z</time></trkpt><trkpt lat="43.194688" lon="13.2264678"><ele>326.33333333333337</ele><time>2026-04-23T11:23:33.885Z</time></trkpt><trkpt lat="43.1946832" lon="13.2262408"><ele>329.6666666666667</ele><time>2026-04-23T11:23:34.886Z</time></trkpt><trkpt lat="43.1946658" lon="13.2260122"><ele>333.0</ele><time>2026-04-23T11:23:35.885Z</time></trkpt><trkpt lat="43.194628" lon="13.2257917"><ele>336.6666666666667</ele><time>2026-04-23T11:23:36.887Z</time></trkpt><trkpt lat="43.1945887" lon="13.2255743"><ele>340.33333333333337</ele><time>2026-04-23T11:23:37.887Z</time></trkpt><trkpt lat="43.1945583" lon="13.2253558"><ele>344.0</ele><time>2026-04-23T11:23:38.887Z</time></trkpt><trkpt lat="43.1945475" lon="13.2251657"><ele>344.0</ele><time>2026-04-23T11:23:39.888Z</time></trkpt><trkpt lat="43.1945526" lon="13.2249843"><ele>344.0</ele><time>2026-04-23T11:23:40.887Z</time></trkpt><trkpt lat="43.1945789" lon="13.2248115"><ele>344.0</ele><time>2026-04-23T11:23:41.886Z</time></trkpt><trkpt lat="43.194624" lon="13.2246499"><ele>344.0</ele><time>2026-04-23T11:23:42.885Z</time></trkpt><trkpt lat="43.1946628" lon="13.2244806"><ele>348.0</ele><time>2026-04-23T11:23:43.886Z</time></trkpt><trkpt lat="43.1947009" lon="13.2243148"><ele>352.0</ele><time>2026-04-23T11:23:44.886Z</time></trkpt><trkpt lat="43.1947285" lon="13.2241392"><ele>356.0</ele><time>2026-04-23T11:23:45.886Z</time></trkpt><trkpt lat="43.1947537" lon="13.2239521"><ele>360.0</ele><time>2026-04-23T11:23:46.885Z</time></trkpt><trkpt lat="43.1947829" lon="13.2237752"><ele>363.25</ele><time>2026-04-23T11:23:47.885Z</time></trkpt><trkpt lat="43.1948321" lon="13.2235967"><ele>366.5</ele><time>2026-04-23T11:23:48.887Z</time></trkpt><trkpt lat="43.194879" lon="13.2234145"><ele>369.75</ele><time>2026-04-23T11:23:49.886Z</time></trkpt><trkpt lat="43.1949295" lon="13.2232193"><ele>373.0</ele><time>2026-04-23T11:23:50.886Z</time></trkpt><trkpt lat="43.1949788" lon="13.2230415"><ele>374.5</ele><time>2026-04-23T11:23:51.887Z</time></trkpt><trkpt lat="43.1950104" lon="13.2228613"><ele>376.0</ele><time>2026-04-23T11:23:52.887Z</time></trkpt><trkpt lat="43.1950268" lon="13.2226627"><ele>377.5</ele><time>2026-04-23T11:23:53.887Z</time></trkpt><trkpt lat="43.1950428" lon="13.2224524"><ele>379.0</ele><time>2026-04-23T11:23:54.886Z</time></trkpt><trkpt lat="43.1950543" lon="13.2222344"><ele>382.0</ele><time>2026-04-23T11:23:55.887Z</time></trkpt><trkpt lat="43.1950808" lon="13.2220002"><ele>385.0</ele><time>2026-04-23T11:23:56.887Z</time></trkpt><trkpt lat="43.1951267" lon="13.2217847"><ele>388.0</ele><time>2026-04-23T11:23:57.886Z</time></trkpt><trkpt lat="43.1951849" lon="13.2215866"><ele>389.75</ele><time>2026-04-23T11:23:58.885Z</time></trkpt><trkpt lat="43.1952464" lon="13.2214298"><ele>391.5</ele><time>2026-04-23T11:23:59.886Z</time></trkpt><trkpt lat="43.1952828" lon="13.2212504"><ele>393.25</ele><time>2026-04-23T11:24:00.886Z</time></trkpt><trkpt lat="43.1953131" lon="13.2210642"><ele>395.0</ele><time>2026-04-23T11:24:01.886Z</time></trkpt><trkpt lat="43.1953028" lon="13.2208647"><ele>395.0</ele><time>2026-04-23T11:24:02.886Z</time></trkpt><trkpt lat="43.1952929" lon="13.2206648"><ele>395.0</ele><time>2026-04-23T11:24:03.885Z</time></trkpt><trkpt lat="43.1952771" lon="13.2204571"><ele>395.0</ele><time>2026-04-23T11:24:04.886Z</time></trkpt><trkpt lat="43.1952534" lon="13.2202395"><ele>396.0</ele><time>2026-04-23T11:24:05.885Z</time></trkpt><trkpt lat="43.1952309" lon="13.2200141"><ele>397.0</ele><time>2026-04-23T11:24:06.886Z</time></trkpt><trkpt lat="43.1952011" lon="13.2197885"><ele>398.0</ele><time>2026-04-23T11:24:07.886Z</time></trkpt><trkpt lat="43.195175" lon="13.2195568"><ele>400.3333333333333</ele><time>2026-04-23T11:24:08.886Z</time></trkpt><trkpt lat="43.1951508" lon="13.2193218"><ele>402.66666666666663</ele><time>2026-04-23T11:24:09.886Z</time></trkpt><trkpt lat="43.1951307" lon="13.2190889"><ele>405.0</ele><time>2026-04-23T11:24:10.887Z</time></trkpt><trkpt lat="43.1951063" lon="13.2188633"><ele>407.0</ele><time>2026-04-23T11:24:11.885Z</time></trkpt><trkpt lat="43.1950865" lon="13.2186401"><ele>409.0</ele><time>2026-04-23T11:24:12.886Z</time></trkpt><trkpt lat="43.1950706" lon="13.2184389"><ele>411.0</ele><time>2026-04-23T11:24:13.885Z</time></trkpt><trkpt lat="43.1950727" lon="13.2182307"><ele>415.0</ele><time>2026-04-23T11:24:14.886Z</time></trkpt><trkpt lat="43.1951077" lon="13.2180123"><ele>419.0</ele><time>2026-04-23T11:24:15.887Z</time></trkpt><trkpt lat="43.1951661" lon="13.2178073"><ele>423.0</ele><time>2026-04-23T11:24:16.885Z</time></trkpt><trkpt lat="43.1952279" lon="13.2175938"><ele>423.0</ele><time>2026-04-23T11:24:17.887Z</time></trkpt><trkpt lat="43.1952886" lon="13.217381"><ele>423.0</ele><time>2026-04-23T11:24:18.887Z</time></trkpt><trkpt lat="43.1953494" lon="13.2171693"><ele>423.0</ele><time>2026-04-23T11:24:19.887Z</time></trkpt><trkpt lat="43.1954077" lon="13.2169503"><ele>426.0</ele><time>2026-04-23T11:24:20.886Z</time></trkpt><trkpt lat="43.1954696" lon="13.2167351"><ele>429.0</ele><time>2026-04-23T11:24:21.886Z</time></trkpt><trkpt lat="43.1955294" lon="13.2165206"><ele>432.0</ele><time>2026-04-23T11:24:22.885Z</time></trkpt><trkpt lat="43.1955795" lon="13.2163334"><ele>435.0</ele><time>2026-04-23T11:24:23.886Z</time></trkpt><trkpt lat="43.1956218" lon="13.2161693"><ele>438.0</ele><time>2026-04-23T11:24:24.886Z</time></trkpt><trkpt lat="43.1956448" lon="13.2160165"><ele>441.0</ele><time>2026-04-23T11:24:25.885Z</time></trkpt><trkpt lat="43.1956256" lon="13.215876"><ele>444.0</ele><time>2026-04-23T11:24:26.888Z</time></trkpt><trkpt lat="43.1955715" lon="13.2157428"><ele>446.25</ele><time>2026-04-23T11:24:27.886Z</time></trkpt><trkpt lat="43.1955096" lon="13.2156098"><ele>448.5</ele><time>2026-04-23T11:24:28.885Z</time></trkpt><trkpt lat="43.1954375" lon="13.2154625"><ele>450.75</ele><time>2026-04-23T11:24:29.887Z</time></trkpt><trkpt lat="43.1953699" lon="13.2153089"><ele>453.0</ele><time>2026-04-23T11:24:30.886Z</time></trkpt><trkpt lat="43.1952919" lon="13.2151491"><ele>453.0</ele><time>2026-04-23T11:24:31.887Z</time></trkpt><trkpt lat="43.195209" lon="13.2149847"><ele>453.0</ele><time>2026-04-23T11:24:32.885Z</time></trkpt><trkpt lat="43.1951369" lon="13.2148135"><ele>453.0</ele><time>2026-04-23T11:24:33.887Z</time></trkpt><trkpt lat="43.1950664" lon="13.2146387"><ele>453.0</ele><time>2026-04-23T11:24:34.888Z</time></trkpt><trkpt lat="43.1950129" lon="13.2144661"><ele>454.0</ele><time>2026-04-23T11:24:35.886Z</time></trkpt><trkpt lat="43.1949652" lon="13.2142862"><ele>455.0</ele><time>2026-04-23T11:24:36.885Z</time></trkpt><trkpt lat="43.1949334" lon="13.2140983"><ele>456.0</ele><time>2026-04-23T11:24:37.887Z</time></trkpt><trkpt lat="43.194904" lon="13.2139028"><ele>457.0</ele><time>2026-04-23T11:24:38.887Z</time></trkpt><trkpt lat="43.1948649" lon="13.2137196"><ele>460.25</ele><time>2026-04-23T11:24:39.886Z</time></trkpt><trkpt lat="43.1948221" lon="13.2135444"><ele>463.5</ele><time>2026-04-23T11:24:40.886Z</time></trkpt><trkpt lat="43.1947661" lon="13.2133627"><ele>466.75</ele><time>2026-04-23T11:24:41.886Z</time></trkpt><trkpt lat="43.1947121" lon="13.2131807"><ele>470.0</ele><time>2026-04-23T11:24:42.885Z</time></trkpt><trkpt lat="43.1946536" lon="13.2129847"><ele>470.0</ele><time>2026-04-23T11:24:43.885Z</time></trkpt><trkpt lat="43.1945986" lon="13.2127845"><ele>470.0</ele><time>2026-04-23T11:24:44.886Z</time></trkpt><trkpt lat="43.1945569" lon="13.2125768"><ele>470.0</ele><time>2026-04-23T11:24:45.885Z</time></trkpt><trkpt lat="43.1945164" lon="13.2123697"><ele>470.3333333333333</ele><time>2026-04-23T11:24:46.885Z</time></trkpt><trkpt lat="43.1944906" lon="13.212147"><ele>470.66666666666663</ele><time>2026-04-23T11:24:47.886Z</time></trkpt><trkpt lat="43.1944668" lon="13.211919"><ele>471.0</ele><time>2026-04-23T11:24:48.887Z</time></trkpt><trkpt lat="43.1944584" lon="13.2117002"><ele>471.0</ele><time>2026-04-23T11:24:49.888Z</time></trkpt><trkpt lat="43.1944517" lon="13.2114917"><ele>471.0</ele><time>2026-04-23T11:24:50.886Z</time></trkpt><trkpt lat="43.1944761" lon="13.2112828"><ele>471.0</ele><time>2026-04-23T11:24:51.886Z</time></trkpt><trkpt lat="43.1945217" lon="13.2110764"><ele>472.0</ele><time>2026-04-23T11:24:52.887Z</time></trkpt><trkpt lat="43.1945994" lon="13.2108552"><ele>473.0</ele><time>2026-04-23T11:24:53.886Z</time></trkpt><trkpt lat="43.1946933" lon="13.2106534"><ele>474.0</ele><time>2026-04-23T11:24:54.886Z</time></trkpt><trkpt lat="43.1948089" lon="13.2104519"><ele>474.66666666666663</ele><time>2026-04-23T11:24:55.887Z</time></trkpt><trkpt lat="43.1949411" lon="13.2102594"><ele>475.3333333333333</ele><time>2026-04-23T11:24:56.887Z</time></trkpt><trkpt lat="43.1950802" lon="13.2100775"><ele>476.0</ele><time>2026-04-23T11:24:57.887Z</time></trkpt><trkpt lat="43.1952234" lon="13.2098785"><ele>477.66666666666663</ele><time>2026-04-23T11:24:58.887Z</time></trkpt><trkpt lat="43.1953739" lon="13.2096784"><ele>479.33333333333337</ele><time>2026-04-23T11:24:59.886Z</time></trkpt><trkpt lat="43.1955222" lon="13.2094919"><ele>481.0</ele><time>2026-04-23T11:25:00.885Z</time></trkpt><trkpt lat="43.1956595" lon="13.2093057"><ele>481.25</ele><time>2026-04-23T11:25:01.887Z</time></trkpt><trkpt lat="43.1957634" lon="13.2091504"><ele>481.5</ele><time>2026-04-23T11:25:02.886Z</time></trkpt><trkpt lat="43.1958567" lon="13.2089838"><ele>481.75</ele><time>2026-04-23T11:25:03.885Z</time></trkpt><trkpt lat="43.1959192" lon="13.2088442"><ele>482.0</ele><time>2026-04-23T11:25:04.885Z</time></trkpt><trkpt lat="43.1959712" lon="13.208688"><ele>482.5</ele><time>2026-04-23T11:25:05.885Z</time></trkpt><trkpt lat="43.1960049" lon="13.2085098"><ele>483.0</ele><time>2026-04-23T11:25:06.885Z</time></trkpt><trkpt lat="43.1960284" lon="13.2083317"><ele>483.5</ele><time>2026-04-23T11:25:07.885Z</time></trkpt><trkpt lat="43.196045" lon="13.2081498"><ele>484.0</ele><time>2026-04-23T11:25:08.885Z</time></trkpt><trkpt lat="43.1960658" lon="13.2079678"><ele>482.25</ele><time>2026-04-23T11:25:09.886Z</time></trkpt><trkpt lat="43.1960743" lon="13.207785"><ele>480.5</ele><time>2026-04-23T11:25:10.887Z</time></trkpt><trkpt lat="43.1960616" lon="13.2076062"><ele>478.75</ele><time>2026-04-23T11:25:11.885Z</time></trkpt><trkpt lat="43.1960444" lon="13.2074376"><ele>477.0</ele><time>2026-04-23T11:25:12.888Z</time></trkpt><trkpt lat="43.1960134" lon="13.2072687"><ele>475.75</ele><time>2026-04-23T11:25:13.888Z</time></trkpt><trkpt lat="43.1959834" lon="13.2070983"><ele>474.5</ele><time>2026-04-23T11:25:14.885Z</time></trkpt><trkpt lat="43.1959422" lon="13.2069339"><ele>473.25</ele><time>2026-04-23T11:25:15.885Z</time></trkpt><trkpt lat="43.1958973" lon="13.2067758"><ele>472.0</ele><time>2026-04-23T11:25:16.887Z</time></trkpt><trkpt lat="43.1958487" lon="13.2066284"><ele>470.40000000000003</ele><time>2026-04-23T11:25:17.887Z</time></trkpt><trkpt lat="43.19579" lon="13.2064794"><ele>468.80000000000007</ele><time>2026-04-23T11:25:18.886Z</time></trkpt><trkpt lat="43.1957521" lon="13.2063456"><ele>467.2</ele><time>2026-04-23T11:25:19.885Z</time></trkpt><trkpt lat="43.1957452" lon="13.2062072"><ele>465.6</ele><time>2026-04-23T11:25:20.885Z</time></trkpt><trkpt lat="43.1957489" lon="13.2060651"><ele>464.0</ele><time>2026-04-23T11:25:21.887Z</time></trkpt><trkpt lat="43.1957859" lon="13.2059222"><ele>464.0</ele><time>2026-04-23T11:25:22.888Z</time></trkpt><trkpt lat="43.1958483" lon="13.2058114"><ele>464.0</ele><time>2026-04-23T11:25:23.886Z</time></trkpt><trkpt lat="43.1958848" lon="13.2056775"><ele>464.0</ele><time>2026-04-23T11:25:24.885Z</time></trkpt><trkpt lat="43.1958857" lon="13.2055445"><ele>464.0</ele><time>2026-04-23T11:25:25.886Z</time></trkpt><trkpt lat="43.1958787" lon="13.2054009"><ele>464.0</ele><time>2026-04-23T11:25:26.885Z</time></trkpt><trkpt lat="43.1958411" lon="13.2052804"><ele>464.2</ele><time>2026-04-23T11:25:27.886Z</time></trkpt><trkpt lat="43.1957664" lon="13.2051767"><ele>464.4</ele><time>2026-04-23T11:25:28.887Z</time></trkpt><trkpt lat="43.1956976" lon="13.2050754"><ele>464.6</ele><time>2026-04-23T11:25:29.885Z</time></trkpt><trkpt lat="43.1956427" lon="13.204964"><ele>464.8</ele><time>2026-04-23T11:25:30.888Z</time></trkpt><trkpt lat="43.195623" lon="13.2048137"><ele>465.0</ele><time>2026-04-23T11:25:31.886Z</time></trkpt><trkpt lat="43.1956106" lon="13.2046549"><ele>460.75</ele><time>2026-04-23T11:25:32.886Z</time></trkpt><trkpt lat="43.1956034" lon="13.2044834"><ele>456.5</ele><time>2026-04-23T11:25:33.885Z</time></trkpt><trkpt lat="43.1955921" lon="13.2043118"><ele>452.25</ele><time>2026-04-23T11:25:34.885Z</time></trkpt><trkpt lat="43.1955615" lon="13.2041171"><ele>448.0</ele><time>2026-04-23T11:25:35.885Z</time></trkpt><trkpt lat="43.1955088" lon="13.203929"><ele>448.0</ele><time>2026-04-23T11:25:36.885Z</time></trkpt><trkpt lat="43.1954398" lon="13.2037488"><ele>448.0</ele><time>2026-04-23T11:25:37.886Z</time></trkpt><trkpt lat="43.195386" lon="13.2035825"><ele>448.0</ele><time>2026-04-23T11:25:38.886Z</time></trkpt><trkpt lat="43.1953332" lon="13.2034209"><ele>448.0</ele><time>2026-04-23T11:25:39.887Z</time></trkpt><trkpt lat="43.1952959" lon="13.2032823"><ele>447.0</ele><time>2026-04-23T11:25:40.887Z</time></trkpt><trkpt lat="43.1952621" lon="13.2031359"><ele>445.99999999999994</ele><time>2026-04-23T11:25:41.885Z</time></trkpt><trkpt lat="43.1952425" lon="13.2029957"><ele>444.99999999999994</ele><time>2026-04-23T11:25:42.887Z</time></trkpt><trkpt lat="43.1952264" lon="13.2028481"><ele>444.0</ele><time>2026-04-23T11:25:43.887Z</time></trkpt><trkpt lat="43.1952243" lon="13.2026947"><ele>443.0</ele><time>2026-04-23T11:25:44.886Z</time></trkpt><trkpt lat="43.1952211" lon="13.2025378"><ele>443.0</ele><time>2026-04-23T11:25:45.887Z</time></trkpt><trkpt lat="43.1952387" lon="13.2023928"><ele>443.0</ele><time>2026-04-23T11:25:46.885Z</time></trkpt><trkpt lat="43.1952627" lon="13.2022373"><ele>443.0</ele><time>2026-04-23T11:25:47.886Z</time></trkpt><trkpt lat="43.1952992" lon="13.2020804"><ele>443.0</ele><time>2026-04-23T11:25:48.885Z</time></trkpt><trkpt lat="43.195343" lon="13.2019083"><ele>440.75</ele><time>2026-04-23T11:25:49.886Z</time></trkpt><trkpt lat="43.1953801" lon="13.201733"><ele>438.5</ele><time>2026-04-23T11:25:50.887Z</time></trkpt><trkpt lat="43.1954133" lon="13.2015715"><ele>436.25</ele><time>2026-04-23T11:25:51.886Z</time></trkpt><trkpt lat="43.1954363" lon="13.2014288"><ele>434.0</ele><time>2026-04-23T11:25:52.887Z</time></trkpt><trkpt lat="43.1954435" lon="13.2012987"><ele>432.66666666666663</ele><time>2026-04-23T11:25:53.887Z</time></trkpt><trkpt lat="43.1954287" lon="13.2011809"><ele>431.3333333333333</ele><time>2026-04-23T11:25:54.887Z</time></trkpt><trkpt lat="43.1953868" lon="13.2010772"><ele>430.0</ele><time>2026-04-23T11:25:55.887Z</time></trkpt><trkpt lat="43.1953228" lon="13.2010033"><ele>428.66666666666663</ele><time>2026-04-23T11:25:56.888Z</time></trkpt><trkpt lat="43.195237" lon="13.2009723"><ele>427.3333333333333</ele><time>2026-04-23T11:25:57.886Z</time></trkpt><trkpt lat="43.1951446" lon="13.2009562"><ele>426.0</ele><time>2026-04-23T11:25:58.887Z</time></trkpt><trkpt lat="43.1950532" lon="13.200957"><ele>426.0</ele><time>2026-04-23T11:25:59.886Z</time></trkpt><trkpt lat="43.1949765" lon="13.2009601"><ele>426.0</ele><time>2026-04-23T11:26:00.885Z</time></trkpt><trkpt lat="43.1948699" lon="13.2008895"><ele>426.0</ele><time>2026-04-23T11:26:02.886Z</time></trkpt><trkpt lat="43.1948485" lon="13.2006961"><ele>426.0</ele><time>2026-04-23T11:26:04.886Z</time></trkpt><trkpt lat="43.1948593" lon="13.2005665"><ele>426.0</ele><time>2026-04-23T11:26:05.886Z</time></trkpt><trkpt lat="43.194859" lon="13.2004162"><ele>425.0</ele><time>2026-04-23T11:26:06.886Z</time></trkpt><trkpt lat="43.1948477" lon="13.2002636"><ele>424.0</ele><time>2026-04-23T11:26:07.886Z</time></trkpt><trkpt lat="43.1948313" lon="13.2001257"><ele>423.0</ele><time>2026-04-23T11:26:08.886Z</time></trkpt><trkpt lat="43.1948225" lon="13.1999995"><ele>422.0</ele><time>2026-04-23T11:26:09.885Z</time></trkpt><trkpt lat="43.1948175" lon="13.1999059"><ele>421.0</ele><time>2026-04-23T11:26:10.885Z</time></trkpt><trkpt lat="43.1948075" lon="13.1997979"><ele>421.0</ele><time>2026-04-23T11:26:12.887Z</time></trkpt><trkpt lat="43.1947403" lon="13.1997239"><ele>421.0</ele><time>2026-04-23T11:26:15.885Z</time></trkpt><trkpt lat="43.1946608" lon="13.1996996"><ele>421.0</ele><time>2026-04-23T11:26:16.885Z</time></trkpt><trkpt lat="43.1945665" lon="13.1996946"><ele>421.0</ele><time>2026-04-23T11:26:17.887Z</time></trkpt><trkpt lat="43.1944585" lon="13.199682"><ele>421.0</ele><time>2026-04-23T11:26:18.886Z</time></trkpt><trkpt lat="43.194322" lon="13.199674"><ele>421.0</ele><time>2026-04-23T11:26:19.886Z</time></trkpt><trkpt lat="43.1941949" lon="13.1996521"><ele>421.0</ele><time>2026-04-23T11:26:20.886Z</time></trkpt><trkpt lat="43.1940662" lon="13.1996075"><ele>421.0</ele><time>2026-04-23T11:26:21.885Z</time></trkpt><trkpt lat="43.1939505" lon="13.1995295"><ele>421.0</ele><time>2026-04-23T11:26:22.886Z</time></trkpt><trkpt lat="43.1938461" lon="13.1994259"><ele>416.0</ele><time>2026-04-23T11:26:23.885Z</time></trkpt><trkpt lat="43.1937573" lon="13.1993016"><ele>411.0</ele><time>2026-04-23T11:26:24.887Z</time></trkpt><trkpt lat="43.1936727" lon="13.1991568"><ele>406.0</ele><time>2026-04-23T11:26:25.885Z</time></trkpt><trkpt lat="43.1936137" lon="13.1989856"><ele>401.0</ele><time>2026-04-23T11:26:26.885Z</time></trkpt><trkpt lat="43.193556" lon="13.1988153"><ele>401.0</ele><time>2026-04-23T11:26:27.886Z</time></trkpt><trkpt lat="43.1935264" lon="13.1986338"><ele>401.0</ele><time>2026-04-23T11:26:28.886Z</time></trkpt><trkpt lat="43.1935574" lon="13.1984727"><ele>401.0</ele><time>2026-04-23T11:26:29.887Z</time></trkpt><trkpt lat="43.1935834" lon="13.1983142"><ele>401.0</ele><time>2026-04-23T11:26:30.885Z</time></trkpt><trkpt lat="43.19367" lon="13.1982013"><ele>401.75</ele><time>2026-04-23T11:26:31.886Z</time></trkpt><trkpt lat="43.1937326" lon="13.198068"><ele>402.5</ele><time>2026-04-23T11:26:32.888Z</time></trkpt><trkpt lat="43.1937671" lon="13.1979376"><ele>403.25</ele><time>2026-04-23T11:26:33.886Z</time></trkpt><trkpt lat="43.193733" lon="13.1977623"><ele>404.0</ele><time>2026-04-23T11:26:34.885Z</time></trkpt><trkpt lat="43.1937251" lon="13.1975959"><ele>404.0</ele><time>2026-04-23T11:26:35.886Z</time></trkpt><trkpt lat="43.1937522" lon="13.197411"><ele>404.0</ele><time>2026-04-23T11:26:36.885Z</time></trkpt><trkpt lat="43.1937801" lon="13.1972498"><ele>404.0</ele><time>2026-04-23T11:26:37.886Z</time></trkpt><trkpt lat="43.1937991" lon="13.1971213"><ele>404.0</ele><time>2026-04-23T11:26:38.887Z</time></trkpt><trkpt lat="43.1937888" lon="13.1970077"><ele>404.0</ele><time>2026-04-23T11:26:39.886Z</time></trkpt><trkpt lat="43.1937704" lon="13.196916"><ele>405.16666666666663</ele><time>2026-04-23T11:26:40.886Z</time></trkpt><trkpt lat="43.1936831" lon="13.1968868"><ele>406.3333333333333</ele><time>2026-04-23T11:26:41.886Z</time></trkpt><trkpt lat="43.1936075" lon="13.1968509"><ele>407.5</ele><time>2026-04-23T11:26:42.885Z</time></trkpt><trkpt lat="43.1935534" lon="13.1968055"><ele>408.66666666666663</ele><time>2026-04-23T11:26:43.886Z</time></trkpt><trkpt lat="43.1935113" lon="13.1967354"><ele>409.8333333333333</ele><time>2026-04-23T11:26:44.887Z</time></trkpt><trkpt lat="43.1934914" lon="13.1966444"><ele>411.0</ele><time>2026-04-23T11:26:45.885Z</time></trkpt><trkpt lat="43.1934685" lon="13.1965295"><ele>412.6666666666667</ele><time>2026-04-23T11:26:46.886Z</time></trkpt><trkpt lat="43.193444" lon="13.196406"><ele>414.33333333333337</ele><time>2026-04-23T11:26:47.886Z</time></trkpt><trkpt lat="43.1934239" lon="13.1962833"><ele>416.0</ele><time>2026-04-23T11:26:48.886Z</time></trkpt><trkpt lat="43.1934107" lon="13.1961694"><ele>417.6666666666667</ele><time>2026-04-23T11:26:49.885Z</time></trkpt><trkpt lat="43.1933966" lon="13.196062"><ele>419.33333333333337</ele><time>2026-04-23T11:26:50.887Z</time></trkpt><trkpt lat="43.1933819" lon="13.1959445"><ele>421.0</ele><time>2026-04-23T11:26:51.885Z</time></trkpt><trkpt lat="43.1933724" lon="13.1958185"><ele>421.0</ele><time>2026-04-23T11:26:52.887Z</time></trkpt><trkpt lat="43.1933572" lon="13.1956844"><ele>421.0</ele><time>2026-04-23T11:26:53.887Z</time></trkpt><trkpt lat="43.1933322" lon="13.1955483"><ele>421.0</ele><time>2026-04-23T11:26:54.886Z</time></trkpt><trkpt lat="43.1932941" lon="13.1954042"><ele>421.0</ele><time>2026-04-23T11:26:55.885Z</time></trkpt><trkpt lat="43.1932633" lon="13.1952631"><ele>421.0</ele><time>2026-04-23T11:26:56.886Z</time></trkpt><trkpt lat="43.1932278" lon="13.1951428"><ele>421.50000000000006</ele><time>2026-04-23T11:26:57.886Z</time></trkpt><trkpt lat="43.1931941" lon="13.1950607"><ele>422.0</ele><time>2026-04-23T11:26:58.886Z</time></trkpt><trkpt lat="43.1930921" lon="13.1950046"><ele>422.5</ele><time>2026-04-23T11:27:00.888Z</time></trkpt><trkpt lat="43.1930191" lon="13.1950183"><ele>423.0</ele><time>2026-04-23T11:27:01.886Z</time></trkpt><trkpt lat="43.192954" lon="13.1950007"><ele>423.50000000000006</ele><time>2026-04-23T11:27:02.886Z</time></trkpt><trkpt lat="43.1928685" lon="13.1948857"><ele>424.0</ele><time>2026-04-23T11:27:04.885Z</time></trkpt><trkpt lat="43.1928411" lon="13.1947834"><ele>428.6</ele><time>2026-04-23T11:27:05.886Z</time></trkpt><trkpt lat="43.1927952" lon="13.1946786"><ele>433.2</ele><time>2026-04-23T11:27:06.886Z</time></trkpt><trkpt lat="43.1927527" lon="13.1945705"><ele>437.80000000000007</ele><time>2026-04-23T11:27:07.885Z</time></trkpt><trkpt lat="43.1926847" lon="13.1944535"><ele>442.40000000000003</ele><time>2026-04-23T11:27:08.885Z</time></trkpt><trkpt lat="43.1926228" lon="13.1943353"><ele>447.0</ele><time>2026-04-23T11:27:09.887Z</time></trkpt><trkpt lat="43.1925569" lon="13.1942324"><ele>447.0</ele><time>2026-04-23T11:27:10.886Z</time></trkpt><trkpt lat="43.1924876" lon="13.1941437"><ele>447.0</ele><time>2026-04-23T11:27:11.886Z</time></trkpt><trkpt lat="43.192411" lon="13.1940696"><ele>447.0</ele><time>2026-04-23T11:27:12.886Z</time></trkpt><trkpt lat="43.1923466" lon="13.1940029"><ele>447.0</ele><time>2026-04-23T11:27:13.888Z</time></trkpt><trkpt lat="43.1923078" lon="13.1939236"><ele>447.0</ele><time>2026-04-23T11:27:14.887Z</time></trkpt><trkpt lat="43.1922746" lon="13.1938367"><ele>447.0</ele><time>2026-04-23T11:27:15.886Z</time></trkpt><trkpt lat="43.1922593" lon="13.1937107"><ele>450.3333333333333</ele><time>2026-04-23T11:27:16.885Z</time></trkpt><trkpt lat="43.1922443" lon="13.1935827"><ele>453.66666666666663</ele><time>2026-04-23T11:27:17.887Z</time></trkpt><trkpt lat="43.1922249" lon="13.1934581"><ele>457.0</ele><time>2026-04-23T11:27:18.885Z</time></trkpt><trkpt lat="43.1921951" lon="13.193353"><ele>460.3333333333333</ele><time>2026-04-23T11:27:19.886Z</time></trkpt><trkpt lat="43.1921388" lon="13.193249"><ele>463.66666666666663</ele><time>2026-04-23T11:27:20.886Z</time></trkpt><trkpt lat="43.1920925" lon="13.1931666"><ele>467.0</ele><time>2026-04-23T11:27:21.888Z</time></trkpt><trkpt lat="43.1920472" lon="13.1931054"><ele>467.49999999999994</ele><time>2026-04-23T11:27:22.887Z</time></trkpt><trkpt lat="43.1919826" lon="13.1930065"><ele>468.0</ele><time>2026-04-23T11:27:24.885Z</time></trkpt><trkpt lat="43.1919368" lon="13.1929135"><ele>468.5</ele><time>2026-04-23T11:27:26.885Z</time></trkpt><trkpt lat="43.1919366" lon="13.1928253"><ele>469.0</ele><time>2026-04-23T11:27:28.886Z</time></trkpt><trkpt lat="43.1919542" lon="13.1926773"><ele>469.49999999999994</ele><time>2026-04-23T11:27:43.887Z</time></trkpt><trkpt lat="43.1919355" lon="13.1927907"><ele>470.0</ele><time>2026-04-23T11:27:47.887Z</time></trkpt><trkpt lat="43.1919429" lon="13.1928878"><ele>469.99999999999994</ele><time>2026-04-23T11:27:48.886Z</time></trkpt><trkpt lat="43.1919618" lon="13.192979"><ele>470.0</ele><time>2026-04-23T11:27:49.886Z</time></trkpt><trkpt lat="43.1920008" lon="13.1930478"><ele>470.0</ele><time>2026-04-23T11:27:50.887Z</time></trkpt><trkpt lat="43.1920489" lon="13.1931185"><ele>470.0</ele><time>2026-04-23T11:27:51.886Z</time></trkpt><trkpt lat="43.1920893" lon="13.1931898"><ele>469.99999999999994</ele><time>2026-04-23T11:27:52.886Z</time></trkpt><trkpt lat="43.1921635" lon="13.1933357"><ele>470.0</ele><time>2026-04-23T11:27:54.887Z</time></trkpt><trkpt lat="43.1921905" lon="13.1934197"><ele>469.49999999999994</ele><time>2026-04-23T11:27:55.887Z</time></trkpt><trkpt lat="43.1922114" lon="13.1935175"><ele>469.0</ele><time>2026-04-23T11:27:56.887Z</time></trkpt><trkpt lat="43.1922292" lon="13.1936259"><ele>468.5</ele><time>2026-04-23T11:27:57.886Z</time></trkpt><trkpt lat="43.1922441" lon="13.1937338"><ele>468.0</ele><time>2026-04-23T11:27:58.885Z</time></trkpt><trkpt lat="43.192258" lon="13.1938291"><ele>467.49999999999994</ele><time>2026-04-23T11:27:59.886Z</time></trkpt><trkpt lat="43.1922947" lon="13.1939688"><ele>467.0</ele><time>2026-04-23T11:28:01.887Z</time></trkpt><trkpt lat="43.192334" lon="13.194041"><ele>463.0</ele><time>2026-04-23T11:28:03.886Z</time></trkpt><trkpt lat="43.1924019" lon="13.1940863"><ele>459.00000000000006</ele><time>2026-04-23T11:28:05.887Z</time></trkpt><trkpt lat="43.1925198" lon="13.1941903"><ele>455.00000000000006</ele><time>2026-04-23T11:28:07.886Z</time></trkpt><trkpt lat="43.1925763" lon="13.1942682"><ele>451.0</ele><time>2026-04-23T11:28:08.886Z</time></trkpt><trkpt lat="43.1926244" lon="13.1943614"><ele>447.0</ele><time>2026-04-23T11:28:09.886Z</time></trkpt><trkpt lat="43.1926795" lon="13.1944598"><ele>447.0</ele><time>2026-04-23T11:28:10.886Z</time></trkpt><trkpt lat="43.1927391" lon="13.1945569"><ele>447.0</ele><time>2026-04-23T11:28:11.887Z</time></trkpt><trkpt lat="43.1927938" lon="13.1946554"><ele>447.0</ele><time>2026-04-23T11:28:12.885Z</time></trkpt><trkpt lat="43.1928406" lon="13.1947508"><ele>447.0</ele><time>2026-04-23T11:28:13.886Z</time></trkpt><trkpt lat="43.1928722" lon="13.1948431"><ele>447.0</ele><time>2026-04-23T11:28:14.886Z</time></trkpt><trkpt lat="43.192904" lon="13.1949216"><ele>447.0</ele><time>2026-04-23T11:28:15.887Z</time></trkpt><trkpt lat="43.1929929" lon="13.1950046"><ele>446.0</ele><time>2026-04-23T11:28:17.886Z</time></trkpt><trkpt lat="43.1931115" lon="13.1950018"><ele>445.00000000000006</ele><time>2026-04-23T11:28:19.886Z</time></trkpt><trkpt lat="43.1932075" lon="13.19505"><ele>444.00000000000006</ele><time>2026-04-23T11:28:21.887Z</time></trkpt><trkpt lat="43.1932443" lon="13.1952116"><ele>443.0</ele><time>2026-04-23T11:28:23.885Z</time></trkpt><trkpt lat="43.1932641" lon="13.1953048"><ele>442.0</ele><time>2026-04-23T11:28:24.887Z</time></trkpt><trkpt lat="43.1932831" lon="13.1954113"><ele>439.00000000000006</ele><time>2026-04-23T11:28:25.886Z</time></trkpt><trkpt lat="43.1933086" lon="13.195534"><ele>436.0</ele><time>2026-04-23T11:28:26.887Z</time></trkpt><trkpt lat="43.1933369" lon="13.1956565"><ele>433.0</ele><time>2026-04-23T11:28:27.886Z</time></trkpt><trkpt lat="43.1933503" lon="13.1957757"><ele>430.0</ele><time>2026-04-23T11:28:28.886Z</time></trkpt><trkpt lat="43.1933607" lon="13.1958891"><ele>427.00000000000006</ele><time>2026-04-23T11:28:29.886Z</time></trkpt><trkpt lat="43.1933729" lon="13.1960047"><ele>424.0</ele><time>2026-04-23T11:28:30.885Z</time></trkpt><trkpt lat="43.1933931" lon="13.1961142"><ele>423.50000000000006</ele><time>2026-04-23T11:28:31.885Z</time></trkpt><trkpt lat="43.193407" lon="13.1962154"><ele>423.0</ele><time>2026-04-23T11:28:32.887Z</time></trkpt><trkpt lat="43.1934293" lon="13.1963208"><ele>422.5</ele><time>2026-04-23T11:28:33.887Z</time></trkpt><trkpt lat="43.1934475" lon="13.1964272"><ele>422.0</ele><time>2026-04-23T11:28:34.885Z</time></trkpt><trkpt lat="43.1934612" lon="13.1965209"><ele>421.50000000000006</ele><time>2026-04-23T11:28:35.885Z</time></trkpt><trkpt lat="43.1934774" lon="13.196614"><ele>421.0</ele><time>2026-04-23T11:28:36.886Z</time></trkpt><trkpt lat="43.1935006" lon="13.1967452"><ele>421.33333333333337</ele><time>2026-04-23T11:28:38.886Z</time></trkpt><trkpt lat="43.1934752" lon="13.1968292"><ele>421.6666666666667</ele><time>2026-04-23T11:28:40.887Z</time></trkpt><trkpt lat="43.1933769" lon="13.1969249"><ele>422.0</ele><time>2026-04-23T11:28:42.886Z</time></trkpt><trkpt lat="43.1933132" lon="13.1969868"><ele>422.33333333333337</ele><time>2026-04-23T11:28:43.886Z</time></trkpt><trkpt lat="43.1932395" lon="13.197059"><ele>422.6666666666667</ele><time>2026-04-23T11:28:44.886Z</time></trkpt><trkpt lat="43.1931632" lon="13.1971226"><ele>423.0</ele><time>2026-04-23T11:28:45.887Z</time></trkpt><trkpt lat="43.1930794" lon="13.197181"><ele>423.0</ele><time>2026-04-23T11:28:46.885Z</time></trkpt><trkpt lat="43.1930022" lon="13.1972393"><ele>423.0</ele><time>2026-04-23T11:28:47.888Z</time></trkpt><trkpt lat="43.1929341" lon="13.1973099"><ele>423.0</ele><time>2026-04-23T11:28:48.887Z</time></trkpt><trkpt lat="43.192864" lon="13.1973778"><ele>423.0</ele><time>2026-04-23T11:28:49.886Z</time></trkpt><trkpt lat="43.1927963" lon="13.1974441"><ele>423.0</ele><time>2026-04-23T11:28:50.887Z</time></trkpt><trkpt lat="43.1927328" lon="13.1975403"><ele>423.0</ele><time>2026-04-23T11:28:51.887Z</time></trkpt><trkpt lat="43.1926685" lon="13.1976536"><ele>421.2</ele><time>2026-04-23T11:28:52.887Z</time></trkpt><trkpt lat="43.1926085" lon="13.1977699"><ele>419.4</ele><time>2026-04-23T11:28:53.886Z</time></trkpt><trkpt lat="43.1925593" lon="13.1978845"><ele>417.59999999999997</ele><time>2026-04-23T11:28:54.887Z</time></trkpt><trkpt lat="43.1925092" lon="13.1980079"><ele>415.79999999999995</ele><time>2026-04-23T11:28:55.887Z</time></trkpt><trkpt lat="43.1924473" lon="13.1981267"><ele>414.0</ele><time>2026-04-23T11:28:56.887Z</time></trkpt><trkpt lat="43.1923768" lon="13.1982383"><ele>417.6</ele><time>2026-04-23T11:28:57.885Z</time></trkpt><trkpt lat="43.1923074" lon="13.1983463"><ele>421.2</ele><time>2026-04-23T11:28:58.886Z</time></trkpt><trkpt lat="43.192231" lon="13.1984569"><ele>424.80000000000007</ele><time>2026-04-23T11:28:59.886Z</time></trkpt><trkpt lat="43.1921655" lon="13.1985647"><ele>428.40000000000003</ele><time>2026-04-23T11:29:00.886Z</time></trkpt><trkpt lat="43.1921084" lon="13.1986513"><ele>432.0</ele><time>2026-04-23T11:29:01.885Z</time></trkpt><trkpt lat="43.1920608" lon="13.1987374"><ele>432.0</ele><time>2026-04-23T11:29:04.885Z</time></trkpt><trkpt lat="43.1921577" lon="13.1986647"><ele>432.0</ele><time>2026-04-23T11:29:37.886Z</time></trkpt><trkpt lat="43.1922151" lon="13.1985621"><ele>432.0</ele><time>2026-04-23T11:29:38.886Z</time></trkpt><trkpt lat="43.1922841" lon="13.1984541"><ele>432.0</ele><time>2026-04-23T11:29:39.886Z</time></trkpt><trkpt lat="43.1923785" lon="13.1983013"><ele>427.5</ele><time>2026-04-23T11:29:40.887Z</time></trkpt><trkpt lat="43.1924691" lon="13.1981559"><ele>423.0</ele><time>2026-04-23T11:29:41.887Z</time></trkpt><trkpt lat="43.192542" lon="13.1979945"><ele>418.5</ele><time>2026-04-23T11:29:42.886Z</time></trkpt><trkpt lat="43.1926076" lon="13.1978436"><ele>414.0</ele><time>2026-04-23T11:29:43.886Z</time></trkpt><trkpt lat="43.1926826" lon="13.1976976"><ele>414.0</ele><time>2026-04-23T11:29:44.887Z</time></trkpt><trkpt lat="43.1927579" lon="13.1975539"><ele>414.0</ele><time>2026-04-23T11:29:45.887Z</time></trkpt><trkpt lat="43.1928689" lon="13.1974273"><ele>414.0</ele><time>2026-04-23T11:29:46.887Z</time></trkpt><trkpt lat="43.1929906" lon="13.1973145"><ele>414.0</ele><time>2026-04-23T11:29:47.886Z</time></trkpt><trkpt lat="43.1930972" lon="13.1972181"><ele>413.4</ele><time>2026-04-23T11:29:48.886Z</time></trkpt><trkpt lat="43.1931951" lon="13.197127"><ele>412.79999999999995</ele><time>2026-04-23T11:29:49.887Z</time></trkpt><trkpt lat="43.1932745" lon="13.1970497"><ele>412.20000000000005</ele><time>2026-04-23T11:29:50.885Z</time></trkpt><trkpt lat="43.1933528" lon="13.1969827"><ele>411.6</ele><time>2026-04-23T11:29:51.885Z</time></trkpt><trkpt lat="43.1934182" lon="13.1969312"><ele>411.0</ele><time>2026-04-23T11:29:52.885Z</time></trkpt><trkpt lat="43.1934916" lon="13.1968152"><ele>411.0</ele><time>2026-04-23T11:29:54.885Z</time></trkpt><trkpt lat="43.193492" lon="13.19664"><ele>411.0</ele><time>2026-04-23T11:29:56.887Z</time></trkpt><trkpt lat="43.193471" lon="13.1965305"><ele>411.0</ele><time>2026-04-23T11:29:57.886Z</time></trkpt><trkpt lat="43.193449" lon="13.1964062"><ele>411.0</ele><time>2026-04-23T11:29:58.886Z</time></trkpt><trkpt lat="43.1934346" lon="13.1962739"><ele>411.0</ele><time>2026-04-23T11:29:59.887Z</time></trkpt><trkpt lat="43.1934215" lon="13.1961385"><ele>413.0</ele><time>2026-04-23T11:30:00.887Z</time></trkpt><trkpt lat="43.1934051" lon="13.1959961"><ele>415.0</ele><time>2026-04-23T11:30:01.886Z</time></trkpt><trkpt lat="43.1933799" lon="13.1958479"><ele>417.0</ele><time>2026-04-23T11:30:02.886Z</time></trkpt><trkpt lat="43.1933572" lon="13.1956929"><ele>419.0</ele><time>2026-04-23T11:30:03.886Z</time></trkpt><trkpt lat="43.1933282" lon="13.1955406"><ele>421.0</ele><time>2026-04-23T11:30:04.887Z</time></trkpt><trkpt lat="43.193289" lon="13.1953808"><ele>421.50000000000006</ele><time>2026-04-23T11:30:05.886Z</time></trkpt><trkpt lat="43.1932581" lon="13.195233"><ele>422.0</ele><time>2026-04-23T11:30:06.888Z</time></trkpt><trkpt lat="43.1932414" lon="13.1951414"><ele>422.5</ele><time>2026-04-23T11:30:07.886Z</time></trkpt><trkpt lat="43.1932075" lon="13.1950554"><ele>423.0</ele><time>2026-04-23T11:30:08.886Z</time></trkpt><trkpt lat="43.1931147" lon="13.1950013"><ele>423.50000000000006</ele><time>2026-04-23T11:30:10.887Z</time></trkpt><trkpt lat="43.1930505" lon="13.1949987"><ele>424.0</ele><time>2026-04-23T11:30:11.886Z</time></trkpt><trkpt lat="43.1929869" lon="13.1949894"><ele>427.00000000000006</ele><time>2026-04-23T11:30:12.886Z</time></trkpt><trkpt lat="43.1928998" lon="13.1948935"><ele>430.0</ele><time>2026-04-23T11:30:14.886Z</time></trkpt><trkpt lat="43.1928594" lon="13.1948068"><ele>433.0</ele><time>2026-04-23T11:30:15.887Z</time></trkpt><trkpt lat="43.1928267" lon="13.1947088"><ele>436.0</ele><time>2026-04-23T11:30:16.887Z</time></trkpt><trkpt lat="43.1927819" lon="13.1946204"><ele>439.00000000000006</ele><time>2026-04-23T11:30:17.885Z</time></trkpt><trkpt lat="43.1927295" lon="13.1945248"><ele>442.0</ele><time>2026-04-23T11:30:18.887Z</time></trkpt><trkpt lat="43.192672" lon="13.1944228"><ele>443.0</ele><time>2026-04-23T11:30:19.886Z</time></trkpt><trkpt lat="43.1926169" lon="13.1943118"><ele>444.00000000000006</ele><time>2026-04-23T11:30:20.886Z</time></trkpt><trkpt lat="43.1925567" lon="13.1942139"><ele>445.00000000000006</ele><time>2026-04-23T11:30:21.886Z</time></trkpt><trkpt lat="43.1924913" lon="13.1941278"><ele>446.0</ele><time>2026-04-23T11:30:22.886Z</time></trkpt><trkpt lat="43.1924195" lon="13.1940606"><ele>447.0</ele><time>2026-04-23T11:30:23.885Z</time></trkpt><trkpt lat="43.1923187" lon="13.1939911"><ele>450.0</ele><time>2026-04-23T11:30:25.887Z</time></trkpt><trkpt lat="43.1922016" lon="13.1940136"><ele>453.00000000000006</ele><time>2026-04-23T11:30:27.887Z</time></trkpt><trkpt lat="43.1921321" lon="13.1940223"><ele>456.00000000000006</ele><time>2026-04-23T11:30:29.886Z</time></trkpt><trkpt lat="43.1920506" lon="13.1940813"><ele>459.0</ele><time>2026-04-23T11:30:32.885Z</time></trkpt><trkpt lat="43.1919466" lon="13.1941532"><ele>462.0</ele><time>2026-04-23T11:30:34.887Z</time></trkpt><trkpt lat="43.1918139" lon="13.1941968"><ele>462.0</ele><time>2026-04-23T11:30:36.886Z</time></trkpt><trkpt lat="43.1916971" lon="13.1942058"><ele>462.00000000000006</ele><time>2026-04-23T11:30:38.886Z</time></trkpt><trkpt lat="43.1916217" lon="13.1942178"><ele>462.00000000000006</ele><time>2026-04-23T11:30:40.886Z</time></trkpt><trkpt lat="43.1915515" lon="13.1942238"><ele>462.0</ele><time>2026-04-23T11:31:08.885Z</time></trkpt><trkpt lat="43.1914823" lon="13.1942566"><ele>462.0</ele><time>2026-04-23T11:31:10.886Z</time></trkpt><trkpt lat="43.1913612" lon="13.1942537"><ele>462.0</ele><time>2026-04-23T11:31:12.887Z</time></trkpt><trkpt lat="43.191254" lon="13.1942331"><ele>462.00000000000006</ele><time>2026-04-23T11:31:14.886Z</time></trkpt><trkpt lat="43.1911713" lon="13.1942395"><ele>462.00000000000006</ele><time>2026-04-23T11:31:16.885Z</time></trkpt><trkpt lat="43.1910683" lon="13.1942621"><ele>462.0</ele><time>2026-04-23T11:31:18.887Z</time></trkpt><trkpt lat="43.190981" lon="13.1942552"><ele>462.0</ele><time>2026-04-23T11:31:20.887Z</time></trkpt><trkpt lat="43.1909391" lon="13.1941274"><ele>462.0</ele><time>2026-04-23T11:31:23.887Z</time></trkpt><trkpt lat="43.1909398" lon="13.1940253"><ele>462.00000000000006</ele><time>2026-04-23T11:31:24.885Z</time></trkpt><trkpt lat="43.1909456" lon="13.193911"><ele>462.00000000000006</ele><time>2026-04-23T11:31:25.885Z</time></trkpt><trkpt lat="43.1909757" lon="13.1937828"><ele>462.0</ele><time>2026-04-23T11:31:26.887Z</time></trkpt><trkpt lat="43.1910227" lon="13.1936466"><ele>462.0</ele><time>2026-04-23T11:31:27.885Z</time></trkpt><trkpt lat="43.1910787" lon="13.1934804"><ele>463.20000000000005</ele><time>2026-04-23T11:31:28.887Z</time></trkpt><trkpt lat="43.1911272" lon="13.1933492"><ele>464.40000000000003</ele><time>2026-04-23T11:31:29.886Z</time></trkpt><trkpt lat="43.1911614" lon="13.1932418"><ele>465.59999999999997</ele><time>2026-04-23T11:31:30.886Z</time></trkpt><trkpt lat="43.191176" lon="13.1931388"><ele>466.79999999999995</ele><time>2026-04-23T11:31:31.888Z</time></trkpt><trkpt lat="43.1911778" lon="13.1930191"><ele>468.0</ele><time>2026-04-23T11:31:32.886Z</time></trkpt><trkpt lat="43.1911828" lon="13.1928685"><ele>468.5</ele><time>2026-04-23T11:31:33.888Z</time></trkpt><trkpt lat="43.191186" lon="13.1926914"><ele>469.0</ele><time>2026-04-23T11:31:34.886Z</time></trkpt><trkpt lat="43.1911893" lon="13.1924969"><ele>469.5</ele><time>2026-04-23T11:31:35.886Z</time></trkpt><trkpt lat="43.1912044" lon="13.192294"><ele>470.0</ele><time>2026-04-23T11:31:36.887Z</time></trkpt><trkpt lat="43.1912291" lon="13.1920754"><ele>471.0</ele><time>2026-04-23T11:31:37.886Z</time></trkpt><trkpt lat="43.1912523" lon="13.1918554"><ele>472.0</ele><time>2026-04-23T11:31:38.886Z</time></trkpt><trkpt lat="43.1912773" lon="13.191652"><ele>473.0</ele><time>2026-04-23T11:31:39.886Z</time></trkpt><trkpt lat="43.1912934" lon="13.1914542"><ele>476.0</ele><time>2026-04-23T11:31:40.886Z</time></trkpt><trkpt lat="43.1913141" lon="13.1912658"><ele>478.99999999999994</ele><time>2026-04-23T11:31:41.887Z</time></trkpt><trkpt lat="43.1913256" lon="13.1911064"><ele>481.99999999999994</ele><time>2026-04-23T11:31:42.888Z</time></trkpt><trkpt lat="43.191329" lon="13.1909731"><ele>485.0</ele><time>2026-04-23T11:31:43.886Z</time></trkpt><trkpt lat="43.1913142" lon="13.1908483"><ele>488.0</ele><time>2026-04-23T11:31:44.885Z</time></trkpt><trkpt lat="43.1912792" lon="13.1907171"><ele>490.0</ele><time>2026-04-23T11:31:45.886Z</time></trkpt><trkpt lat="43.1912369" lon="13.1906015"><ele>491.99999999999994</ele><time>2026-04-23T11:31:46.887Z</time></trkpt><trkpt lat="43.1911928" lon="13.1904785"><ele>493.99999999999994</ele><time>2026-04-23T11:31:47.887Z</time></trkpt><trkpt lat="43.1911497" lon="13.1903414"><ele>496.0</ele><time>2026-04-23T11:31:48.885Z</time></trkpt><trkpt lat="43.1910983" lon="13.1902046"><ele>498.0</ele><time>2026-04-23T11:31:49.886Z</time></trkpt><trkpt lat="43.1910402" lon="13.1900663"><ele>498.0</ele><time>2026-04-23T11:31:50.885Z</time></trkpt><trkpt lat="43.1909716" lon="13.189915"><ele>498.0</ele><time>2026-04-23T11:31:51.885Z</time></trkpt><trkpt lat="43.1908976" lon="13.1897597"><ele>498.0</ele><time>2026-04-23T11:31:52.886Z</time></trkpt><trkpt lat="43.190825" lon="13.1896028"><ele>498.0</ele><time>2026-04-23T11:31:53.886Z</time></trkpt><trkpt lat="43.1907632" lon="13.1894572"><ele>498.0</ele><time>2026-04-23T11:31:54.887Z</time></trkpt><trkpt lat="43.1907132" lon="13.1893485"><ele>498.0</ele><time>2026-04-23T11:31:55.885Z</time></trkpt><trkpt lat="43.1906814" lon="13.1892571"><ele>498.0</ele><time>2026-04-23T11:31:56.886Z</time></trkpt><trkpt lat="43.1906649" lon="13.1891356"><ele>498.0</ele><time>2026-04-23T11:31:58.886Z</time></trkpt><trkpt lat="43.1907185" lon="13.1890402"><ele>498.0</ele><time>2026-04-23T11:32:01.886Z</time></trkpt><trkpt lat="43.19077" lon="13.1889483"><ele>498.0</ele><time>2026-04-23T11:32:03.887Z</time></trkpt><trkpt lat="43.1908" lon="13.188865"><ele>499.57142857142856</ele><time>2026-04-23T11:32:04.886Z</time></trkpt><trkpt lat="43.1908213" lon="13.1887801"><ele>501.1428571428571</ele><time>2026-04-23T11:32:05.886Z</time></trkpt><trkpt lat="43.1908355" lon="13.188686"><ele>502.71428571428567</ele><time>2026-04-23T11:32:06.887Z</time></trkpt><trkpt lat="43.1908327" lon="13.1885781"><ele>504.2857142857142</ele><time>2026-04-23T11:32:07.887Z</time></trkpt><trkpt lat="43.1908286" lon="13.1884752"><ele>505.85714285714283</ele><time>2026-04-23T11:32:08.885Z</time></trkpt><trkpt lat="43.1908178" lon="13.1883876"><ele>507.42857142857133</ele><time>2026-04-23T11:32:09.886Z</time></trkpt><trkpt lat="43.1907969" lon="13.1882889"><ele>508.99999999999994</ele><time>2026-04-23T11:32:11.885Z</time></trkpt><trkpt lat="43.1907606" lon="13.188166"><ele>510.16666666666663</ele><time>2026-04-23T11:32:22.888Z</time></trkpt><trkpt lat="43.1908053" lon="13.188072"><ele>511.3333333333333</ele><time>2026-04-23T11:32:23.887Z</time></trkpt><trkpt lat="43.1908774" lon="13.1879748"><ele>512.5</ele><time>2026-04-23T11:32:24.887Z</time></trkpt><trkpt lat="43.1909452" lon="13.1878951"><ele>513.6666666666666</ele><time>2026-04-23T11:32:25.885Z</time></trkpt><trkpt lat="43.1910116" lon="13.1878299"><ele>514.8333333333334</ele><time>2026-04-23T11:32:26.885Z</time></trkpt><trkpt lat="43.1910736" lon="13.1877785"><ele>516.0</ele><time>2026-04-23T11:32:27.887Z</time></trkpt><trkpt lat="43.1911297" lon="13.1877355"><ele>516.0</ele><time>2026-04-23T11:32:28.886Z</time></trkpt><trkpt lat="43.1912329" lon="13.1876934"><ele>516.0</ele><time>2026-04-23T11:32:30.886Z</time></trkpt><trkpt lat="43.1913689" lon="13.1877142"><ele>516.0</ele><time>2026-04-23T11:32:32.887Z</time></trkpt><trkpt lat="43.1914582" lon="13.1877496"><ele>516.0</ele><time>2026-04-23T11:32:33.886Z</time></trkpt><trkpt lat="43.1915474" lon="13.1877899"><ele>516.0</ele><time>2026-04-23T11:32:34.886Z</time></trkpt><trkpt lat="43.1916355" lon="13.1878349"><ele>517.0</ele><time>2026-04-23T11:32:35.886Z</time></trkpt><trkpt lat="43.1917241" lon="13.1878859"><ele>518.0</ele><time>2026-04-23T11:32:36.886Z</time></trkpt><trkpt lat="43.1918171" lon="13.1879421"><ele>519.0</ele><time>2026-04-23T11:32:37.886Z</time></trkpt><trkpt lat="43.191901" lon="13.1880012"><ele>520.0</ele><time>2026-04-23T11:32:38.888Z</time></trkpt><trkpt lat="43.1919732" lon="13.188053"><ele>521.0</ele><time>2026-04-23T11:32:39.885Z</time></trkpt><trkpt lat="43.1920345" lon="13.1881178"><ele>519.0</ele><time>2026-04-23T11:32:40.886Z</time></trkpt><trkpt lat="43.1920858" lon="13.1881959"><ele>517.0</ele><time>2026-04-23T11:32:41.886Z</time></trkpt><trkpt lat="43.1921349" lon="13.1882715"><ele>515.0</ele><time>2026-04-23T11:32:42.887Z</time></trkpt><trkpt lat="43.1921792" lon="13.1883365"><ele>513.0</ele><time>2026-04-23T11:32:43.885Z</time></trkpt><trkpt lat="43.1922297" lon="13.1883921"><ele>511.0</ele><time>2026-04-23T11:32:44.887Z</time></trkpt><trkpt lat="43.1922967" lon="13.1884191"><ele>509.0</ele><time>2026-04-23T11:32:45.886Z</time></trkpt><trkpt lat="43.1923882" lon="13.1884395"><ele>507.0</ele><time>2026-04-23T11:32:46.886Z</time></trkpt><trkpt lat="43.1924824" lon="13.1884638"><ele>507.0</ele><time>2026-04-23T11:32:47.887Z</time></trkpt><trkpt lat="43.1925683" lon="13.1885"><ele>507.0</ele><time>2026-04-23T11:32:48.887Z</time></trkpt><trkpt lat="43.1926365" lon="13.1885392"><ele>507.0</ele><time>2026-04-23T11:32:49.886Z</time></trkpt><trkpt lat="43.1927043" lon="13.1885834"><ele>507.0</ele><time>2026-04-23T11:32:50.887Z</time></trkpt><trkpt lat="43.1927799" lon="13.1886302"><ele>507.0</ele><time>2026-04-23T11:32:51.887Z</time></trkpt><trkpt lat="43.1928773" lon="13.1886767"><ele>507.0</ele><time>2026-04-23T11:32:53.887Z</time></trkpt><trkpt lat="43.1929745" lon="13.1886803"><ele>507.0</ele><time>2026-04-23T11:32:55.886Z</time></trkpt><trkpt lat="43.1930767" lon="13.1887001"><ele>507.00000000000006</ele><time>2026-04-23T11:32:57.886Z</time></trkpt><trkpt lat="43.1931896" lon="13.1887116"><ele>507.00000000000006</ele><time>2026-04-23T11:32:59.885Z</time></trkpt><trkpt lat="43.193323" lon="13.1887348"><ele>507.0</ele><time>2026-04-23T11:33:01.885Z</time></trkpt><trkpt lat="43.1933921" lon="13.1887405"><ele>507.0</ele><time>2026-04-23T11:33:02.886Z</time></trkpt><trkpt lat="43.193474" lon="13.1887404"><ele>506.1666666666667</ele><time>2026-04-23T11:33:03.885Z</time></trkpt><trkpt lat="43.1935529" lon="13.1887351"><ele>505.33333333333337</ele><time>2026-04-23T11:33:04.888Z</time></trkpt><trkpt lat="43.1936246" lon="13.188726"><ele>504.5</ele><time>2026-04-23T11:33:05.885Z</time></trkpt><trkpt lat="43.1937012" lon="13.1887206"><ele>503.6666666666667</ele><time>2026-04-23T11:33:06.886Z</time></trkpt><trkpt lat="43.1937951" lon="13.188707"><ele>502.83333333333337</ele><time>2026-04-23T11:33:08.886Z</time></trkpt><trkpt lat="43.1938413" lon="13.1886218"><ele>502.0</ele><time>2026-04-23T11:33:10.887Z</time></trkpt><trkpt lat="43.193882" lon="13.1885296"><ele>502.00000000000006</ele><time>2026-04-23T11:33:12.887Z</time></trkpt><trkpt lat="43.1939713" lon="13.1884553"><ele>502.0</ele><time>2026-04-23T11:33:14.885Z</time></trkpt><trkpt lat="43.194036" lon="13.1884249"><ele>502.0</ele><time>2026-04-23T11:33:15.887Z</time></trkpt><trkpt lat="43.1941012" lon="13.1883858"><ele>502.0</ele><time>2026-04-23T11:33:16.886Z</time></trkpt><trkpt lat="43.1942121" lon="13.1883114"><ele>502.00000000000006</ele><time>2026-04-23T11:33:18.886Z</time></trkpt><trkpt lat="43.194285" lon="13.1882809"><ele>502.0</ele><time>2026-04-23T11:33:19.887Z</time></trkpt><trkpt lat="43.1943635" lon="13.1882421"><ele>501.2857142857142</ele><time>2026-04-23T11:33:20.887Z</time></trkpt><trkpt lat="43.1944424" lon="13.1882083"><ele>500.57142857142856</ele><time>2026-04-23T11:33:21.886Z</time></trkpt><trkpt lat="43.1945187" lon="13.1881894"><ele>499.85714285714283</ele><time>2026-04-23T11:33:22.887Z</time></trkpt><trkpt lat="43.1945833" lon="13.1881921"><ele>499.1428571428571</ele><time>2026-04-23T11:33:23.886Z</time></trkpt><trkpt lat="43.1946475" lon="13.1882196"><ele>498.42857142857144</ele><time>2026-04-23T11:33:24.887Z</time></trkpt><trkpt lat="43.1947154" lon="13.1882419"><ele>497.7142857142857</ele><time>2026-04-23T11:33:25.885Z</time></trkpt><trkpt lat="43.1947811" lon="13.1882618"><ele>497.0</ele><time>2026-04-23T11:33:26.886Z</time></trkpt><trkpt lat="43.1948411" lon="13.1882946"><ele>496.99999999999994</ele><time>2026-04-23T11:33:27.885Z</time></trkpt><trkpt lat="43.1949412" lon="13.1883694"><ele>497.0</ele><time>2026-04-23T11:33:29.887Z</time></trkpt><trkpt lat="43.195038" lon="13.1884851"><ele>497.0</ele><time>2026-04-23T11:33:31.887Z</time></trkpt><trkpt lat="43.1950858" lon="13.188544"><ele>497.0</ele><time>2026-04-23T11:33:32.886Z</time></trkpt><trkpt lat="43.1951356" lon="13.1886013"><ele>496.99999999999994</ele><time>2026-04-23T11:33:33.887Z</time></trkpt><trkpt lat="43.1951953" lon="13.1886538"><ele>497.0</ele><time>2026-04-23T11:33:34.887Z</time></trkpt><trkpt lat="43.1952583" lon="13.1887151"><ele>496.99999999999994</ele><time>2026-04-23T11:33:35.886Z</time></trkpt><trkpt lat="43.1953196" lon="13.1887926"><ele>497.0</ele><time>2026-04-23T11:33:36.885Z</time></trkpt><trkpt lat="43.1953713" lon="13.18888"><ele>497.0</ele><time>2026-04-23T11:33:37.887Z</time></trkpt><trkpt lat="43.1954167" lon="13.1889602"><ele>497.0</ele><time>2026-04-23T11:33:39.885Z</time></trkpt><trkpt lat="43.1954113" lon="13.1888344"><ele>496.99999999999994</ele><time>2026-04-23T11:33:53.885Z</time></trkpt><trkpt lat="43.1953701" lon="13.1887371"><ele>497.0</ele><time>2026-04-23T11:33:54.886Z</time></trkpt><trkpt lat="43.1953243" lon="13.1886335"><ele>497.0</ele><time>2026-04-23T11:33:55.886Z</time></trkpt><trkpt lat="43.1952859" lon="13.1885406"><ele>497.00000000000006</ele><time>2026-04-23T11:33:56.886Z</time></trkpt><trkpt lat="43.1952417" lon="13.1883919"><ele>497.00000000000006</ele><time>2026-04-23T11:33:58.887Z</time></trkpt><trkpt lat="43.1952375" lon="13.1882106"><ele>497.0</ele><time>2026-04-23T11:34:00.885Z</time></trkpt><trkpt lat="43.1952507" lon="13.1881181"><ele>497.0</ele><time>2026-04-23T11:34:01.885Z</time></trkpt><trkpt lat="43.1952805" lon="13.1879785"><ele>497.8</ele><time>2026-04-23T11:34:03.887Z</time></trkpt><trkpt lat="43.1952988" lon="13.1878189"><ele>498.6</ele><time>2026-04-23T11:34:05.887Z</time></trkpt><trkpt lat="43.1952888" lon="13.1877206"><ele>499.40000000000003</ele><time>2026-04-23T11:34:06.887Z</time></trkpt><trkpt lat="43.1952651" lon="13.1876275"><ele>500.20000000000005</ele><time>2026-04-23T11:34:07.886Z</time></trkpt><trkpt lat="43.1951954" lon="13.1874872"><ele>501.0</ele><time>2026-04-23T11:34:09.886Z</time></trkpt><trkpt lat="43.1951532" lon="13.1873543"><ele>503.20000000000005</ele><time>2026-04-23T11:34:11.886Z</time></trkpt><trkpt lat="43.1951597" lon="13.1872018"><ele>505.40000000000003</ele><time>2026-04-23T11:34:13.886Z</time></trkpt><trkpt lat="43.1951518" lon="13.1870365"><ele>507.6</ele><time>2026-04-23T11:34:15.886Z</time></trkpt><trkpt lat="43.1951512" lon="13.1868892"><ele>509.8</ele><time>2026-04-23T11:34:17.886Z</time></trkpt><trkpt lat="43.195208" lon="13.1868079"><ele>512.0</ele><time>2026-04-23T11:34:19.885Z</time></trkpt><trkpt lat="43.195331" lon="13.186751"><ele>511.99999999999994</ele><time>2026-04-23T11:34:21.887Z</time></trkpt><trkpt lat="43.1954065" lon="13.1867015"><ele>512.0</ele><time>2026-04-23T11:34:22.886Z</time></trkpt><trkpt lat="43.1954631" lon="13.1866477"><ele>512.0</ele><time>2026-04-23T11:34:23.886Z</time></trkpt><trkpt lat="43.1955057" lon="13.1865624"><ele>512.0</ele><time>2026-04-23T11:34:24.887Z</time></trkpt><trkpt lat="43.1955518" lon="13.1864716"><ele>511.99999999999994</ele><time>2026-04-23T11:34:25.888Z</time></trkpt><trkpt lat="43.1956005" lon="13.186399"><ele>512.0</ele><time>2026-04-23T11:34:26.886Z</time></trkpt><trkpt lat="43.1956572" lon="13.1862719"><ele>512.0</ele><time>2026-04-23T11:34:28.887Z</time></trkpt><trkpt lat="43.1956651" lon="13.1861381"><ele>512.0</ele><time>2026-04-23T11:34:31.887Z</time></trkpt><trkpt lat="43.1956997" lon="13.1859513"><ele>512.0</ele><time>2026-04-23T11:34:33.887Z</time></trkpt><trkpt lat="43.1957149" lon="13.1858476"><ele>512.0</ele><time>2026-04-23T11:34:34.887Z</time></trkpt><trkpt lat="43.1957094" lon="13.1856769"><ele>512.0</ele><time>2026-04-23T11:34:36.887Z</time></trkpt><trkpt lat="43.1957037" lon="13.1855769"><ele>517.4</ele><time>2026-04-23T11:34:37.886Z</time></trkpt><trkpt lat="43.1956963" lon="13.1854774"><ele>522.8000000000001</ele><time>2026-04-23T11:34:38.886Z</time></trkpt><trkpt lat="43.1957693" lon="13.1853824"><ele>528.2</ele><time>2026-04-23T11:34:40.886Z</time></trkpt><trkpt lat="43.195893" lon="13.1853286"><ele>533.6</ele><time>2026-04-23T11:34:42.886Z</time></trkpt><trkpt lat="43.1959652" lon="13.1853089"><ele>539.0</ele><time>2026-04-23T11:34:43.886Z</time></trkpt><trkpt lat="43.1960356" lon="13.185266"><ele>539.0</ele><time>2026-04-23T11:34:44.887Z</time></trkpt><trkpt lat="43.196097" lon="13.185203"><ele>539.0</ele><time>2026-04-23T11:34:45.887Z</time></trkpt><trkpt lat="43.1961598" lon="13.1851667"><ele>539.0</ele><time>2026-04-23T11:34:46.885Z</time></trkpt><trkpt lat="43.1962474" lon="13.1851623"><ele>539.0</ele><time>2026-04-23T11:34:48.886Z</time></trkpt><trkpt lat="43.1963245" lon="13.1850981"><ele>539.0</ele><time>2026-04-23T11:34:54.887Z</time></trkpt><trkpt lat="43.1963986" lon="13.1850747"><ele>539.0</ele><time>2026-04-23T11:34:55.887Z</time></trkpt><trkpt lat="43.1964597" lon="13.1850074"><ele>539.0</ele><time>2026-04-23T11:34:57.886Z</time></trkpt><trkpt lat="43.1964909" lon="13.1848635"><ele>539.0</ele><time>2026-04-23T11:34:59.887Z</time></trkpt><trkpt lat="43.1964955" lon="13.1847002"><ele>539.0</ele><time>2026-04-23T11:35:01.886Z</time></trkpt><trkpt lat="43.1964916" lon="13.1846054"><ele>539.0</ele><time>2026-04-23T11:35:02.887Z</time></trkpt><trkpt lat="43.1964836" lon="13.1845058"><ele>539.0</ele><time>2026-04-23T11:35:03.885Z</time></trkpt><trkpt lat="43.1964802" lon="13.1844018"><ele>539.0</ele><time>2026-04-23T11:35:04.886Z</time></trkpt><trkpt lat="43.1964743" lon="13.1842986"><ele>542.0</ele><time>2026-04-23T11:35:05.886Z</time></trkpt><trkpt lat="43.196462" lon="13.1841905"><ele>545.0</ele><time>2026-04-23T11:35:06.886Z</time></trkpt><trkpt lat="43.1964725" lon="13.1840394"><ele>548.0</ele><time>2026-04-23T11:35:08.887Z</time></trkpt><trkpt lat="43.1965414" lon="13.1838968"><ele>551.0</ele><time>2026-04-23T11:35:10.887Z</time></trkpt><trkpt lat="43.1965862" lon="13.1838191"><ele>554.0</ele><time>2026-04-23T11:35:11.887Z</time></trkpt><trkpt lat="43.1966152" lon="13.1837424"><ele>554.0</ele><time>2026-04-23T11:35:12.887Z</time></trkpt><trkpt lat="43.1966402" lon="13.1835966"><ele>554.0</ele><time>2026-04-23T11:35:14.886Z</time></trkpt><trkpt lat="43.1966725" lon="13.1834612"><ele>554.0</ele><time>2026-04-23T11:35:16.885Z</time></trkpt><trkpt lat="43.1967049" lon="13.1833208"><ele>554.0</ele><time>2026-04-23T11:35:18.886Z</time></trkpt><trkpt lat="43.1967372" lon="13.1832088"><ele>554.0</ele><time>2026-04-23T11:35:20.887Z</time></trkpt><trkpt lat="43.1967672" lon="13.1830983"><ele>559.4</ele><time>2026-04-23T11:35:22.887Z</time></trkpt><trkpt lat="43.1968165" lon="13.1829485"><ele>564.8</ele><time>2026-04-23T11:35:24.886Z</time></trkpt><trkpt lat="43.1968687" lon="13.1828449"><ele>570.2</ele><time>2026-04-23T11:35:26.888Z</time></trkpt><trkpt lat="43.1969546" lon="13.1827458"><ele>575.6</ele><time>2026-04-23T11:35:28.887Z</time></trkpt><trkpt lat="43.1970338" lon="13.18266"><ele>581.0</ele><time>2026-04-23T11:35:30.885Z</time></trkpt><trkpt lat="43.1971601" lon="13.1826374"><ele>581.0</ele><time>2026-04-23T11:35:32.886Z</time></trkpt><trkpt lat="43.1972378" lon="13.1826745"><ele>581.0</ele><time>2026-04-23T11:35:33.887Z</time></trkpt><trkpt lat="43.1972941" lon="13.1827241"><ele>581.0</ele><time>2026-04-23T11:35:34.885Z</time></trkpt><trkpt lat="43.1973561" lon="13.1827539"><ele>581.0</ele><time>2026-04-23T11:35:35.886Z</time></trkpt><trkpt lat="43.1974409" lon="13.1827978"><ele>581.0</ele><time>2026-04-23T11:36:29.887Z</time></trkpt><trkpt lat="43.197534" lon="13.1828689"><ele>581.0</ele><time>2026-04-23T11:36:31.887Z</time></trkpt><trkpt lat="43.1976641" lon="13.1828933"><ele>579.0</ele><time>2026-04-23T11:36:33.887Z</time></trkpt><trkpt lat="43.1977379" lon="13.1828729"><ele>577.0</ele><time>2026-04-23T11:36:34.886Z</time></trkpt><trkpt lat="43.1978015" lon="13.1828297"><ele>575.0</ele><time>2026-04-23T11:36:35.887Z</time></trkpt><trkpt lat="43.1978712" lon="13.1827809"><ele>573.0</ele><time>2026-04-23T11:36:36.886Z</time></trkpt><trkpt lat="43.1979256" lon="13.1827326"><ele>571.0</ele><time>2026-04-23T11:36:37.886Z</time></trkpt><trkpt lat="43.1979892" lon="13.1826893"><ele>569.0</ele><time>2026-04-23T11:36:38.887Z</time></trkpt><trkpt lat="43.1980525" lon="13.1826407"><ele>567.0</ele><time>2026-04-23T11:36:39.886Z</time></trkpt><trkpt lat="43.1981276" lon="13.1826195"><ele>565.8000000000001</ele><time>2026-04-23T11:36:40.887Z</time></trkpt><trkpt lat="43.198253" lon="13.1825621"><ele>564.6</ele><time>2026-04-23T11:36:42.885Z</time></trkpt><trkpt lat="43.1983086" lon="13.182502"><ele>563.4000000000001</ele><time>2026-04-23T11:36:43.887Z</time></trkpt><trkpt lat="43.198378" lon="13.1823548"><ele>562.2</ele><time>2026-04-23T11:36:45.887Z</time></trkpt><trkpt lat="43.1984449" lon="13.1822272"><ele>561.0</ele><time>2026-04-23T11:36:47.886Z</time></trkpt><trkpt lat="43.198517" lon="13.1820976"><ele>565.2</ele><time>2026-04-23T11:36:49.887Z</time></trkpt><trkpt lat="43.1985459" lon="13.1819813"><ele>569.4000000000001</ele><time>2026-04-23T11:36:51.886Z</time></trkpt><trkpt lat="43.1985142" lon="13.1819004"><ele>573.6</ele><time>2026-04-23T11:36:53.888Z</time></trkpt><trkpt lat="43.1984186" lon="13.1818029"><ele>577.8000000000001</ele><time>2026-04-23T11:36:55.885Z</time></trkpt><trkpt lat="43.198343" lon="13.1816846"><ele>582.0</ele><time>2026-04-23T11:36:57.886Z</time></trkpt><trkpt lat="43.1982392" lon="13.1815923"><ele>584.5</ele><time>2026-04-23T11:36:59.887Z</time></trkpt><trkpt lat="43.1981386" lon="13.1815308"><ele>587.0</ele><time>2026-04-23T11:37:01.885Z</time></trkpt><trkpt lat="43.1980359" lon="13.1814807"><ele>589.5</ele><time>2026-04-23T11:37:03.885Z</time></trkpt><trkpt lat="43.1979717" lon="13.1814135"><ele>592.0</ele><time>2026-04-23T11:37:05.887Z</time></trkpt><trkpt lat="43.1979218" lon="13.1813464"><ele>594.5</ele><time>2026-04-23T11:37:10.886Z</time></trkpt><trkpt lat="43.1979445" lon="13.1812627"><ele>597.0</ele><time>2026-04-23T11:37:14.887Z</time></trkpt><trkpt lat="43.1978781" lon="13.1812274"><ele>602.0</ele><time>2026-04-23T11:39:02.886Z</time></trkpt><trkpt lat="43.1978254" lon="13.1811379"><ele>607.0</ele><time>2026-04-23T11:39:06.886Z</time></trkpt><trkpt lat="43.1978391" lon="13.1810153"><ele>612.0</ele><time>2026-04-23T11:39:09.886Z</time></trkpt><trkpt lat="43.1978733" lon="13.1809352"><ele>617.0</ele><time>2026-04-23T11:39:12.886Z</time></trkpt><trkpt lat="43.1979037" lon="13.1808433"><ele>622.0</ele><time>2026-04-23T11:39:16.886Z</time></trkpt><trkpt lat="43.1979335" lon="13.1807253"><ele>627.0</ele><time>2026-04-23T11:39:18.886Z</time></trkpt><trkpt lat="43.1979939" lon="13.180624"><ele>627.6666666666666</ele><time>2026-04-23T11:39:20.886Z</time></trkpt><trkpt lat="43.1980545" lon="13.1805348"><ele>628.3333333333334</ele><time>2026-04-23T11:39:22.886Z</time></trkpt><trkpt lat="43.1981261" lon="13.1804718"><ele>629.0</ele><time>2026-04-23T11:40:41.885Z</time></trkpt><trkpt lat="43.198217" lon="13.1803972"><ele>629.6666666666667</ele><time>2026-04-23T11:40:43.885Z</time></trkpt><trkpt lat="43.1982568" lon="13.180298"><ele>630.3333333333334</ele><time>2026-04-23T11:40:45.886Z</time></trkpt><trkpt lat="43.1982862" lon="13.1801864"><ele>631.0</ele><time>2026-04-23T11:40:47.886Z</time></trkpt><trkpt lat="43.198327" lon="13.1800813"><ele>631.0</ele><time>2026-04-23T11:40:49.887Z</time></trkpt><trkpt lat="43.1983516" lon="13.1799885"><ele>631.0</ele><time>2026-04-23T11:40:51.886Z</time></trkpt><trkpt lat="43.1983623" lon="13.1798811"><ele>631.0</ele><time>2026-04-23T11:40:53.887Z</time></trkpt><trkpt lat="43.1984103" lon="13.1798169"><ele>631.0</ele><time>2026-04-23T11:42:21.886Z</time></trkpt><trkpt lat="43.1983876" lon="13.1799235"><ele>631.0</ele><time>2026-04-23T11:45:26.886Z</time></trkpt><trkpt lat="43.1983761" lon="13.1800199"><ele>631.0</ele><time>2026-04-23T11:45:30.886Z</time></trkpt><trkpt lat="43.1983455" lon="13.1801063"><ele>631.0</ele><time>2026-04-23T11:45:34.887Z</time></trkpt><trkpt lat="43.1983172" lon="13.1801919"><ele>631.0</ele><time>2026-04-23T11:45:39.888Z</time></trkpt><trkpt lat="43.1982836" lon="13.1802657"><ele>631.0</ele><time>2026-04-23T11:45:45.888Z</time></trkpt><trkpt lat="43.1983265" lon="13.1801937"><ele>631.0</ele><time>2026-04-23T11:49:19.887Z</time></trkpt><trkpt lat="43.1983553" lon="13.1800866"><ele>631.0</ele><time>2026-04-23T11:49:22.887Z</time></trkpt><trkpt lat="43.1983791" lon="13.1800004"><ele>631.0</ele><time>2026-04-23T11:49:25.886Z</time></trkpt><trkpt lat="43.1983977" lon="13.1798964"><ele>631.0</ele><time>2026-04-23T11:49:40.886Z</time></trkpt><trkpt lat="43.1983832" lon="13.1799981"><ele>631.0</ele><time>2026-04-23T11:53:41.887Z</time></trkpt><trkpt lat="43.1983552" lon="13.1800969"><ele>631.0</ele><time>2026-04-23T11:53:44.887Z</time></trkpt><trkpt lat="43.198325" lon="13.1801737"><ele>631.0</ele><time>2026-04-23T11:53:48.886Z</time></trkpt><trkpt lat="43.1983009" lon="13.1802681"><ele>631.0</ele><time>2026-04-23T11:53:59.886Z</time></trkpt><trkpt lat="43.198252" lon="13.1803571"><ele>631.0</ele><time>2026-04-23T11:54:04.888Z</time></trkpt><trkpt lat="43.1982209" lon="13.1804322"><ele>631.0</ele><time>2026-04-23T11:54:07.886Z</time></trkpt><trkpt lat="43.1981596" lon="13.1804688"><ele>631.0</ele><time>2026-04-23T11:54:11.886Z</time></trkpt><trkpt lat="43.1980975" lon="13.1804885"><ele>631.0</ele><time>2026-04-23T11:54:46.886Z</time></trkpt><trkpt lat="43.198168" lon="13.1804328"><ele>631.0</ele><time>2026-04-23T11:55:01.886Z</time></trkpt><trkpt lat="43.1982307" lon="13.180371"><ele>631.0</ele><time>2026-04-23T11:55:03.886Z</time></trkpt><trkpt lat="43.198284" lon="13.1803144"><ele>631.0</ele><time>2026-04-23T11:55:40.886Z</time></trkpt><trkpt lat="43.1983205" lon="13.1802415"><ele>631.0</ele><time>2026-04-23T11:55:43.887Z</time></trkpt><trkpt lat="43.1983434" lon="13.1801413"><ele>631.0</ele><time>2026-04-23T11:55:46.887Z</time></trkpt><trkpt lat="43.1983809" lon="13.1800227"><ele>631.0</ele><time>2026-04-23T11:55:49.887Z</time></trkpt><trkpt lat="43.1983845" lon="13.1798981"><ele>631.0</ele><time>2026-04-23T11:55:52.885Z</time></trkpt><trkpt lat="43.1983866" lon="13.1800022"><ele>631.0</ele><time>2026-04-23T11:57:30.798Z</time></trkpt><trkpt lat="43.1983544" lon="13.180096"><ele>631.0</ele><time>2026-04-23T11:57:33.888Z</time></trkpt><trkpt lat="43.1983302" lon="13.1802095"><ele>631.0</ele><time>2026-04-23T11:57:36.887Z</time></trkpt><trkpt lat="43.1983011" lon="13.1803131"><ele>631.0</ele><time>2026-04-23T11:57:40.886Z</time></trkpt><trkpt lat="43.1982448" lon="13.1804004"><ele>631.0</ele><time>2026-04-23T11:57:44.886Z</time></trkpt><trkpt lat="43.1981972" lon="13.180458"><ele>630.3333333333334</ele><time>2026-04-23T11:57:46.886Z</time></trkpt><trkpt lat="43.1981316" lon="13.1805018"><ele>629.6666666666667</ele><time>2026-04-23T11:57:48.886Z</time></trkpt><trkpt lat="43.1980678" lon="13.1805749"><ele>629.0</ele><time>2026-04-23T11:57:51.887Z</time></trkpt><trkpt lat="43.1980141" lon="13.1806381"><ele>628.3333333333334</ele><time>2026-04-23T11:57:54.886Z</time></trkpt><trkpt lat="43.1979658" lon="13.1807133"><ele>627.6666666666666</ele><time>2026-04-23T11:57:57.886Z</time></trkpt><trkpt lat="43.1979272" lon="13.1808182"><ele>627.0</ele><time>2026-04-23T11:58:00.888Z</time></trkpt><trkpt lat="43.1979263" lon="13.1809083"><ele>627.0</ele><time>2026-04-23T11:58:03.887Z</time></trkpt><trkpt lat="43.1978823" lon="13.1809985"><ele>627.0</ele><time>2026-04-23T11:58:07.887Z</time></trkpt><trkpt lat="43.1978391" lon="13.1811076"><ele>627.0</ele><time>2026-04-23T11:58:10.886Z</time></trkpt><trkpt lat="43.1978424" lon="13.1812112"><ele>627.0</ele><time>2026-04-23T11:58:13.887Z</time></trkpt><trkpt lat="43.1979088" lon="13.1812875"><ele>627.0</ele><time>2026-04-23T11:58:16.887Z</time></trkpt><trkpt lat="43.1979792" lon="13.1813665"><ele>627.0</ele><time>2026-04-23T11:58:19.887Z</time></trkpt><trkpt lat="43.19801" lon="13.1814633"><ele>622.0</ele><time>2026-04-23T11:58:22.887Z</time></trkpt><trkpt lat="43.1980789" lon="13.1815198"><ele>617.0</ele><time>2026-04-23T11:58:25.887Z</time></trkpt><trkpt lat="43.1981511" lon="13.1815586"><ele>612.0</ele><time>2026-04-23T11:58:28.886Z</time></trkpt><trkpt lat="43.1982235" lon="13.181596"><ele>607.0</ele><time>2026-04-23T11:58:31.886Z</time></trkpt><trkpt lat="43.1982974" lon="13.1816714"><ele>602.0</ele><time>2026-04-23T11:58:34.887Z</time></trkpt><trkpt lat="43.1983654" lon="13.1817377"><ele>597.0</ele><time>2026-04-23T11:58:37.888Z</time></trkpt><trkpt lat="43.1984208" lon="13.1818089"><ele>594.8571428571429</ele><time>2026-04-23T11:58:39.888Z</time></trkpt><trkpt lat="43.1984831" lon="13.1818685"><ele>592.7142857142858</ele><time>2026-04-23T11:58:41.887Z</time></trkpt><trkpt lat="43.1985452" lon="13.18192"><ele>590.5714285714286</ele><time>2026-04-23T11:58:43.887Z</time></trkpt><trkpt lat="43.1985714" lon="13.1820057"><ele>588.4285714285714</ele><time>2026-04-23T11:58:45.887Z</time></trkpt><trkpt lat="43.198539" lon="13.1820971"><ele>586.2857142857142</ele><time>2026-04-23T11:59:11.886Z</time></trkpt><trkpt lat="43.1984947" lon="13.1821598"><ele>584.1428571428571</ele><time>2026-04-23T11:59:16.888Z</time></trkpt><trkpt lat="43.1984496" lon="13.182249"><ele>582.0</ele><time>2026-04-23T11:59:20.887Z</time></trkpt><trkpt lat="43.198418" lon="13.1823571"><ele>579.5</ele><time>2026-04-23T11:59:23.888Z</time></trkpt><trkpt lat="43.1983837" lon="13.1824603"><ele>577.0</ele><time>2026-04-23T11:59:26.818Z</time></trkpt><trkpt lat="43.1983277" lon="13.1825385"><ele>574.5</ele><time>2026-04-23T11:59:28.887Z</time></trkpt><trkpt lat="43.1982608" lon="13.1826191"><ele>572.0</ele><time>2026-04-23T11:59:30.887Z</time></trkpt><trkpt lat="43.1981466" lon="13.1826431"><ele>569.5</ele><time>2026-04-23T11:59:32.886Z</time></trkpt><trkpt lat="43.1980796" lon="13.1826744"><ele>567.0</ele><time>2026-04-23T11:59:33.887Z</time></trkpt><trkpt lat="43.1980177" lon="13.1826982"><ele>567.0</ele><time>2026-04-23T11:59:34.886Z</time></trkpt><trkpt lat="43.1979592" lon="13.1827329"><ele>567.0</ele><time>2026-04-23T11:59:35.887Z</time></trkpt><trkpt lat="43.197855" lon="13.1828019"><ele>567.0</ele><time>2026-04-23T11:59:37.886Z</time></trkpt><trkpt lat="43.1977721" lon="13.182847"><ele>567.0</ele><time>2026-04-23T11:59:39.887Z</time></trkpt><trkpt lat="43.1976855" lon="13.1828905"><ele>567.0</ele><time>2026-04-23T11:59:41.885Z</time></trkpt><trkpt lat="43.1976059" lon="13.1828879"><ele>567.0</ele><time>2026-04-23T11:59:43.886Z</time></trkpt><trkpt lat="43.1975327" lon="13.1828672"><ele>567.0</ele><time>2026-04-23T11:59:45.886Z</time></trkpt><trkpt lat="43.1974608" lon="13.1828357"><ele>567.0</ele><time>2026-04-23T11:59:47.886Z</time></trkpt><trkpt lat="43.1973985" lon="13.182807"><ele>567.0</ele><time>2026-04-23T11:59:49.886Z</time></trkpt><trkpt lat="43.1973163" lon="13.1827574"><ele>567.0</ele><time>2026-04-23T11:59:52.886Z</time></trkpt><trkpt lat="43.197231" lon="13.1826996"><ele>567.0</ele><time>2026-04-23T11:59:54.886Z</time></trkpt><trkpt lat="43.1971296" lon="13.1826971"><ele>567.0</ele><time>2026-04-23T11:59:56.888Z</time></trkpt><trkpt lat="43.1970405" lon="13.1827642"><ele>563.75</ele><time>2026-04-23T11:59:58.887Z</time></trkpt><trkpt lat="43.1969458" lon="13.1828462"><ele>560.5</ele><time>2026-04-23T12:00:00.887Z</time></trkpt><trkpt lat="43.1968598" lon="13.1829507"><ele>557.25</ele><time>2026-04-23T12:00:02.887Z</time></trkpt><trkpt lat="43.1968096" lon="13.1831221"><ele>554.0</ele><time>2026-04-23T12:00:04.887Z</time></trkpt><trkpt lat="43.1967646" lon="13.1832425"><ele>554.0</ele><time>2026-04-23T12:00:06.887Z</time></trkpt><trkpt lat="43.1967384" lon="13.1833679"><ele>554.0</ele><time>2026-04-23T12:00:08.887Z</time></trkpt><trkpt lat="43.1967078" lon="13.1834887"><ele>554.0</ele><time>2026-04-23T12:00:10.887Z</time></trkpt><trkpt lat="43.196676" lon="13.1836172"><ele>554.0</ele><time>2026-04-23T12:00:12.886Z</time></trkpt><trkpt lat="43.1966585" lon="13.1837336"><ele>554.0</ele><time>2026-04-23T12:00:14.887Z</time></trkpt><trkpt lat="43.196617" lon="13.1838504"><ele>554.0</ele><time>2026-04-23T12:00:16.888Z</time></trkpt><trkpt lat="43.19655" lon="13.1839701"><ele>554.0</ele><time>2026-04-23T12:00:18.887Z</time></trkpt><trkpt lat="43.1965098" lon="13.1840937"><ele>554.0</ele><time>2026-04-23T12:00:20.887Z</time></trkpt><trkpt lat="43.1964902" lon="13.1842139"><ele>554.0</ele><time>2026-04-23T12:00:22.887Z</time></trkpt><trkpt lat="43.1964897" lon="13.1843057"><ele>554.0</ele><time>2026-04-23T12:00:23.886Z</time></trkpt><trkpt lat="43.1964794" lon="13.1844549"><ele>556.2</ele><time>2026-04-23T12:00:25.886Z</time></trkpt><trkpt lat="43.196482" lon="13.1846082"><ele>558.4</ele><time>2026-04-23T12:00:27.887Z</time></trkpt><trkpt lat="43.1964971" lon="13.1847617"><ele>560.6</ele><time>2026-04-23T12:00:29.886Z</time></trkpt><trkpt lat="43.1964947" lon="13.1848811"><ele>562.8</ele><time>2026-04-23T12:00:31.887Z</time></trkpt><trkpt lat="43.1964885" lon="13.1849992"><ele>565.0</ele><time>2026-04-23T12:00:33.887Z</time></trkpt><trkpt lat="43.1964617" lon="13.1850829"><ele>560.6666666666667</ele><time>2026-04-23T12:00:35.885Z</time></trkpt><trkpt lat="43.1963806" lon="13.1851529"><ele>556.3333333333334</ele><time>2026-04-23T12:00:38.887Z</time></trkpt><trkpt lat="43.1963088" lon="13.1851749"><ele>552.0</ele><time>2026-04-23T12:00:40.887Z</time></trkpt><trkpt lat="43.1962428" lon="13.1852185"><ele>547.6666666666666</ele><time>2026-04-23T12:00:42.887Z</time></trkpt><trkpt lat="43.1961825" lon="13.1852469"><ele>543.3333333333333</ele><time>2026-04-23T12:00:44.887Z</time></trkpt><trkpt lat="43.1960988" lon="13.185275"><ele>539.0</ele><time>2026-04-23T12:00:46.885Z</time></trkpt><trkpt lat="43.1960124" lon="13.1853403"><ele>539.0</ele><time>2026-04-23T12:00:48.886Z</time></trkpt><trkpt lat="43.1959087" lon="13.1853799"><ele>539.0</ele><time>2026-04-23T12:00:50.887Z</time></trkpt><trkpt lat="43.195809" lon="13.1854149"><ele>539.0</ele><time>2026-04-23T12:00:52.886Z</time></trkpt><trkpt lat="43.1957469" lon="13.1854859"><ele>539.0</ele><time>2026-04-23T12:00:54.887Z</time></trkpt><trkpt lat="43.1957085" lon="13.1855707"><ele>539.0</ele><time>2026-04-23T12:00:56.886Z</time></trkpt><trkpt lat="43.1957141" lon="13.185704"><ele>538.8333333333333</ele><time>2026-04-23T12:00:58.885Z</time></trkpt><trkpt lat="43.1957217" lon="13.1858174"><ele>538.6666666666666</ele><time>2026-04-23T12:01:00.887Z</time></trkpt><trkpt lat="43.1957037" lon="13.1859254"><ele>538.5</ele><time>2026-04-23T12:01:02.885Z</time></trkpt><trkpt lat="43.1956673" lon="13.1860472"><ele>538.3333333333334</ele><time>2026-04-23T12:01:04.888Z</time></trkpt><trkpt lat="43.1956582" lon="13.1861362"><ele>538.1666666666667</ele><time>2026-04-23T12:01:06.888Z</time></trkpt><trkpt lat="43.1956377" lon="13.1862565"><ele>538.0</ele><time>2026-04-23T12:01:09.887Z</time></trkpt><trkpt lat="43.1956245" lon="13.1863426"><ele>538.0</ele><time>2026-04-23T12:01:11.886Z</time></trkpt><trkpt lat="43.1955647" lon="13.1864334"><ele>538.0</ele><time>2026-04-23T12:01:13.886Z</time></trkpt><trkpt lat="43.1954938" lon="13.1865423"><ele>538.0</ele><time>2026-04-23T12:01:15.886Z</time></trkpt><trkpt lat="43.1954275" lon="13.18664"><ele>538.0</ele><time>2026-04-23T12:01:17.887Z</time></trkpt><trkpt lat="43.1953428" lon="13.1867169"><ele>538.0</ele><time>2026-04-23T12:01:19.886Z</time></trkpt><trkpt lat="43.19525" lon="13.1867577"><ele>533.6666666666667</ele><time>2026-04-23T12:01:21.886Z</time></trkpt><trkpt lat="43.1951717" lon="13.186812"><ele>529.3333333333334</ele><time>2026-04-23T12:01:23.887Z</time></trkpt><trkpt lat="43.1951433" lon="13.1868903"><ele>525.0</ele><time>2026-04-23T12:01:42.887Z</time></trkpt><trkpt lat="43.1951561" lon="13.1869859"><ele>520.6666666666666</ele><time>2026-04-23T12:01:44.888Z</time></trkpt><trkpt lat="43.1951578" lon="13.1871325"><ele>516.3333333333333</ele><time>2026-04-23T12:01:46.886Z</time></trkpt><trkpt lat="43.1951554" lon="13.1872905"><ele>512.0</ele><time>2026-04-23T12:01:48.887Z</time></trkpt><trkpt lat="43.1951832" lon="13.1874305"><ele>509.8</ele><time>2026-04-23T12:01:50.886Z</time></trkpt><trkpt lat="43.1952356" lon="13.1875605"><ele>507.6</ele><time>2026-04-23T12:01:52.887Z</time></trkpt><trkpt lat="43.1952817" lon="13.1876304"><ele>505.40000000000003</ele><time>2026-04-23T12:01:53.887Z</time></trkpt><trkpt lat="43.1953022" lon="13.1877192"><ele>503.20000000000005</ele><time>2026-04-23T12:01:54.886Z</time></trkpt><trkpt lat="43.1952952" lon="13.1878773"><ele>501.0</ele><time>2026-04-23T12:01:56.888Z</time></trkpt><trkpt lat="43.195264" lon="13.1880248"><ele>500.3333333333333</ele><time>2026-04-23T12:01:58.885Z</time></trkpt><trkpt lat="43.195233" lon="13.1881792"><ele>499.66666666666663</ele><time>2026-04-23T12:02:00.887Z</time></trkpt><trkpt lat="43.1952251" lon="13.188269"><ele>499.0</ele><time>2026-04-23T12:02:01.886Z</time></trkpt><trkpt lat="43.1952307" lon="13.1883576"><ele>498.3333333333333</ele><time>2026-04-23T12:02:02.886Z</time></trkpt><trkpt lat="43.1952644" lon="13.1885033"><ele>497.66666666666663</ele><time>2026-04-23T12:02:04.887Z</time></trkpt><trkpt lat="43.1952968" lon="13.188583"><ele>497.0</ele><time>2026-04-23T12:02:05.887Z</time></trkpt><trkpt lat="43.1953284" lon="13.1886687"><ele>496.99999999999994</ele><time>2026-04-23T12:02:06.887Z</time></trkpt><trkpt lat="43.1953698" lon="13.1887681"><ele>497.0</ele><time>2026-04-23T12:02:07.887Z</time></trkpt><trkpt lat="43.1954016" lon="13.188863"><ele>497.0</ele><time>2026-04-23T12:02:08.887Z</time></trkpt><trkpt lat="43.1954285" lon="13.1889615"><ele>497.0</ele><time>2026-04-23T12:02:09.887Z</time></trkpt><trkpt lat="43.1954663" lon="13.1890628"><ele>496.99999999999994</ele><time>2026-04-23T12:02:10.886Z</time></trkpt><trkpt lat="43.1955031" lon="13.1891588"><ele>497.0</ele><time>2026-04-23T12:02:11.887Z</time></trkpt><trkpt lat="43.195539" lon="13.189235"><ele>497.0</ele><time>2026-04-23T12:02:12.886Z</time></trkpt><trkpt lat="43.1955856" lon="13.1893147"><ele>497.0</ele><time>2026-04-23T12:02:25.888Z</time></trkpt><trkpt lat="43.195621" lon="13.1894012"><ele>497.0</ele><time>2026-04-23T12:02:29.887Z</time></trkpt><trkpt lat="43.1956681" lon="13.1894719"><ele>497.0</ele><time>2026-04-23T12:02:32.886Z</time></trkpt><trkpt lat="43.1957032" lon="13.1895672"><ele>497.0</ele><time>2026-04-23T12:02:34.888Z</time></trkpt><trkpt lat="43.1957232" lon="13.1896541"><ele>497.0</ele><time>2026-04-23T12:02:36.886Z</time></trkpt><trkpt lat="43.1957176" lon="13.1897662"><ele>497.0</ele><time>2026-04-23T12:02:38.885Z</time></trkpt><trkpt lat="43.1957177" lon="13.1898714"><ele>495.99999999999994</ele><time>2026-04-23T12:02:40.888Z</time></trkpt><trkpt lat="43.1956636" lon="13.1899553"><ele>495.0</ele><time>2026-04-23T12:02:44.887Z</time></trkpt><trkpt lat="43.1955923" lon="13.1899126"><ele>494.0</ele><time>2026-04-23T12:02:47.887Z</time></trkpt><trkpt lat="43.1955812" lon="13.1898068"><ele>493.0</ele><time>2026-04-23T12:02:49.886Z</time></trkpt><trkpt lat="43.1955773" lon="13.1896908"><ele>491.99999999999994</ele><time>2026-04-23T12:02:51.885Z</time></trkpt><trkpt lat="43.1955638" lon="13.1895557"><ele>491.0</ele><time>2026-04-23T12:02:53.886Z</time></trkpt><trkpt lat="43.1955546" lon="13.1894359"><ele>490.99999999999994</ele><time>2026-04-23T12:02:55.886Z</time></trkpt><trkpt lat="43.1955453" lon="13.189311"><ele>491.0</ele><time>2026-04-23T12:02:57.886Z</time></trkpt><trkpt lat="43.195528" lon="13.1892003"><ele>491.0</ele><time>2026-04-23T12:02:59.886Z</time></trkpt><trkpt lat="43.1954914" lon="13.1890937"><ele>491.0</ele><time>2026-04-23T12:03:01.886Z</time></trkpt><trkpt lat="43.1954335" lon="13.1889886"><ele>490.99999999999994</ele><time>2026-04-23T12:03:03.886Z</time></trkpt><trkpt lat="43.1953727" lon="13.1889167"><ele>491.0</ele><time>2026-04-23T12:03:05.887Z</time></trkpt><trkpt lat="43.1953112" lon="13.1888398"><ele>491.99999999999994</ele><time>2026-04-23T12:03:07.886Z</time></trkpt><trkpt lat="43.1952669" lon="13.1887782"><ele>493.0</ele><time>2026-04-23T12:03:09.887Z</time></trkpt><trkpt lat="43.1952124" lon="13.1887024"><ele>494.0</ele><time>2026-04-23T12:03:12.887Z</time></trkpt><trkpt lat="43.1951323" lon="13.1886464"><ele>495.0</ele><time>2026-04-23T12:03:15.886Z</time></trkpt><trkpt lat="43.1950764" lon="13.1885972"><ele>495.99999999999994</ele><time>2026-04-23T12:03:17.887Z</time></trkpt><trkpt lat="43.1949985" lon="13.1885376"><ele>497.0</ele><time>2026-04-23T12:03:20.887Z</time></trkpt><trkpt lat="43.1949354" lon="13.1884615"><ele>496.99999999999994</ele><time>2026-04-23T12:03:23.886Z</time></trkpt><trkpt lat="43.1948943" lon="13.1883905"><ele>497.0</ele><time>2026-04-23T12:03:27.887Z</time></trkpt><trkpt lat="43.194827" lon="13.188309"><ele>497.0</ele><time>2026-04-23T12:03:31.885Z</time></trkpt><trkpt lat="43.1947353" lon="13.1882557"><ele>497.0</ele><time>2026-04-23T12:03:33.887Z</time></trkpt><trkpt lat="43.1946419" lon="13.1882372"><ele>496.99999999999994</ele><time>2026-04-23T12:03:35.887Z</time></trkpt><trkpt lat="43.1945613" lon="13.1882127"><ele>497.0</ele><time>2026-04-23T12:03:37.888Z</time></trkpt><trkpt lat="43.1944794" lon="13.1882094"><ele>495.0</ele><time>2026-04-23T12:03:39.885Z</time></trkpt><trkpt lat="43.1943821" lon="13.1882421"><ele>493.00000000000006</ele><time>2026-04-23T12:03:41.887Z</time></trkpt><trkpt lat="43.1942807" lon="13.1882764"><ele>491.00000000000006</ele><time>2026-04-23T12:03:43.886Z</time></trkpt><trkpt lat="43.1941952" lon="13.1882963"><ele>489.0</ele><time>2026-04-23T12:03:45.886Z</time></trkpt><trkpt lat="43.1941177" lon="13.1883559"><ele>487.0</ele><time>2026-04-23T12:03:47.886Z</time></trkpt><trkpt lat="43.1940425" lon="13.1884111"><ele>490.0</ele><time>2026-04-23T12:03:49.886Z</time></trkpt><trkpt lat="43.1939449" lon="13.1884811"><ele>493.00000000000006</ele><time>2026-04-23T12:03:51.887Z</time></trkpt><trkpt lat="43.1938663" lon="13.188568"><ele>496.00000000000006</ele><time>2026-04-23T12:03:53.888Z</time></trkpt><trkpt lat="43.193808" lon="13.1886749"><ele>499.0</ele><time>2026-04-23T12:03:55.887Z</time></trkpt><trkpt lat="43.1937477" lon="13.1887414"><ele>502.0</ele><time>2026-04-23T12:03:57.887Z</time></trkpt><trkpt lat="43.1936193" lon="13.1887528"><ele>502.0</ele><time>2026-04-23T12:03:59.887Z</time></trkpt><trkpt lat="43.1935498" lon="13.1887611"><ele>502.00000000000006</ele><time>2026-04-23T12:04:00.885Z</time></trkpt><trkpt lat="43.1934234" lon="13.1887566"><ele>502.00000000000006</ele><time>2026-04-23T12:04:02.887Z</time></trkpt><trkpt lat="43.1933461" lon="13.1887412"><ele>502.0</ele><time>2026-04-23T12:04:03.887Z</time></trkpt><trkpt lat="43.1932162" lon="13.1887218"><ele>502.0</ele><time>2026-04-23T12:04:05.885Z</time></trkpt><trkpt lat="43.1931358" lon="13.1887323"><ele>503.0</ele><time>2026-04-23T12:04:06.885Z</time></trkpt><trkpt lat="43.193063" lon="13.1887279"><ele>504.00000000000006</ele><time>2026-04-23T12:04:07.886Z</time></trkpt><trkpt lat="43.1929836" lon="13.1887265"><ele>505.00000000000006</ele><time>2026-04-23T12:04:08.887Z</time></trkpt><trkpt lat="43.1929123" lon="13.188721"><ele>506.0</ele><time>2026-04-23T12:04:09.886Z</time></trkpt><trkpt lat="43.1928041" lon="13.1886851"><ele>507.0</ele><time>2026-04-23T12:04:11.888Z</time></trkpt><trkpt lat="43.1926953" lon="13.1886052"><ele>507.0</ele><time>2026-04-23T12:04:13.887Z</time></trkpt><trkpt lat="43.192626" lon="13.1885541"><ele>507.0</ele><time>2026-04-23T12:04:14.885Z</time></trkpt><trkpt lat="43.1925368" lon="13.1885218"><ele>507.0</ele><time>2026-04-23T12:04:15.888Z</time></trkpt><trkpt lat="43.1924522" lon="13.1884861"><ele>507.0</ele><time>2026-04-23T12:04:16.886Z</time></trkpt><trkpt lat="43.1923678" lon="13.1884586"><ele>507.0</ele><time>2026-04-23T12:04:17.888Z</time></trkpt><trkpt lat="43.1922947" lon="13.1884196"><ele>507.0</ele><time>2026-04-23T12:04:18.888Z</time></trkpt><trkpt lat="43.1922231" lon="13.1883881"><ele>506.3333333333333</ele><time>2026-04-23T12:04:19.886Z</time></trkpt><trkpt lat="43.1921728" lon="13.1883313"><ele>505.66666666666663</ele><time>2026-04-23T12:04:20.887Z</time></trkpt><trkpt lat="43.1921236" lon="13.1882716"><ele>505.0</ele><time>2026-04-23T12:04:21.886Z</time></trkpt><trkpt lat="43.1920703" lon="13.1881714"><ele>504.3333333333333</ele><time>2026-04-23T12:04:22.886Z</time></trkpt><trkpt lat="43.1920048" lon="13.1880902"><ele>503.66666666666663</ele><time>2026-04-23T12:04:23.887Z</time></trkpt><trkpt lat="43.1919282" lon="13.1880276"><ele>503.0</ele><time>2026-04-23T12:04:24.886Z</time></trkpt><trkpt lat="43.1918494" lon="13.1879713"><ele>505.59999999999997</ele><time>2026-04-23T12:04:25.888Z</time></trkpt><trkpt lat="43.1917642" lon="13.1879106"><ele>508.19999999999993</ele><time>2026-04-23T12:04:26.886Z</time></trkpt><trkpt lat="43.1916716" lon="13.1878618"><ele>510.8</ele><time>2026-04-23T12:04:27.886Z</time></trkpt><trkpt lat="43.1915792" lon="13.1878175"><ele>513.4</ele><time>2026-04-23T12:04:28.887Z</time></trkpt><trkpt lat="43.1914839" lon="13.1877741"><ele>516.0</ele><time>2026-04-23T12:04:29.887Z</time></trkpt><trkpt lat="43.1913984" lon="13.1877424"><ele>516.0</ele><time>2026-04-23T12:04:30.887Z</time></trkpt><trkpt lat="43.1913371" lon="13.1877178"><ele>516.0</ele><time>2026-04-23T12:04:31.887Z</time></trkpt><trkpt lat="43.1912227" lon="13.1877082"><ele>516.0</ele><time>2026-04-23T12:04:33.887Z</time></trkpt><trkpt lat="43.1911042" lon="13.1877675"><ele>516.0</ele><time>2026-04-23T12:04:35.887Z</time></trkpt><trkpt lat="43.1910441" lon="13.1878227"><ele>516.0</ele><time>2026-04-23T12:04:36.887Z</time></trkpt><trkpt lat="43.1909815" lon="13.1878814"><ele>516.0</ele><time>2026-04-23T12:04:37.886Z</time></trkpt><trkpt lat="43.1909268" lon="13.187938"><ele>516.0</ele><time>2026-04-23T12:04:38.888Z</time></trkpt><trkpt lat="43.1908341" lon="13.1880467"><ele>516.0</ele><time>2026-04-23T12:04:40.888Z</time></trkpt><trkpt lat="43.1907859" lon="13.1881106"><ele>516.0</ele><time>2026-04-23T12:04:41.886Z</time></trkpt><trkpt lat="43.1907629" lon="13.1882169"><ele>516.0</ele><time>2026-04-23T12:04:43.888Z</time></trkpt><trkpt lat="43.1908149" lon="13.1883391"><ele>516.0</ele><time>2026-04-23T12:04:45.888Z</time></trkpt><trkpt lat="43.1908397" lon="13.18849"><ele>514.9999999999999</ele><time>2026-04-23T12:04:47.885Z</time></trkpt><trkpt lat="43.1908401" lon="13.1885852"><ele>514.0</ele><time>2026-04-23T12:04:48.885Z</time></trkpt><trkpt lat="43.1908354" lon="13.1886938"><ele>513.0</ele><time>2026-04-23T12:04:49.886Z</time></trkpt><trkpt lat="43.1908262" lon="13.1888025"><ele>511.99999999999994</ele><time>2026-04-23T12:04:50.886Z</time></trkpt><trkpt lat="43.1908073" lon="13.1889052"><ele>511.0</ele><time>2026-04-23T12:04:51.887Z</time></trkpt><trkpt lat="43.1907735" lon="13.1889892"><ele>509.99999999999994</ele><time>2026-04-23T12:04:52.887Z</time></trkpt><trkpt lat="43.1907284" lon="13.1890495"><ele>508.99999999999994</ele><time>2026-04-23T12:04:53.887Z</time></trkpt><trkpt lat="43.1906601" lon="13.1891319"><ele>508.49999999999994</ele><time>2026-04-23T12:04:55.885Z</time></trkpt><trkpt lat="43.1906571" lon="13.1892464"><ele>508.0</ele><time>2026-04-23T12:04:57.886Z</time></trkpt><trkpt lat="43.1906814" lon="13.1893329"><ele>507.5</ele><time>2026-04-23T12:04:58.888Z</time></trkpt><trkpt lat="43.1907231" lon="13.1894242"><ele>507.0</ele><time>2026-04-23T12:04:59.886Z</time></trkpt><trkpt lat="43.1907676" lon="13.189517"><ele>506.49999999999994</ele><time>2026-04-23T12:05:00.887Z</time></trkpt><trkpt lat="43.1908139" lon="13.1896086"><ele>506.0</ele><time>2026-04-23T12:05:01.886Z</time></trkpt><trkpt lat="43.1908609" lon="13.1896982"><ele>505.99999999999994</ele><time>2026-04-23T12:05:02.886Z</time></trkpt><trkpt lat="43.1909069" lon="13.1897916"><ele>506.0</ele><time>2026-04-23T12:05:03.888Z</time></trkpt><trkpt lat="43.1909455" lon="13.1898914"><ele>506.0</ele><time>2026-04-23T12:05:04.887Z</time></trkpt><trkpt lat="43.1909847" lon="13.1899939"><ele>506.0</ele><time>2026-04-23T12:05:05.886Z</time></trkpt><trkpt lat="43.191027" lon="13.190092"><ele>505.99999999999994</ele><time>2026-04-23T12:05:06.886Z</time></trkpt><trkpt lat="43.1910698" lon="13.1901737"><ele>506.0</ele><time>2026-04-23T12:05:07.887Z</time></trkpt><trkpt lat="43.1911313" lon="13.1903164"><ele>504.4</ele><time>2026-04-23T12:05:09.888Z</time></trkpt><trkpt lat="43.1911774" lon="13.190475"><ele>502.8</ele><time>2026-04-23T12:05:11.885Z</time></trkpt><trkpt lat="43.1912044" lon="13.1905595"><ele>501.19999999999993</ele><time>2026-04-23T12:05:12.886Z</time></trkpt><trkpt lat="43.1912586" lon="13.1907113"><ele>499.59999999999997</ele><time>2026-04-23T12:05:14.887Z</time></trkpt><trkpt lat="43.1913078" lon="13.1908625"><ele>498.0</ele><time>2026-04-23T12:05:16.886Z</time></trkpt><trkpt lat="43.1913228" lon="13.1909505"><ele>496.0</ele><time>2026-04-23T12:05:17.887Z</time></trkpt><trkpt lat="43.1913267" lon="13.1910574"><ele>493.99999999999994</ele><time>2026-04-23T12:05:18.886Z</time></trkpt><trkpt lat="43.1913216" lon="13.1911805"><ele>491.99999999999994</ele><time>2026-04-23T12:05:19.886Z</time></trkpt><trkpt lat="43.1913139" lon="13.1913123"><ele>490.0</ele><time>2026-04-23T12:05:20.888Z</time></trkpt><trkpt lat="43.1913074" lon="13.1914505"><ele>488.0</ele><time>2026-04-23T12:05:21.886Z</time></trkpt><trkpt lat="43.1912981" lon="13.1915932"><ele>485.0</ele><time>2026-04-23T12:05:22.886Z</time></trkpt><trkpt lat="43.1912785" lon="13.1917333"><ele>481.99999999999994</ele><time>2026-04-23T12:05:23.887Z</time></trkpt><trkpt lat="43.1912572" lon="13.1918707"><ele>478.99999999999994</ele><time>2026-04-23T12:05:24.887Z</time></trkpt><trkpt lat="43.1912406" lon="13.1920094"><ele>476.0</ele><time>2026-04-23T12:05:25.886Z</time></trkpt><trkpt lat="43.1912265" lon="13.192152"><ele>473.0</ele><time>2026-04-23T12:05:26.888Z</time></trkpt><trkpt lat="43.1912191" lon="13.1923004"><ele>472.4</ele><time>2026-04-23T12:05:27.887Z</time></trkpt><trkpt lat="43.1912122" lon="13.192444"><ele>471.79999999999995</ele><time>2026-04-23T12:05:28.886Z</time></trkpt><trkpt lat="43.1912057" lon="13.1925861"><ele>471.2</ele><time>2026-04-23T12:05:29.887Z</time></trkpt><trkpt lat="43.1911987" lon="13.1927307"><ele>470.6</ele><time>2026-04-23T12:05:30.885Z</time></trkpt><trkpt lat="43.1911936" lon="13.1928732"><ele>470.0</ele><time>2026-04-23T12:05:31.888Z</time></trkpt><trkpt lat="43.1911877" lon="13.1930067"><ele>469.99999999999994</ele><time>2026-04-23T12:05:32.887Z</time></trkpt><trkpt lat="43.191179" lon="13.1931215"><ele>470.0</ele><time>2026-04-23T12:05:33.888Z</time></trkpt><trkpt lat="43.1911687" lon="13.1932241"><ele>470.0</ele><time>2026-04-23T12:05:34.886Z</time></trkpt><trkpt lat="43.1911362" lon="13.1933275"><ele>470.0</ele><time>2026-04-23T12:05:35.886Z</time></trkpt><trkpt lat="43.1910922" lon="13.1934349"><ele>469.99999999999994</ele><time>2026-04-23T12:05:36.886Z</time></trkpt><trkpt lat="43.1910455" lon="13.1935493"><ele>470.0</ele><time>2026-04-23T12:05:37.885Z</time></trkpt><trkpt lat="43.1910001" lon="13.1936592"><ele>469.66666666666663</ele><time>2026-04-23T12:05:38.886Z</time></trkpt><trkpt lat="43.1909618" lon="13.1937666"><ele>469.3333333333333</ele><time>2026-04-23T12:05:39.887Z</time></trkpt><trkpt lat="43.1909353" lon="13.1938734"><ele>469.0</ele><time>2026-04-23T12:05:40.886Z</time></trkpt><trkpt lat="43.1909206" lon="13.1939733"><ele>468.66666666666663</ele><time>2026-04-23T12:05:41.887Z</time></trkpt><trkpt lat="43.1909091" lon="13.1940664"><ele>468.3333333333333</ele><time>2026-04-23T12:05:42.886Z</time></trkpt><trkpt lat="43.1909062" lon="13.1942038"><ele>468.0</ele><time>2026-04-23T12:05:44.887Z</time></trkpt><trkpt lat="43.1909446" lon="13.1943012"><ele>466.79999999999995</ele><time>2026-04-23T12:05:47.886Z</time></trkpt><trkpt lat="43.1910097" lon="13.1942873"><ele>465.59999999999997</ele><time>2026-04-23T12:05:49.886Z</time></trkpt><trkpt lat="43.191098" lon="13.1942625"><ele>464.40000000000003</ele><time>2026-04-23T12:05:51.887Z</time></trkpt><trkpt lat="43.1911999" lon="13.1942436"><ele>463.20000000000005</ele><time>2026-04-23T12:05:53.887Z</time></trkpt><trkpt lat="43.1913107" lon="13.1942639"><ele>462.0</ele><time>2026-04-23T12:05:55.887Z</time></trkpt><trkpt lat="43.1914022" lon="13.1942811"><ele>462.0</ele><time>2026-04-23T12:05:57.886Z</time></trkpt><trkpt lat="43.1914968" lon="13.1942856"><ele>462.0</ele><time>2026-04-23T12:05:59.886Z</time></trkpt><trkpt lat="43.191563" lon="13.1942555"><ele>462.0</ele><time>2026-04-23T12:06:02.888Z</time></trkpt><trkpt lat="43.1916239" lon="13.194222"><ele>462.0</ele><time>2026-04-23T12:06:55.887Z</time></trkpt><trkpt lat="43.1916932" lon="13.1942144"><ele>462.0</ele><time>2026-04-23T12:06:57.886Z</time></trkpt><trkpt lat="43.1917562" lon="13.1942042"><ele>462.0</ele><time>2026-04-23T12:06:59.888Z</time></trkpt><trkpt lat="43.1918542" lon="13.194198"><ele>462.0</ele><time>2026-04-23T12:07:01.887Z</time></trkpt><trkpt lat="43.1919496" lon="13.1941685"><ele>462.0</ele><time>2026-04-23T12:07:03.886Z</time></trkpt><trkpt lat="43.1920374" lon="13.1941122"><ele>462.0</ele><time>2026-04-23T12:07:05.887Z</time></trkpt><trkpt lat="43.1921158" lon="13.1940641"><ele>462.0</ele><time>2026-04-23T12:07:07.886Z</time></trkpt><trkpt lat="43.1921821" lon="13.1940226"><ele>462.0</ele><time>2026-04-23T12:07:09.887Z</time></trkpt><trkpt lat="43.1922687" lon="13.1940081"><ele>462.0</ele><time>2026-04-23T12:07:11.886Z</time></trkpt><trkpt lat="43.1923445" lon="13.1940146"><ele>459.0</ele><time>2026-04-23T12:07:13.886Z</time></trkpt><trkpt lat="43.192421" lon="13.1940994"><ele>456.00000000000006</ele><time>2026-04-23T12:07:15.886Z</time></trkpt><trkpt lat="43.192525" lon="13.1942078"><ele>453.00000000000006</ele><time>2026-04-23T12:07:17.887Z</time></trkpt><trkpt lat="43.1925773" lon="13.1942735"><ele>450.0</ele><time>2026-04-23T12:07:18.886Z</time></trkpt><trkpt lat="43.1926211" lon="13.1943616"><ele>447.0</ele><time>2026-04-23T12:07:19.885Z</time></trkpt><trkpt lat="43.1926678" lon="13.1944495"><ele>447.0</ele><time>2026-04-23T12:07:20.888Z</time></trkpt><trkpt lat="43.1927161" lon="13.1945438"><ele>447.0</ele><time>2026-04-23T12:07:21.886Z</time></trkpt><trkpt lat="43.1927644" lon="13.1946394"><ele>447.0</ele><time>2026-04-23T12:07:22.885Z</time></trkpt><trkpt lat="43.1928143" lon="13.1947371"><ele>447.0</ele><time>2026-04-23T12:07:23.885Z</time></trkpt><trkpt lat="43.1928504" lon="13.1948275"><ele>447.0</ele><time>2026-04-23T12:07:24.887Z</time></trkpt><trkpt lat="43.1928859" lon="13.194905"><ele>447.0</ele><time>2026-04-23T12:07:25.886Z</time></trkpt><trkpt lat="43.1929429" lon="13.195016"><ele>446.1666666666667</ele><time>2026-04-23T12:07:27.885Z</time></trkpt><trkpt lat="43.1930093" lon="13.1950231"><ele>445.33333333333337</ele><time>2026-04-23T12:07:28.888Z</time></trkpt><trkpt lat="43.1931191" lon="13.1950276"><ele>444.5</ele><time>2026-04-23T12:07:30.886Z</time></trkpt><trkpt lat="43.1932033" lon="13.1950803"><ele>443.6666666666667</ele><time>2026-04-23T12:07:32.886Z</time></trkpt><trkpt lat="43.1932477" lon="13.1952192"><ele>442.83333333333337</ele><time>2026-04-23T12:07:34.887Z</time></trkpt><trkpt lat="43.1932585" lon="13.1953057"><ele>442.0</ele><time>2026-04-23T12:07:35.887Z</time></trkpt><trkpt lat="43.1932778" lon="13.1953925"><ele>424.0</ele><time>2026-04-23T12:07:36.885Z</time></trkpt><trkpt lat="43.1932976" lon="13.1954879"><ele>424.0</ele><time>2026-04-23T12:07:37.887Z</time></trkpt><trkpt lat="43.1933175" lon="13.1955887"><ele>424.0</ele><time>2026-04-23T12:07:38.886Z</time></trkpt><trkpt lat="43.1933332" lon="13.1956931"><ele>421.0</ele><time>2026-04-23T12:07:39.888Z</time></trkpt><trkpt lat="43.1933458" lon="13.1957928"><ele>421.0</ele><time>2026-04-23T12:07:40.886Z</time></trkpt><trkpt lat="43.1933628" lon="13.1958943"><ele>421.0</ele><time>2026-04-23T12:07:41.886Z</time></trkpt></trkseg></trk></gpx>